[[{"header":{"parameterUnit":"m.s-1","parameterCategory":1,"la1":30.6,"la2":28.766,"lo1":-90.7593,"lo2":-88.6598,"dy":0.0162,"dx":0.0183,"nx":116,"ny":114,"refTime":"2023-04-10T12:00:00:Z","depth":0,"parameterNumber":2,"parameterNumberName":"U-component_of_WINDS"},"data":[0.0,0.0,0.0,0.0,0.0,0.0,0.0,0.0,0.0,0.0,0.0,0.0,0.0,0.0,0.0,0.0,0.0,0.0,0.0,0.0,0.0,0.0,0.0,0.0,0.0,0.0,0.0,0.0,0.0,0.0,0.0,0.0,0.0,0.0,0.0,0.0,0.0,0.0,0.0,0.0,0.0,0.0,0.0,0.0,0.0,0.0,0.0,0.0,0.0,0.0,0.0,0.0,0.0,0.0,0.0,0.0,0.0,0.0,0.0,0.0,0.0,0.0,0.0,0.0,0.0,0.0,0.0,0.0,0.0,0.0,0.0,0.0,0.0,0.0,0.0,0.0,0.0,0.0,0.0,0.0,0.0,0.0,0.0,0.0,0.0,0.0,0.0,0.0,0.0,0.0,0.0,0.0,0.0,0.0,0.0,0.0,0.0,0.0,0.0,0.0,0.0,0.0,0.0,0.0,0.0,0.0,0.0,0.0,0.0,0.0,0.0,0.0,0.0,0.0,0.0,0.0,0.0,0.0,0.0,0.0,0.0,0.0,0.0,0.0,0.0,0.0,0.0,0.0,0.0,0.0,0.0,0.0,0.0,0.0,0.0,0.0,0.0,0.0,0.0,0.0,0.0,0.0,0.0,0.0,0.0,0.0,0.0,0.0,0.0,0.0,0.0,0.0,0.0,0.0,0.0,0.0,0.0,0.0,0.0,0.0,0.0,0.0,0.0,0.0,0.0,0.0,0.0,0.0,0.0,0.0,0.0,0.0,0.0,0.0,0.0,0.0,0.0,0.0,0.0,0.0,0.0,0.0,0.0,0.0,0.0,0.0,0.0,0.0,0.0,0.0,0.0,0.0,0.0,0.0,0.0,0.0,0.0,0.0,0.0,0.0,0.0,0.0,0.0,0.0,0.0,0.0,0.0,0.0,0.0,0.0,0.0,0.0,0.0,0.0,0.0,0.0,0.0,0.0,0.0,0.0,0.0,0.0,0.0,0.0,0.0,0.0,0.0,0.0,0.0,0.0,0.0,0.0,0.0,0.0,0.0,0.0,0.0,0.0,0.0,0.0,0.0,0.0,0.0,0.0,0.0,0.0,0.0,0.0,0.0,0.0,0.0,0.0,0.0,0.0,0.0,0.0,0.0,0.0,0.0,0.0,0.0,0.0,0.0,0.0,0.0,0.0,0.0,0.0,0.0,0.0,0.0,0.0,0.0,0.0,0.0,0.0,0.0,0.0,0.0,0.0,0.0,0.0,0.0,0.0,0.0,0.0,0.0,0.0,0.0,0.0,0.0,0.0,0.0,0.0,0.0,0.0,0.0,0.0,0.0,0.0,0.0,0.0,0.0,0.0,0.0,0.0,0.0,0.0,0.0,0.0,0.0,0.0,0.0,0.0,0.0,0.0,0.0,0.0,0.0,0.0,0.0,0.0,0.0,0.0,0.0,0.0,0.0,0.0,0.0,0.0,0.0,0.0,0.0,0.0,0.0,0.0,0.0,0.0,0.0,0.0,0.0,0.0,0.0,0.0,0.0,0.0,0.0,0.0,0.0,0.0,0.0,0.0,0.0,0.0,0.0,0.0,0.0,0.0,0.0,0.0,0.0,0.0,0.0,0.0,0.0,0.0,0.0,0.0,0.0,0.0,0.0,0.0,0.0,0.0,0.0,0.0,0.0,0.0,0.0,0.0,0.0,0.0,0.0,0.0,0.0,0.0,0.0,0.0,0.0,0.0,0.0,0.0,0.0,0.0,0.0,0.0,0.0,0.0,0.0,0.0,0.0,0.0,0.0,0.0,0.0,0.0,0.0,0.0,0.0,0.0,0.0,0.0,0.0,0.0,0.0,0.0,0.0,0.0,0.0,0.0,0.0,0.0,0.0,0.0,0.0,0.0,0.0,0.0,0.0,0.0,0.0,0.0,0.0,0.0,0.0,0.0,0.0,0.0,0.0,0.0,0.0,0.0,0.0,0.0,0.0,0.0,0.0,0.0,0.0,0.0,0.0,0.0,0.0,0.0,0.0,0.0,0.0,0.0,0.0,0.0,0.0,0.0,0.0,0.0,0.0,0.0,0.0,0.0,0.0,0.0,0.0,0.0,0.0,0.0,0.0,0.0,0.0,0.0,0.0,0.0,0.0,0.0,0.0,0.0,0.0,0.0,0.0,0.0,0.0,0.0,0.0,0.0,0.0,0.0,0.0,0.0,0.0,0.0,0.0,0.0,0.0,0.0,0.0,0.0,0.0,0.0,0.0,0.0,0.0,0.0,0.0,0.0,0.0,0.0,0.0,0.0,0.0,0.0,0.0,0.0,0.0,0.0,0.0,0.0,0.0,0.0,0.0,0.0,0.0,0.0,0.0,0.0,0.0,0.0,0.0,0.0,0.0,0.0,0.0,0.0,0.0,0.0,0.0,0.0,0.0,0.0,0.0,0.0,0.0,0.0,0.0,0.0,0.0,0.0,0.0,0.0,0.0,0.0,0.0,0.0,0.0,0.0,0.0,0.0,0.0,0.0,0.0,0.0,0.0,0.0,0.0,0.0,0.0,0.0,0.0,0.0,0.0,0.0,0.0,0.0,0.0,0.0,0.0,0.0,0.0,0.0,0.0,0.0,0.0,0.0,0.0,0.0,0.0,0.0,0.0,0.0,0.0,0.0,0.0,0.0,0.0,0.0,0.0,0.0,0.0,0.0,0.0,0.0,0.0,0.0,0.0,0.0,0.0,0.0,0.0,0.0,0.0,0.0,0.0,0.0,0.0,0.0,0.0,0.0,0.0,0.0,0.0,0.0,0.0,0.0,0.0,0.0,0.0,0.0,0.0,0.0,0.0,0.0,0.0,0.0,0.0,0.0,0.0,0.0,0.0,0.0,0.0,0.0,0.0,0.0,0.0,0.0,0.0,0.0,0.0,0.0,0.0,0.0,0.0,0.0,0.0,0.0,0.0,0.0,0.0,0.0,0.0,0.0,0.0,0.0,0.0,0.0,0.0,0.0,0.0,0.0,0.0,0.0,0.0,0.0,0.0,0.0,0.0,0.0,0.0,0.0,0.0,0.0,0.0,0.0,0.0,0.0,0.0,0.0,0.0,0.0,0.0,0.0,0.0,0.0,0.0,0.0,0.0,0.0,0.0,0.0,0.0,0.0,0.0,0.0,0.0,0.0,0.0,0.0,0.0,0.0,0.0,0.0,0.0,0.0,0.0,0.0,0.0,0.0,0.0,0.0,0.0,0.0,0.0,0.0,0.0,0.0,0.0,0.0,0.0,0.0,0.0,0.0,0.0,0.0,0.0,0.0,0.0,0.0,0.0,0.0,0.0,0.0,0.0,0.0,0.0,0.0,0.0,0.0,0.0,0.0,0.0,0.0,0.0,0.0,0.0,0.0,0.0,0.0,0.0,0.0,0.0,0.0,0.0,0.0,0.0,0.0,0.0,0.0,0.0,0.0,0.0,0.0,0.0,0.0,0.0,0.0,0.0,0.0,0.0,0.0,0.0,0.0,0.0,0.0,0.0,0.0,0.0,0.0,0.0,0.0,0.0,0.0,0.0,0.0,0.0,0.0,0.0,0.0,0.0,0.0,0.0,0.0,0.0,0.0,0.0,0.0,0.0,0.0,0.0,0.0,0.0,0.0,0.0,0.0,0.0,0.0,0.0,0.0,0.0,0.0,0.0,0.0,0.0,0.0,0.0,0.0,0.0,0.0,0.0,0.0,0.0,0.0,0.0,0.0,0.0,0.0,0.0,0.0,0.0,0.0,0.0,0.0,0.0,0.0,0.0,0.0,0.0,0.0,0.0,0.0,0.0,0.0,0.0,0.0,0.0,0.0,0.0,0.0,0.0,0.0,0.0,0.0,0.0,0.0,0.0,0.0,0.0,0.0,0.0,0.0,0.0,0.0,0.0,0.0,0.0,0.0,0.0,0.0,0.0,0.0,0.0,0.0,0.0,0.0,0.0,0.0,0.0,0.0,0.0,0.0,0.0,0.0,0.0,0.0,0.0,0.0,0.0,0.0,0.0,0.0,0.0,0.0,0.0,0.0,0.0,0.0,0.0,0.0,0.0,0.0,0.0,0.0,0.0,0.0,0.0,0.0,0.0,0.0,0.0,0.0,0.0,0.0,0.0,0.0,0.0,0.0,0.0,0.0,0.0,0.0,0.0,0.0,0.0,0.0,0.0,0.0,0.0,0.0,0.0,0.0,0.0,0.0,0.0,0.0,0.0,0.0,0.0,0.0,0.0,0.0,0.0,0.0,0.0,0.0,0.0,0.0,0.0,0.0,0.0,0.0,0.0,0.0,0.0,0.0,0.0,0.0,0.0,0.0,0.0,0.0,0.0,0.0,0.0,0.0,0.0,0.0,0.0,0.0,0.0,0.0,0.0,0.0,0.0,0.0,0.0,0.0,0.0,0.0,0.0,0.0,0.0,0.0,0.0,0.0,0.0,0.0,0.0,0.0,0.0,0.0,0.0,0.0,0.0,0.0,0.0,0.0,0.0,0.0,0.0,0.0,0.0,0.0,0.0,0.0,0.0,0.0,0.0,0.0,0.0,0.0,0.0,0.0,0.0,0.0,0.0,0.0,0.0,0.0,0.0,0.0,0.0,0.0,0.0,0.0,0.0,0.0,0.0,0.0,0.0,0.0,0.0,0.0,0.0,0.0,0.0,0.0,0.0,0.0,0.0,0.0,0.0,0.0,0.0,0.0,0.0,0.0,0.0,0.0,0.0,0.0,0.0,0.0,0.0,0.0,0.0,0.0,0.0,0.0,0.0,0.0,0.0,0.0,0.0,0.0,0.0,0.0,0.0,0.0,0.0,0.0,0.0,0.0,0.0,0.0,0.0,0.0,0.0,0.0,0.0,0.0,0.0,0.0,0.0,0.0,0.0,0.0,0.0,0.0,0.0,0.0,0.0,0.0,0.0,0.0,0.0,0.0,0.0,0.0,0.0,0.0,0.0,0.0,0.0,0.0,0.0,0.0,0.0,0.0,0.0,0.0,0.0,0.0,0.0,0.0,0.0,0.0,0.0,0.0,0.0,0.0,0.0,0.0,0.0,0.0,0.0,0.0,0.0,0.0,0.0,0.0,0.0,0.0,0.0,0.0,0.0,0.0,0.0,0.0,0.0,0.0,0.0,0.0,0.0,0.0,0.0,0.0,0.0,0.0,0.0,0.0,0.0,0.0,0.0,0.0,0.0,0.0,0.0,0.0,0.0,0.0,0.0,0.0,0.0,0.0,0.0,0.0,0.0,0.0,0.0,0.0,0.0,0.0,0.0,0.0,0.0,0.0,0.0,0.0,0.0,0.0,0.0,0.0,0.0,0.0,0.0,0.0,0.0,0.0,0.0,0.0,0.0,0.0,0.0,0.0,0.0,0.0,0.0,0.0,0.0,0.0,0.0,0.0,0.0,0.0,0.0,0.0,0.0,0.0,0.0,0.0,0.0,0.0,0.0,0.0,0.0,0.0,0.0,0.0,0.0,0.0,0.0,0.0,0.0,0.0,0.0,0.0,0.0,0.0,0.0,0.0,0.0,0.0,0.0,0.0,0.0,0.0,0.0,0.0,0.0,0.0,0.0,0.0,0.0,0.0,0.0,0.0,0.0,0.0,0.0,0.0,0.0,0.0,0.0,0.0,0.0,0.0,0.0,0.0,0.0,0.0,0.0,0.0,0.0,0.0,0.0,0.0,0.0,0.0,0.0,0.0,0.0,0.0,0.0,0.0,0.0,0.0,0.0,0.0,0.0,0.0,0.0,0.0,0.0,0.0,0.0,0.0,0.0,0.0,0.0,0.0,0.0,0.0,0.0,0.0,0.0,0.0,0.0,0.0,0.0,0.0,0.0,0.0,0.0,0.0,0.0,0.0,0.0,0.0,0.0,0.0,0.0,0.0,0.0,0.0,0.0,0.0,0.0,0.0,0.0,0.0,0.0,0.0,0.0,0.0,0.0,0.0,0.0,0.0,0.0,0.0,0.0,0.0,0.0,0.0,0.0,0.0,0.0,0.0,0.0,0.0,0.0,0.0,0.0,0.0,0.0,0.0,0.0,0.0,0.0,0.0,0.0,0.0,0.0,0.0,0.0,0.0,0.0,0.0,0.0,0.0,0.0,0.0,0.0,0.0,2.3104,2.1267,0.0,0.0,0.0,0.0,0.0,0.0,0.0,0.0,0.0,0.0,0.0,0.0,0.0,0.0,0.0,0.0,0.0,0.0,0.0,0.0,0.0,0.0,0.0,0.0,0.0,0.0,0.0,0.0,0.0,0.0,0.0,0.0,0.0,0.0,0.0,0.0,0.0,0.0,2.1919,2.4304,2.705,2.7042,2.5628,2.306,0.0,0.0,0.0,0.0,0.0,0.0,0.0,0.0,0.0,0.0,0.0,0.0,0.0,0.0,0.0,0.0,0.0,0.0,0.0,0.0,0.0,0.0,0.0,0.0,0.0,0.0,0.0,0.0,0.0,0.0,0.0,0.0,0.0,0.0,0.0,0.0,0.0,0.0,0.0,0.0,0.0,0.0,0.0,0.0,0.0,0.0,0.0,0.0,0.0,0.0,0.0,0.0,0.0,0.0,0.0,0.0,0.0,0.0,0.0,0.0,0.0,0.0,0.0,0.0,0.0,0.0,0.0,0.0,0.0,0.0,2.4053,2.3006,0.0,0.0,0.0,0.0,0.0,0.0,0.0,0.0,0.0,0.0,0.0,0.0,0.0,0.0,0.0,0.0,0.0,0.0,0.0,0.0,0.0,0.0,0.0,2.0369,2.1085,2.1462,2.1124,2.1048,0.0,0.0,0.0,0.0,0.0,0.0,0.0,1.9558,1.9937,2.0923,2.4713,2.854,3.2347,3.3377,3.1186,2.6293,2.5478,0.0,0.0,0.0,0.0,0.0,0.0,0.0,0.0,0.0,0.0,0.0,0.0,0.0,0.0,0.0,0.0,0.0,0.0,0.0,0.0,0.0,0.0,0.0,0.0,0.0,0.0,0.0,0.0,0.0,0.0,0.0,0.0,0.0,0.0,0.0,0.0,0.0,0.0,0.0,0.0,0.0,0.0,0.0,0.0,0.0,0.0,0.0,0.0,0.0,0.0,0.0,0.0,0.0,0.0,0.0,0.0,0.0,0.0,0.0,0.0,0.0,0.0,0.0,2.6286,2.6619,2.624,2.6075,2.571,2.5211,2.5297,2.5312,2.516,2.3978,0.0,0.0,0.0,0.0,0.0,0.0,0.0,0.0,0.0,0.0,0.0,0.0,0.0,0.0,0.0,0.0,0.0,0.0,0.0,0.0,0.0,2.0084,2.0983,2.1751,2.0999,2.0807,2.1612,0.0,0.0,0.0,0.0,0.0,2.0965,2.0657,2.1816,2.4516,2.9517,3.2271,3.2831,3.3505,3.3316,3.2476,3.2945,3.2031,3.0014,0.0,0.0,0.0,0.0,0.0,0.0,0.0,0.0,0.0,0.0,0.0,0.0,0.0,0.0,0.0,0.0,0.0,0.0,0.0,0.0,0.0,0.0,0.0,0.0,0.0,0.0,0.0,0.0,0.0,0.0,0.0,0.0,0.0,0.0,0.0,0.0,0.0,0.0,0.0,0.0,0.0,2.4383,2.5644,0.0,0.0,0.0,0.0,0.0,0.0,0.0,0.0,0.0,0.0,0.0,0.0,0.0,2.3046,2.4316,2.5822,2.6981,2.7713,2.8741,2.919,2.9116,2.8419,2.805,2.7895,2.6803,0.0,2.5868,2.5374,0.0,0.0,0.0,0.0,0.0,0.0,0.0,0.0,0.0,0.0,0.0,0.0,0.0,0.0,0.0,0.0,0.0,0.0,0.0,0.0,0.0,2.2382,2.4373,2.4872,2.6401,2.6703,2.5274,2.4448,0.0,0.0,0.0,2.023,1.991,2.0394,2.3383,2.8967,3.2692,3.5539,3.7527,3.813,3.8369,3.8341,3.9269,3.6868,3.1992,3.1182,0.0,0.0,0.0,0.0,0.0,0.0,0.0,0.0,0.0,0.0,0.0,0.0,0.0,0.0,0.0,0.0,0.0,0.0,0.0,0.0,0.0,0.0,0.0,0.0,0.0,0.0,0.0,0.0,0.0,0.0,0.0,0.0,0.0,0.0,0.0,0.0,0.0,0.0,0.0,2.388,2.5224,2.5679,2.5696,2.5036,0.0,0.0,0.0,0.0,0.0,0.0,0.0,0.0,0.0,2.2564,2.31,2.3956,2.5157,2.6921,2.8086,2.874,2.9787,3.006,2.9602,2.94,2.8817,2.7855,2.7435,2.6584,2.5508,2.5659,2.5503,2.5041,0.0,0.0,0.0,0.0,1.9976,1.9941,0.0,0.0,0.0,0.0,0.0,0.0,0.0,0.0,0.0,0.0,0.0,0.0,2.1582,2.5442,2.8221,2.8626,3.0913,3.1021,2.7941,2.6934,2.4698,2.0776,2.0236,1.9833,1.9346,2.1688,2.6125,3.2629,3.562,3.8375,4.0872,4.1452,4.1744,4.1733,4.2548,3.9835,3.4623,3.4215,3.2319,2.9442,0.0,0.0,0.0,0.0,0.0,0.0,0.0,0.0,0.0,0.0,0.0,0.0,0.0,0.0,0.0,0.0,0.0,0.0,0.0,0.0,0.0,0.0,0.0,0.0,0.0,0.0,0.0,0.0,0.0,0.0,0.0,0.0,0.0,0.0,0.0,0.0,0.0,2.4178,2.572,2.5784,2.6561,2.6384,0.0,0.0,0.0,0.0,0.0,0.0,2.3531,2.3249,2.333,2.3879,2.4639,2.5608,2.6869,2.8377,2.9326,2.9806,3.053,3.0497,2.9753,2.9517,2.8728,2.7485,2.7216,2.6561,2.5668,2.5963,2.5824,2.5354,2.503,2.3827,2.2221,2.1851,2.1326,2.0786,0.0,0.0,0.0,0.0,0.0,0.0,0.0,0.0,0.0,0.0,0.0,2.5605,2.5359,2.8831,3.1514,3.2352,3.171,3.0147,2.7508,2.6869,2.4881,2.1045,2.1144,2.1078,2.0536,2.6249,3.101,3.4653,3.8722,4.0544,4.017,4.0791,4.0958,4.0839,4.0915,4.0574,3.9838,3.8694,3.6811,3.4238,2.9541,0.0,0.0,0.0,0.0,0.0,0.0,0.0,0.0,0.0,0.0,0.0,0.0,0.0,0.0,0.0,0.0,0.0,0.0,0.0,0.0,0.0,0.0,0.0,0.0,0.0,0.0,0.0,0.0,0.0,0.0,0.0,0.0,0.0,0.0,0.0,0.0,0.0,0.0,2.6236,2.8271,0.0,0.0,0.0,0.0,2.4301,2.3752,2.3921,2.4934,2.4992,2.5857,2.7843,2.8207,2.918,3.0874,3.1014,3.1259,3.1673,3.1345,3.0906,3.0385,2.8677,2.7852,2.769,2.5988,2.5959,2.7065,2.68,2.6147,2.5391,2.5243,2.4505,2.3343,2.1941,2.1757,2.2153,0.0,0.0,0.0,0.0,0.0,0.0,0.0,0.0,1.8946,1.9089,2.2844,2.5444,2.5344,3.1554,3.5842,3.616,3.812,3.8023,3.4841,3.1811,2.8415,2.4602,2.2078,2.1879,2.4282,2.9804,3.3672,3.5776,3.8903,4.0073,3.9409,3.9992,4.003,3.965,4.0304,4.0616,4.0648,4.0861,3.9267,3.649,3.5069,3.1501,0.0,0.0,0.0,0.0,0.0,0.0,0.0,0.0,0.0,0.0,0.0,0.0,0.0,0.0,0.0,0.0,0.0,0.0,0.0,0.0,0.0,0.0,0.0,0.0,0.0,0.0,0.0,0.0,0.0,0.0,0.0,0.0,0.0,0.0,0.0,0.0,0.0,2.7281,2.8598,0.0,2.792,2.7418,2.6813,2.5963,2.6415,2.6843,2.713,2.7698,2.8397,2.9313,2.9864,3.0672,3.1777,3.132,3.1255,3.1674,3.1017,3.0734,3.0686,2.9852,2.8908,2.7969,2.7302,2.6465,2.5613,2.6113,2.6398,2.6513,2.6215,2.5517,2.4626,2.4119,2.3856,2.3714,0.0,0.0,0.0,0.0,0.0,0.0,0.0,0.0,1.9233,2.0615,2.4499,2.7594,2.8825,3.5418,3.9727,3.9727,4.1908,4.137,3.6848,3.3555,2.9603,2.4751,2.2862,2.4144,2.8858,3.2294,3.5056,3.7229,3.8843,3.948,3.9197,3.953,3.9419,3.8975,3.9774,4.0137,4.0191,4.1058,4.053,3.9059,3.8306,3.4567,2.9258,0.0,0.0,0.0,0.0,0.0,0.0,0.0,0.0,0.0,0.0,0.0,0.0,0.0,0.0,0.0,0.0,0.0,0.0,0.0,0.0,0.0,0.0,0.0,0.0,0.0,0.0,0.0,0.0,0.0,0.0,0.0,0.0,0.0,0.0,2.5681,2.7927,2.8223,2.9524,3.0121,2.9404,2.8859,2.8326,2.787,2.8405,2.8662,2.8558,2.9396,3.0114,3.0567,3.1341,3.202,3.2673,3.2168,3.1952,3.1911,3.1411,3.1159,3.1097,3.0292,2.9216,2.7961,2.7434,2.6366,2.4945,2.569,2.6348,2.6804,2.6693,2.6144,2.5434,2.5434,2.4999,2.4318,0.0,0.0,0.0,0.0,0.0,0.0,0.0,1.9171,2.0241,2.3718,2.8133,3.2309,3.577,4.0255,4.2958,4.2958,4.24,3.9332,3.285,3.1608,2.8111,2.1362,2.3661,2.7919,3.3907,3.3797,3.5435,3.9014,3.8887,3.9056,3.9461,3.9483,3.9243,3.8784,3.9286,3.9243,3.8881,3.9466,4.069,4.1946,3.8862,3.6309,3.3941,0.0,0.0,0.0,0.0,0.0,0.0,0.0,0.0,0.0,0.0,0.0,0.0,0.0,0.0,0.0,0.0,0.0,0.0,0.0,0.0,0.0,0.0,0.0,0.0,0.0,0.0,0.0,0.0,0.0,0.0,0.0,0.0,0.0,2.3273,2.6569,2.9099,2.9124,3.1299,3.2479,3.1691,3.107,3.0461,2.9929,2.9502,2.9168,2.9075,2.9916,3.0851,3.1768,3.2709,3.3376,3.3727,3.3773,3.3337,3.2498,3.2483,3.2241,3.1784,2.9929,2.8593,2.7719,2.6333,2.5572,2.5314,2.5763,2.6019,2.6171,2.6626,2.6335,2.5677,2.5677,2.4974,2.383,0.0,0.0,0.0,0.0,0.0,0.0,0.0,1.9052,1.9589,2.1261,2.6852,3.1311,3.2929,3.8631,4.2146,4.1663,4.1463,3.9664,3.5697,3.2981,2.9512,2.4937,2.8187,3.157,3.4657,3.6662,3.8199,3.9233,3.9289,3.8955,3.8284,3.8959,3.883,3.8112,3.8916,3.9293,3.933,3.9844,4.0203,4.0408,4.0508,3.897,3.6452,0.0,0.0,0.0,0.0,0.0,0.0,0.0,0.0,0.0,0.0,0.0,0.0,0.0,0.0,0.0,0.0,0.0,0.0,0.0,0.0,0.0,0.0,0.0,0.0,0.0,0.0,0.0,0.0,0.0,0.0,0.0,2.6972,2.8554,2.8283,2.9681,3.108,3.2015,3.2674,3.2719,3.1784,3.1263,3.0667,2.9805,2.9838,3.0003,3.0348,3.0482,3.0997,3.1975,3.26,3.285,3.2725,3.3029,3.3086,3.2784,3.2244,3.2176,3.2485,3.1137,3.0348,2.9975,2.8991,2.8139,2.7435,2.7232,2.6935,2.6661,2.638,2.6092,2.5731,2.5388,2.4509,2.3381,0.0,0.0,0.0,0.0,0.0,0.0,0.0,1.906,2.0027,2.2532,2.7318,3.1507,3.4077,3.8763,4.1521,4.1148,4.0483,3.8541,3.487,3.141,2.9602,2.9871,3.2134,3.4472,3.6757,3.82,3.9027,3.9175,3.883,3.8433,3.8002,3.8549,3.8402,3.7728,3.8465,3.8725,3.868,3.9177,3.9553,3.9839,4.0518,3.9327,3.7159,3.6566,3.4747,3.2367,3.1322,3.1492,3.1811,2.9572,0.0,0.0,0.0,0.0,0.0,0.0,0.0,0.0,0.0,0.0,0.0,0.0,0.0,0.0,0.0,0.0,0.0,0.0,0.0,0.0,0.0,0.0,0.0,0.0,2.9186,3.1245,3.2173,3.2523,3.2964,3.3629,3.368,3.3233,3.2236,3.1583,3.106,3.071,3.0643,3.0917,3.1622,3.1915,3.2092,3.2091,3.3128,3.3234,3.2253,3.287,3.3098,3.2865,3.2558,3.247,3.2656,3.1923,3.1254,3.0574,3.0028,2.9132,2.7998,2.7744,2.7283,2.6717,0.0,0.0,0.0,0.0,2.4351,2.3349,0.0,0.0,0.0,0.0,0.0,0.0,0.0,1.9309,2.1126,2.5765,2.8796,3.234,3.7209,3.9762,4.1062,4.1004,3.9372,3.6529,3.2252,2.8709,2.9302,3.498,3.5395,3.6743,3.9364,3.8894,3.8755,3.9013,3.8094,3.779,3.8109,3.8204,3.7943,3.7508,3.7984,3.7984,3.7662,3.8131,3.8908,3.977,3.9598,3.8616,3.7192,3.6499,3.5312,3.3912,3.2945,3.286,3.3069,3.1919,0.0,0.0,0.0,0.0,0.0,0.0,0.0,0.0,0.0,0.0,0.0,0.0,0.0,0.0,0.0,0.0,0.0,0.0,0.0,0.0,0.0,0.0,0.0,0.0,3.1462,3.3282,3.5152,3.5109,3.4741,3.4333,3.4206,3.3792,3.2955,3.2053,3.1697,3.2171,3.1829,3.1993,3.2925,3.3689,0.0,0.0,0.0,3.3858,3.2111,3.3032,3.3294,3.2837,3.3054,3.2945,3.2553,3.231,3.1489,3.0237,3.0082,2.9118,2.77,2.7763,2.7328,2.6602,2.6311,2.6146,2.5993,2.4983,2.4163,2.3457,0.0,0.0,0.0,0.0,0.0,0.0,0.0,2.0179,2.1908,2.6287,2.9337,3.2704,3.6867,3.9595,4.0918,4.0426,3.7771,3.506,3.2545,3.0399,3.1403,3.625,3.7059,3.8226,4.0081,3.9693,3.9377,3.9148,3.8687,3.8178,3.7632,3.8005,3.7943,3.7508,3.7984,3.8336,3.8572,3.8669,3.889,3.9192,3.947,3.9833,4.0058,3.8797,3.8669,3.9078,3.8397,3.9056,3.9727,3.6517,3.5804,3.5909,3.3582,3.1513,0.0,0.0,0.0,0.0,0.0,0.0,0.0,0.0,0.0,0.0,0.0,0.0,0.0,0.0,0.0,0.0,0.0,0.0,0.0,3.3775,3.5848,3.736,3.7968,3.7683,3.6619,3.4478,3.3927,3.3567,3.3219,3.304,3.3052,3.3405,3.3388,3.375,3.4682,3.3799,3.3355,3.3464,3.3441,3.295,3.1957,3.3073,3.3497,3.3114,3.3073,0.0,3.2868,3.2042,3.1285,3.0587,3.0162,2.9371,2.8306,2.8313,2.7782,2.6874,2.6191,2.5869,2.5523,2.3931,2.3136,2.2632,0.0,0.0,0.0,0.0,0.0,0.0,0.0,2.0978,2.2158,2.4904,2.7666,3.0665,3.3932,3.5522,3.6454,3.6723,3.4852,3.3637,3.3637,3.3609,3.5247,3.8888,3.9259,3.9655,4.029,3.992,3.9625,3.9461,3.8946,3.8615,3.8437,3.8465,3.8523,3.8489,3.8771,3.8944,3.9171,3.9399,3.9543,3.9595,3.987,4.0353,4.0884,3.9785,3.9851,4.0528,4.0196,4.0788,4.1294,3.875,3.8441,3.8763,3.6833,3.5234,3.3501,0.0,0.0,0.0,0.0,0.0,0.0,0.0,0.0,0.0,0.0,0.0,0.0,0.0,0.0,2.9373,3.1001,0.0,3.35,3.5713,3.7008,3.8024,3.871,3.8445,3.7601,3.5981,3.5394,3.4956,3.4608,3.4217,3.4262,3.4967,3.4712,3.5076,3.6386,3.5792,3.5062,3.4333,3.4547,3.3925,3.237,3.3426,3.3771,3.345,3.3314,3.3105,3.2814,3.1995,3.1316,3.0754,3.0003,2.9404,2.8919,2.8536,2.7923,2.7122,2.6087,2.55,2.5105,2.4226,2.3323,2.2463,0.0,0.0,0.0,0.0,0.0,0.0,0.0,2.1877,2.2766,2.4271,2.6499,2.8923,3.1516,3.1915,3.2043,3.2263,3.2077,3.2723,3.4575,3.6613,3.9012,4.1829,4.1621,4.1343,4.1097,4.0574,4.0246,4.0213,3.9453,3.9244,3.9521,3.9114,3.9219,3.9709,3.9571,3.9613,3.9855,4.0089,4.0226,4.035,4.0484,4.0791,4.1053,4.0398,4.0373,4.0604,4.0527,4.0801,4.1035,3.9931,4.0125,4.0702,3.9682,3.8842,3.7413,3.3053,3.1746,0.0,0.0,0.0,0.0,0.0,0.0,0.0,0.0,2.8734,2.9927,3.1196,3.1817,3.2648,3.4503,3.4731,3.5349,3.7508,3.7986,3.84,3.9311,3.9049,3.8584,3.8083,3.7115,3.6416,3.6204,3.5529,3.556,3.6621,3.6175,3.648,3.783,3.7877,3.7078,3.532,3.5991,3.5409,3.3294,3.4071,3.4254,3.3736,3.3593,3.3196,3.2613,3.1887,3.1236,3.0665,2.9663,2.9244,2.9171,2.8414,2.7807,2.7224,2.5973,2.5126,2.4594,2.4414,2.3588,2.2496,0.0,0.0,0.0,0.0,0.0,0.0,0.0,0.0,2.4744,2.7563,2.8874,3.0501,3.3003,3.3276,3.2026,2.8854,3.0951,3.2965,3.428,3.7422,4.074,4.4089,4.3912,4.3779,4.3928,4.2957,4.2316,4.1993,4.0906,4.0269,4.0004,3.9592,3.9784,4.0456,3.9792,4.009,4.1057,4.0459,4.0427,4.0877,4.126,4.148,4.1505,4.152,4.1305,4.1004,4.0622,4.0801,4.1113,4.053,4.0447,4.0495,3.998,3.9226,3.7707,3.3857,3.2225,3.0511,2.5474,2.383,2.4071,2.6383,2.8245,3.0102,0.0,3.4686,3.6438,3.6349,3.6777,3.7605,3.8934,3.9148,3.9658,4.1389,4.1601,4.1567,4.1638,4.0864,4.0322,4.0265,3.7822,3.6527,3.742,3.7037,3.7195,3.834,3.8355,3.8403,3.8576,3.8576,3.8088,3.6955,3.7045,3.6403,3.4935,3.5313,3.4988,3.3862,3.3766,3.3245,3.2414,3.1413,3.0713,3.0128,2.9148,2.8668,2.8668,2.8092,2.7551,2.7021,2.5937,2.4899,2.3985,2.3111,2.2639,2.2459,0.0,0.0,0.0,0.0,0.0,0.0,0.0,0.0,0.0,2.5963,2.6755,2.7709,2.91,2.9076,2.7874,2.5152,2.8492,3.1646,3.3717,3.7679,4.1348,4.4468,4.4269,4.4185,4.4384,4.3765,4.3369,4.3237,4.2572,4.2168,4.2058,4.1717,4.1731,4.2059,4.1713,4.1877,4.2292,4.1559,4.1615,4.2145,4.1776,4.2308,4.3319,4.2894,4.2662,4.2229,3.9586,3.8769,0.0,3.8408,3.8116,3.8085,3.9204,3.7985,3.5757,3.3518,3.1808,3.0052,2.7552,2.7644,2.8711,2.9854,3.2137,3.4392,3.5613,3.7134,3.8552,3.9378,3.9483,3.9846,4.1136,4.052,4.039,4.2026,4.1582,4.1286,4.1915,4.1444,4.0901,4.0629,3.8236,3.6915,3.7582,3.7762,3.7795,3.7782,3.8354,3.8878,3.9291,3.9018,3.8535,3.7824,3.7484,3.6785,3.5719,3.5851,3.5449,3.4474,3.4123,3.3402,3.2399,3.1242,3.0162,2.9184,2.8764,2.8717,2.8789,2.8102,2.7438,2.6737,2.5523,2.4448,2.3492,2.3071,2.2722,2.2432,0.0,0.0,0.0,0.0,0.0,0.0,0.0,0.0,0.0,0.0,2.5581,2.5986,2.6228,2.577,2.4875,2.3404,2.6932,3.0574,3.3768,3.7973,4.1905,4.5378,4.5326,4.5341,4.5548,4.5005,4.4675,4.4576,4.4045,4.3826,4.3826,4.3395,4.3321,4.3571,4.3236,4.3202,4.3363,4.263,4.263,4.3058,4.262,4.3305,4.454,4.4193,4.3387,4.2113,3.8948,3.7566,3.7133,3.6019,3.5631,3.5861,3.7034,3.6035,3.416,3.2628,3.0837,2.9359,2.9599,3.0651,3.1959,3.2991,3.5265,3.7464,3.8373,3.9333,4.0344,4.1688,4.1474,4.1356,4.2371,4.1467,4.0974,4.2277,4.1514,4.104,4.187,4.1489,4.0791,4.0063,3.8204,3.6774,3.6288,3.7257,3.7831,3.7687,3.8497,3.9212,3.9785,3.9313,3.8776,3.8203,3.7697,3.7036,3.6246,3.6099,3.5641,3.4924,3.4304,3.3434,3.2358,3.1058,2.9906,2.8837,2.8837,2.8849,2.8822,2.8084,2.7289,2.6453,2.5187,2.4102,2.3268,2.312,2.2787,2.2387,0.0,0.0,0.0,0.0,0.0,0.0,0.0,0.0,0.0,0.0,0.0,0.0,0.0,2.5453,2.4805,2.4743,2.7054,3.0403,3.4871,3.8553,4.2768,4.7583,4.8024,4.8276,4.8461,4.7383,4.666,4.6325,4.5267,4.4755,4.4743,4.4033,4.4068,4.4697,4.3584,4.3502,4.4125,4.3375,4.3062,4.3184,4.4132,4.4546,4.4656,4.515,4.3046,3.9758,3.924,3.8282,3.6855,3.3926,3.3764,3.4588,3.3057,3.3379,3.3804,3.1223,2.9235,2.8438,3.1112,3.1034,3.1127,3.4781,3.6696,3.829,4.0548,4.2048,4.3104,4.3533,4.2946,4.2474,4.2913,4.2584,4.2387,4.2828,4.2352,4.1976,4.1984,4.1218,4.0036,3.8563,3.7583,3.5924,3.3111,3.5171,3.7337,3.9037,3.9514,3.9785,3.9817,3.9313,3.8776,3.8203,3.7697,3.714,3.6583,3.6088,3.5543,3.4983,3.4182,3.3256,3.2168,3.0811,2.9898,2.9381,2.9381,2.9097,2.8564,2.7996,2.7153,2.6118,2.5008,2.4128,2.3453,2.2907,2.2567,2.2387,0.0,0.0,0.0,0.0,0.0,0.0,0.0,0.0,0.0,0.0,0.0,0.0,0.0,0.0,0.0,0.0,2.6509,2.8775,3.207,3.6456,4.0651,4.4464,4.6966,4.8486,4.891,4.8092,4.7573,4.7464,4.6898,4.6496,4.6261,4.5731,4.5494,4.5517,4.488,4.4766,4.4937,4.4159,4.4505,4.5553,4.4882,4.5628,4.6861,4.4515,4.2423,4.0199,0.0,3.3184,3.1582,3.0537,3.0209,3.0483,3.1955,3.1708,3.0575,2.8807,2.9538,3.0884,3.0803,3.3131,3.5796,3.6798,3.9165,4.1481,4.2293,4.2979,4.3535,4.3672,4.2144,4.0853,4.0986,3.9698,3.9153,4.0662,3.9586,3.9369,4.1666,3.9461,3.8041,3.9215,3.7084,3.5805,3.6432,3.6339,3.6225,3.6098,3.8147,3.9368,3.9249,3.8776,3.8237,3.7697,3.7155,3.6809,3.6597,3.6053,3.5657,3.5319,3.3801,3.2582,3.1643,3.0674,2.999,2.9658,2.9477,2.9216,2.8811,2.8088,2.7065,2.584,2.493,2.4027,2.3157,2.2967,2.2784,2.2605,0.0,0.0,0.0,0.0,0.0,0.0,0.0,0.0,0.0,0.0,0.0,0.0,0.0,0.0,0.0,0.0,0.0,2.7697,3.0598,3.3966,3.7345,4.0777,4.3315,4.4713,4.4943,4.4969,4.5024,4.5095,4.5942,4.6333,4.632,4.6537,4.6607,4.6607,4.589,4.572,4.589,4.5006,4.5062,4.5668,4.433,4.4525,4.537,4.2372,3.9952,0.0,3.3185,2.9863,2.7545,2.757,2.761,2.7983,2.9668,2.9362,2.8605,2.9698,3.1143,3.2517,3.3335,3.6128,3.8843,3.9256,4.1248,4.3127,4.3127,4.3398,4.3711,4.3711,4.2183,4.0721,4.0284,3.8805,3.8218,3.9854,3.868,3.8654,4.1772,3.9618,3.81,3.9144,3.7082,3.5919,3.6755,3.6283,3.5732,3.5287,3.7258,3.8387,3.8256,3.7759,3.7409,3.7386,3.6859,3.6498,3.6301,3.5756,3.5215,3.4577,3.3381,3.2387,3.1505,3.0723,3.0045,2.9526,2.9435,2.8977,2.8267,2.7704,2.6714,2.5573,2.482,2.3951,2.3124,2.3124,2.2954,2.2678,0.0,0.0,0.0,0.0,0.0,0.0,0.0,0.0,0.0,0.0,0.0,0.0,0.0,0.0,0.0,0.0,0.0,0.0,3.0367,3.1297,3.3273,3.6784,3.7637,3.7891,3.7618,3.8897,3.969,3.9928,4.2721,4.4336,4.4866,4.606,4.6959,4.7491,4.6101,4.5802,4.6366,4.5358,4.4393,4.3418,4.2422,4.1504,4.0525,3.8934,3.5893,3.2335,3.1254,2.8405,2.5149,2.5217,2.6228,2.737,2.6842,2.6981,2.8351,3.3606,3.3913,3.3574,3.8247,3.967,4.0267,4.2033,4.2832,4.3205,4.3144,4.3457,4.3711,4.3574,4.2776,4.172,4.0472,3.9456,3.9113,4.0162,3.9425,3.9674,4.2134,4.1294,3.9873,3.8376,3.7531,3.6313,3.4421,3.5152,3.5987,3.6574,3.6988,3.7124,3.6931,3.6466,3.6543,3.7307,3.6859,3.635,3.5805,3.5238,3.4305,3.2992,3.3032,3.2638,3.175,3.1015,3.0081,2.9102,2.9347,2.8549,2.7081,2.6955,2.6262,2.5244,2.4729,2.3984,2.33,2.33,2.3096,2.2675,0.0,0.0,0.0,0.0,0.0,0.0,0.0,0.0,0.0,0.0,0.0,0.0,0.0,0.0,0.0,0.0,0.0,0.0,2.7544,3.0418,3.2485,3.3445,3.6666,3.8636,3.8993,3.9348,3.9778,4.0282,4.0716,4.1026,4.1149,4.1241,4.1358,4.1469,4.0209,3.9756,3.9841,3.8978,3.8901,3.9262,3.8613,3.8684,3.8843,3.5801,3.3613,3.1827,2.8824,2.6954,2.59,2.571,2.7409,3.0015,3.2385,3.312,3.3409,3.5116,3.7071,3.8576,3.822,4.081,4.358,4.3427,4.3965,4.4453,4.4141,4.4141,4.3672,4.1738,3.974,3.7778,3.5825,3.4317,3.4334,3.7183,3.6677,3.7161,4.0683,3.9357,3.815,3.8407,3.803,3.7679,3.7518,3.7733,3.7639,3.7035,3.7798,3.8072,3.7527,3.7595,3.7399,3.6844,3.6647,3.635,3.5805,3.4918,3.3866,3.2724,3.2709,3.2405,3.1802,3.1365,3.0938,3.044,2.9928,2.9107,2.812,2.724,2.6262,2.5244,2.4729,2.4122,2.3507,2.3507,2.3347,2.3159,0.0,0.0,0.0,0.0,0.0,0.0,0.0,0.0,0.0,0.0,0.0,0.0,0.0,0.0,0.0,0.0,0.0,0.0,0.0,2.9043,3.0323,3.0291,3.2581,3.3962,3.4238,3.5102,3.5699,3.6006,3.7369,3.8035,3.8011,3.8492,3.8767,3.8792,3.7667,3.7242,3.7403,3.647,3.6221,0.0,0.0,3.534,3.4976,3.2339,3.0976,3.0162,2.7881,2.735,2.8007,2.9432,3.0642,3.2244,3.6089,3.6576,3.6216,3.8696,4.0143,4.0869,4.0868,4.2875,4.49,4.4388,4.4512,4.4433,4.3262,4.2988,4.2246,3.9648,3.793,3.6316,3.4311,3.3274,3.3659,3.6505,3.6528,3.7226,4.0245,3.9242,3.8228,3.8465,3.819,3.8159,3.8671,3.8831,3.8608,3.7861,3.7708,3.7476,3.7013,3.6924,3.6803,3.6583,3.6597,3.6202,3.5458,3.4473,3.3498,3.2619,3.2598,3.234,3.1795,3.1517,3.0902,3.007,2.9639,2.862,2.7253,2.6493,2.5697,2.4883,2.4316,2.4203,2.4358,2.4358,2.4375,2.433,0.0,0.0,0.0,0.0,0.0,0.0,0.0,0.0,0.0,0.0,2.7659,0.0,0.0,0.0,0.0,0.0,0.0,0.0,0.0,0.0,2.7944,2.7838,2.7855,2.7815,2.7738,2.9444,3.0373,3.0387,3.3546,3.5038,3.5022,3.6284,3.6991,3.7086,3.6061,3.5818,3.6131,3.5116,3.439,3.3871,3.2973,3.1831,3.0559,0.0,2.8633,2.8348,2.7878,2.8572,3.0292,3.4118,3.4718,3.4628,3.8978,3.9088,3.8454,4.2812,4.2937,4.2064,4.4159,4.5005,4.524,4.5134,4.4785,4.3984,4.2109,4.1367,4.0391,3.7891,3.6838,3.5941,3.4482,3.4264,3.4957,3.6878,3.7521,3.8317,3.994,3.9748,3.9216,3.8486,3.8243,3.8337,3.891,3.9085,3.9085,3.891,3.7523,3.6591,3.634,3.587,3.5886,3.6469,3.64,3.5855,3.4812,3.3862,3.3085,3.2464,3.2493,3.2234,3.1795,3.1553,3.0602,2.9124,2.9118,2.7929,2.5904,2.5522,2.5026,2.4458,2.3851,2.4203,2.5089,2.5089,2.5215,2.5226,0.0,0.0,0.0,0.0,0.0,0.0,0.0,0.0,0.0,0.0,2.8488,2.7865,0.0,0.0,0.0,0.0,0.0,0.0,0.0,0.0,0.0,2.796,2.8108,2.843,2.8889,2.9392,2.99,3.0394,3.103,3.1324,3.1332,3.1137,3.1089,3.1052,3.0158,2.9788,2.9829,2.9211,2.9119,2.94,2.9063,2.8988,2.9081,2.8812,0.0,0.0,2.8301,2.8668,2.9953,3.4823,3.7044,3.8566,4.2944,4.4127,4.3954,4.4119,4.4764,4.5094,4.3695,4.4965,4.6481,4.5785,4.5234,4.4824,4.4453,4.2422,4.0098,3.8203,3.5912,3.4141,3.3809,3.3821,3.4539,3.6492,3.7153,3.7379,3.7315,3.8717,3.931,3.8128,3.8703,3.953,4.0342,3.9434,3.9132,3.9959,3.8951,3.8041,3.7455,3.7151,3.6721,3.5954,3.5508,3.4762,3.3714,3.3045,3.2451,3.1933,3.1912,3.1914,3.1807,3.1759,3.1188,3.0177,2.9786,2.8711,2.7171,2.6005,2.5256,2.4673,2.3918,2.3738,2.3893,2.3893,2.3667,2.3329,0.0,0.0,0.0,0.0,0.0,0.0,0.0,2.9339,2.9548,3.0151,2.9836,2.9304,2.8625,2.8354,2.8183,0.0,0.0,0.0,0.0,0.0,0.0,0.0,2.883,2.8919,2.8991,2.9388,2.9715,2.993,0.0,2.9784,2.9512,2.922,2.876,2.8206,2.8057,2.793,2.7801,2.7702,2.7918,2.8328,2.8648,2.8739,2.8746,0.0,0.0,0.0,2.9139,2.9733,3.0938,3.401,3.6399,3.8969,4.4058,4.5421,4.506,4.4672,4.5226,4.565,4.4078,4.5306,4.6841,4.6154,4.5351,4.416,4.2129,4.0371,3.8265,3.5181,3.3604,3.2719,3.2673,3.2761,3.3613,3.5947,3.6839,3.7439,3.8039,3.8874,3.9242,3.8819,3.9104,3.9452,3.9705,3.926,3.9005,3.9063,3.8457,3.8123,3.8218,3.7795,3.6963,3.582,3.5464,3.4665,3.3414,3.2891,3.2348,3.183,3.1806,3.1807,3.1807,3.1474,3.0923,3.0261,2.9273,2.7849,2.6223,2.5464,2.4581,2.3689,2.3653,2.3945,2.448,2.4588,2.4471,2.4169,0.0,0.0,0.0,0.0,0.0,0.0,0.0,3.0111,3.0388,3.1137,3.1109,3.0787,3.0189,2.9515,2.8964,0.0,0.0,0.0,0.0,0.0,0.0,0.0,0.0,0.0,2.8954,0.0,0.0,2.9419,2.9571,0.0,0.0,0.0,0.0,0.0,2.7576,2.7638,2.75,2.7904,2.8245,0.0,0.0,2.935,0.0,0.0,0.0,0.0,0.0,3.0481,3.1475,3.3085,3.5043,3.768,4.2966,4.4364,4.4124,4.4481,4.5037,4.5403,4.4745,4.5849,4.7001,4.6429,4.5351,4.3496,4.0059,3.8496,3.6758,3.3105,3.2053,3.1929,3.2352,3.2422,3.3195,3.5663,3.6238,3.7,3.8761,3.8781,3.8869,3.9709,3.9658,3.9561,3.9593,3.9577,3.9272,3.8613,3.8102,3.8014,3.8434,3.78,3.6896,3.5771,3.5447,3.4629,3.3063,3.2737,3.2244,3.1622,3.1753,3.1754,3.1593,3.1088,3.0553,2.9856,2.8638,2.6955,2.5175,2.4995,2.4122,2.2907,2.3483,2.4228,2.5025,2.5038,2.494,2.4699,0.0,0.0,0.0,0.0,0.0,0.0,0.0,3.0435,3.09,3.2095,3.1786,3.1618,3.2072,3.1254,3.0472,0.0,0.0,0.0,0.0,0.0,0.0,0.0,0.0,0.0,0.0,0.0,0.0,2.9141,2.9756,0.0,0.0,0.0,0.0,0.0,0.0,2.7868,2.7719,2.8545,0.0,0.0,0.0,0.0,0.0,0.0,0.0,0.0,0.0,2.9805,3.0155,3.3126,3.4422,3.5408,3.9044,4.0825,4.1869,4.3094,4.4205,4.5135,4.5411,4.6552,4.7425,4.6507,4.5351,4.3887,4.1953,3.9355,3.6914,3.5351,3.3303,3.2352,3.4191,3.4025,3.4193,3.5899,3.4776,3.4548,3.7077,3.7127,3.7813,4.0238,4.0561,4.1134,4.2374,4.1373,4.0696,4.0736,3.9464,3.8394,3.7751,3.7143,3.639,3.5545,3.5019,3.3886,3.197,3.2379,3.2089,3.105,3.1553,3.1528,3.0981,3.0928,3.0285,2.9265,2.8651,2.7208,2.5367,2.5338,2.4504,2.3272,2.3757,2.4042,2.4042,2.3527,2.3011,2.2512,0.0,0.0,0.0,0.0,0.0,0.0,3.1229,3.0995,3.1269,3.2919,3.2495,3.2286,3.2887,3.2597,3.1952,3.0992,0.0,0.0,0.0,0.0,0.0,0.0,0.0,0.0,0.0,0.0,3.0208,3.025,2.9794,0.0,0.0,0.0,0.0,0.0,0.0,2.8729,2.8895,2.9395,0.0,0.0,0.0,0.0,0.0,0.0,0.0,0.0,0.0,0.0,3.0491,3.1464,3.2447,3.342,3.4447,3.5756,3.7354,3.9699,4.2337,4.4254,4.3431,4.5427,4.7485,4.6527,4.5137,4.3262,4.0488,3.834,3.6284,3.3958,3.2572,3.2106,3.3165,3.2648,3.2483,3.3819,3.3231,3.3546,3.6368,3.6756,3.7801,4.0576,4.1041,4.123,4.1579,4.0816,3.9992,3.9343,3.8555,3.8097,3.8219,3.7627,3.6823,3.5767,3.4888,3.3682,3.2124,3.2095,3.1726,3.101,3.1553,3.1474,3.0874,3.0565,2.9964,2.9158,2.7875,2.6294,2.4638,2.4854,2.4003,2.269,2.3739,2.4198,2.4101,2.3649,2.3108,2.2546,0.0,0.0,0.0,0.0,0.0,3.0467,3.154,3.1386,3.1659,3.3123,3.2975,3.29,3.3252,3.3308,3.2971,3.2117,3.1426,0.0,0.0,0.0,0.0,0.0,0.0,0.0,0.0,0.0,3.0528,3.0609,2.994,2.9553,0.0,0.0,2.9101,2.8667,0.0,0.0,0.0,0.0,0.0,0.0,0.0,0.0,0.0,0.0,0.0,0.0,0.0,0.0,0.0,0.0,0.0,3.2274,3.2027,3.2897,3.4435,3.6929,4.0335,4.3036,4.2037,4.4562,4.7281,4.6488,4.4805,4.25,3.9334,3.7418,3.5508,3.2611,3.1884,3.1898,3.2187,3.1525,3.1271,3.2401,3.2316,3.3031,3.5689,3.6215,3.7342,3.9962,4.0461,4.0737,4.1214,4.0775,4.0061,3.9188,3.8509,3.8327,3.8726,3.8023,3.706,3.5957,3.4779,3.3613,3.2417,3.2064,3.1641,3.1119,3.1419,3.1095,3.0218,2.9934,2.927,2.8206,2.7102,2.5718,2.4257,2.4567,2.3833,2.2671,2.388,2.4406,2.4318,2.3664,2.3179,2.2719,0.0,0.0,0.0,0.0,0.0,0.0,3.0921,3.1552,3.2131,3.2557,3.3191,3.3518,3.3326,3.3308,3.328,3.328,3.2718,0.0,0.0,0.0,0.0,0.0,0.0,0.0,0.0,0.0,3.0519,2.9711,3.0291,3.0298,2.9779,2.9779,2.9638,2.9399,0.0,0.0,0.0,0.0,0.0,0.0,0.0,0.0,0.0,0.0,0.0,0.0,0.0,0.0,0.0,0.0,0.0,0.0,0.0,3.3292,3.4114,3.5296,3.8329,4.1456,4.2039,4.4562,4.6881,4.6409,4.4355,4.1758,3.916,3.6934,3.4686,3.2135,3.1698,3.1822,3.1867,3.1364,3.1271,3.2401,3.2316,3.2755,3.4739,3.5127,3.6031,3.8145,3.8618,3.9673,4.2135,4.1975,4.159,4.1273,4.0168,3.9359,3.9084,3.7963,3.6902,3.6033,3.4635,3.3512,3.2697,3.2364,3.1923,3.1384,3.1065,3.0125,2.8722,2.9085,2.8097,2.614,2.6459,2.5795,2.452,2.4801,2.4381,2.363,2.4334,2.458,2.4472,2.3233,2.2801,2.2665,0.0,0.0,0.0,0.0,0.0,0.0,0.0,3.1059,3.1196,3.2205,3.2033,3.2073,3.2738,3.2806,3.2837,3.2889,3.2354,0.0,0.0,0.0,0.0,0.0,0.0,0.0,0.0,0.0,3.0964,3.0574,3.0775,3.0501,2.9824,3.0196,3.0094,2.9707,3.0258,3.0588,0.0,0.0,0.0,0.0,0.0,0.0,3.2239,0.0,0.0,0.0,0.0,0.0,0.0,0.0,0.0,0.0,0.0,0.0,0.0,3.4071,3.6514,3.8952,3.834,4.0064,4.1839,4.1209,3.9961,3.8398,3.6387,3.4961,3.3564,3.1961,3.2021,3.2486,3.2859,3.2734,3.3108,3.4736,3.5043,3.5358,3.6087,3.7566,3.911,4.0377,4.2226,4.3413,4.3428,4.1773,4.105,4.1855,3.9983,3.8851,3.8839,3.8269,3.7284,3.5777,3.4163,3.3027,3.2351,3.1874,3.1555,3.1397,3.1077,3.0125,2.87,2.9021,2.8097,2.6119,2.6459,2.5805,2.4529,2.481,2.4391,2.3658,2.4485,2.4571,2.4082,2.3321,2.2776,2.234,0.0,0.0,0.0,0.0,0.0,0.0,0.0,3.094,3.1006,3.1779,3.1639,3.1752,3.2612,3.2591,3.2561,3.2791,3.2327,0.0,0.0,0.0,0.0,0.0,0.0,0.0,0.0,3.1402,3.1303,3.1351,3.1476,3.1306,3.0836,3.1166,3.1005,3.047,3.1267,3.1746,0.0,0.0,0.0,0.0,0.0,0.0,3.3086,0.0,0.0,0.0,0.0,0.0,0.0,0.0,0.0,0.0,0.0,0.0,0.0,0.0,3.5137,3.679,3.6772,3.8432,4.0014,3.9442,3.8266,3.6879,3.5376,3.416,3.306,3.1951,3.2968,3.3915,3.357,3.3713,3.4146,3.4955,3.5727,3.6256,3.6326,3.7848,3.9053,3.9435,4.2394,4.3956,4.2748,4.186,4.1408,4.1544,3.9928,3.8862,3.8719,3.8016,3.6924,3.5372,3.4049,3.3068,3.2387,3.1806,3.1435,3.1224,3.0804,2.9809,2.8342,2.8503,2.7515,2.5759,2.6219,2.5792,0.0,2.496,2.4702,2.4268,2.4712,2.4555,2.3947,2.3309,2.2754,2.2198,0.0,0.0,0.0,0.0,0.0,0.0,0.0,3.109,3.1406,3.1279,3.1779,3.2347,3.2785,3.2563,3.2543,3.2985,0.0,0.0,0.0,0.0,0.0,0.0,0.0,0.0,0.0,3.1142,3.1536,3.1899,3.2311,3.2527,3.2497,3.2535,3.2196,3.1622,3.2821,3.34,0.0,0.0,0.0,0.0,0.0,0.0,0.0,0.0,0.0,0.0,0.0,0.0,0.0,0.0,0.0,0.0,0.0,0.0,0.0,0.0,0.0,0.0,0.0,3.884,4.0284,3.9968,3.8384,3.6623,3.5634,3.4289,0.0,3.2326,3.4459,3.5968,3.4326,3.457,3.4753,3.3931,3.5148,3.6071,3.5852,3.6648,3.7039,3.6491,4.017,4.2194,4.0872,4.211,4.231,4.0763,3.9997,3.9311,3.8747,3.7319,3.5966,3.4829,3.421,3.3441,3.2578,3.2086,3.1492,3.0929,3.0369,2.9312,2.7844,2.7621,2.6666,2.5243,2.5821,2.5745,2.5203,2.5232,2.5232,2.5203,2.4922,2.4465,2.3919,2.3246,2.2699,2.2143,0.0,0.0,0.0,0.0,0.0,0.0,0.0,0.0,0.0,0.0,3.129,3.1832,3.2319,3.2741,3.3067,0.0,0.0,0.0,0.0,0.0,0.0,0.0,0.0,0.0,0.0,3.1726,3.188,3.1811,3.2381,3.2599,3.2516,3.293,3.2811,3.2318,3.3473,3.4406,0.0,0.0,0.0,0.0,0.0,0.0,0.0,0.0,0.0,0.0,3.561,3.5966,0.0,0.0,0.0,0.0,0.0,0.0,0.0,0.0,3.5077,3.5422,3.6033,0.0,3.5244,3.49,3.4286,3.3694,0.0,3.3107,3.321,3.4533,3.5967,3.7045,3.7133,3.7725,3.8171,3.7945,3.8948,3.9089,3.714,3.892,4.0239,3.9731,4.2902,4.432,4.234,4.1884,4.1768,4.1822,4.042,3.9311,3.8747,3.7481,3.6126,3.4548,3.3918,3.3188,3.2324,3.1957,3.166,3.1408,3.0511,2.9458,2.8238,2.7732,2.6666,2.5243,2.5821,2.5745,2.5203,2.5383,2.543,2.5346,2.4707,2.4073,2.3513,2.2797,2.2143,2.1612,0.0,0.0,0.0,0.0,0.0,0.0,0.0,0.0,0.0,0.0,0.0,3.1695,3.2266,3.277,0.0,0.0,0.0,0.0,0.0,0.0,0.0,0.0,0.0,3.1818,3.1818,3.2182,3.2463,3.2627,3.3136,3.3522,3.3731,3.4029,3.3854,3.332,3.4268,3.5229,0.0,0.0,0.0,0.0,3.5817,0.0,0.0,0.0,0.0,0.0,3.6373,3.6504,0.0,3.6396,3.6279,3.6086,0.0,0.0,0.0,0.0,3.5653,3.5768,3.5977,3.524,3.4569,3.5121,3.4375,3.3685,3.4299,3.3972,3.4009,3.5725,3.6892,3.7746,3.8154,3.8626,3.9075,3.9526,3.9377,3.8935,3.8264,4.0323,4.1665,4.1017,4.3101,4.404,4.2648,4.273,4.2689,4.2256,4.106,4.0227,3.9885,3.8761,3.7716,3.6828,3.565,3.4003,3.1831,3.154,3.0941,3.0083,2.9797,2.8842,2.734,2.7155,2.6518,2.5447,2.5351,2.5304,2.5336,2.5156,2.5307,2.5572,2.4652,2.3989,2.3409,2.2612,2.1932,2.1384,0.0,0.0,0.0,0.0,0.0,0.0,0.0,0.0,0.0,0.0,0.0,0.0,0.0,0.0,0.0,0.0,0.0,0.0,0.0,0.0,0.0,0.0,0.0,3.2218,3.2182,3.2596,3.3042,3.355,3.3988,3.459,3.533,3.533,3.5086,3.4638,3.5227,3.5947,0.0,0.0,0.0,0.0,3.6243,0.0,0.0,0.0,0.0,0.0,0.0,0.0,0.0,3.6765,3.6771,3.675,3.6498,0.0,0.0,0.0,0.0,0.0,3.6179,3.5895,3.5955,3.7481,3.6193,3.4952,3.6308,3.5511,3.4975,3.6716,3.7799,3.8538,3.8851,3.9168,3.9521,3.9951,3.8701,3.8169,3.9824,4.1549,4.2349,4.1515,4.2633,4.3228,4.251,4.3705,4.3877,4.2295,4.1659,4.1278,4.1278,4.0227,3.9513,3.9304,3.7764,3.5191,3.1555,3.1278,3.0375,2.8863,2.8992,2.8119,2.6407,2.6439,2.625,2.5742,2.4848,2.4854,2.5477,2.5005,2.5232,2.5714,2.4632,2.3923,2.3453,2.2494,2.1823,2.1384,0.0,0.0,0.0,0.0,0.0,0.0,0.0,0.0,0.0,0.0,0.0,0.0,0.0,0.0,0.0,0.0,0.0,0.0,0.0,0.0,0.0,3.364,3.3139,3.2775,3.2614,3.2998,3.3248,3.336,3.3918,3.4796,3.5977,3.5977,3.6183,3.6557,3.6689,3.681,3.6948,0.0,0.0,0.0,3.6859,0.0,0.0,0.0,0.0,0.0,0.0,0.0,0.0,3.6716,3.6761,3.6749,3.6481,0.0,0.0,0.0,0.0,0.0,3.5807,3.6009,3.672,3.7925,3.6562,3.532,3.6907,3.5831,3.5482,3.9005,3.9854,4.0279,4.1323,4.2823,4.3078,4.0557,4.0341,4.1181,4.3171,4.3685,4.36,4.2969,4.4498,4.4802,4.2752,4.3035,4.3052,4.2241,4.1659,4.1278,4.1278,4.0227,3.915,3.8084,3.7327,3.5351,3.2121,3.2275,3.1981,3.1337,2.9413,2.8278,2.7769,2.6482,2.587,2.5781,2.5469,2.5383,2.5534,2.578,2.5921,2.593,2.4432,2.384,2.3582,2.2066,2.1494,2.1345,0.0,0.0,0.0,0.0,0.0,0.0,0.0,0.0,0.0,0.0,0.0,0.0,0.0,0.0,0.0,0.0,0.0,0.0,0.0,0.0,0.0,3.4037,3.375,3.3525,3.335,3.3741,3.4097,3.4435,3.5302,3.636,3.7608,3.7251,3.7054,3.6998,3.6661,3.6689,3.7026,3.7245,0.0,0.0,0.0,0.0,0.0,0.0,0.0,0.0,0.0,0.0,0.0,0.0,3.7306,3.7442,3.7469,0.0,0.0,0.0,0.0,0.0,3.6275,3.6098,3.6797,4.0169,3.8581,3.6964,3.992,3.8224,3.7309,4.1699,4.0552,3.9497,4.2037,4.291,4.3033,4.2319,4.4143,4.5318,4.4376,4.417,4.4221,4.4523,4.505,4.486,4.3556,4.4044,4.4076,4.3176,4.2852,4.2689,4.2689,4.2187,4.1563,4.0669,3.9709,3.8325,3.6401,3.4201,3.1877,2.9453,2.8412,2.742,2.654,2.6002,2.5667,2.5445,2.501,2.5156,2.562,2.5506,2.5489,2.552,2.432,2.3644,2.3096,2.1837,2.1449,2.146,0.0,0.0,0.0,0.0,0.0,0.0,0.0,0.0,0.0,0.0,0.0,0.0,0.0,0.0,0.0,0.0,0.0,0.0,0.0,0.0,3.4382,3.4247,3.4357,3.4307,3.4128,3.4569,3.519,3.5956,3.7012,3.805,3.9078,3.8741,3.8074,3.7195,3.6885,3.6914,3.7251,3.7869,3.8094,0.0,0.0,0.0,0.0,0.0,0.0,0.0,0.0,0.0,0.0,0.0,0.0,0.0,0.0,0.0,0.0,3.8159,3.7655,3.7203,3.6657,3.6179,3.6778,4.0904,3.9232,3.7915,4.2958,4.0519,3.8707,4.3993,4.1874,4.0095,4.3357,4.3316,4.3227,4.4533,4.7123,4.8211,4.5945,4.5306,4.5338,4.5994,4.574,4.518,4.4412,4.5094,4.5165,4.3984,4.3877,4.3877,4.3877,4.3785,4.3414,4.2797,4.1606,4.022,3.8508,3.5178,3.1844,2.8501,2.7674,2.6587,2.5368,2.5512,2.5661,2.578,2.4957,2.5297,2.6353,2.5511,2.5171,2.512,2.4322,2.3415,2.243,2.1663,2.1451,2.1351,0.0,0.0,0.0,0.0,0.0,0.0,0.0,0.0,0.0,0.0,0.0,0.0,0.0,0.0,0.0,0.0,0.0,0.0,0.0,0.0,3.4664,3.4664,3.5066,3.5143,3.4746,3.5357,3.6319,3.752,3.855,3.9291,3.9753,4.0238,3.9535,3.785,3.8432,3.8376,3.7878,3.8544,3.899,3.927,0.0,0.0,0.0,0.0,0.0,0.0,0.0,0.0,0.0,0.0,0.0,0.0,0.0,0.0,3.9102,3.8238,3.7974,3.7666,3.6393,3.634,3.681,3.761,3.6295,3.6847,4.4662,4.1397,3.8619,4.5179,4.5238,4.4736,4.6961,4.6269,4.5841,4.7055,4.7366,4.7945,4.9295,4.865,4.7811,4.7267,4.7438,4.6905,4.5199,4.5435,4.5165,4.3984,4.3877,4.3877,4.3877,4.3408,4.2712,4.1836,4.0952,3.8507,3.439,3.3759,3.2912,3.1699,2.8295,2.6329,2.5728,2.518,2.5978,2.7611,2.6075,2.6512,2.8172,2.665,2.5683,2.512,2.4322,2.3112,2.1771,2.1504,2.1111,2.073,0.0,0.0,0.0,0.0,0.0,0.0,0.0,0.0,0.0,0.0,0.0,0.0,0.0,0.0,0.0,0.0,0.0,0.0,0.0,3.4852,3.4819,3.4819,3.4987,3.5224,3.5484,3.6956,3.8371,3.9635,4.1053,4.1419,4.0773,4.0484,3.9327,3.752,3.7676,3.7785,3.7934,3.86,3.9185,3.9669,3.9912,0.0,0.0,0.0,0.0,0.0,0.0,0.0,0.0,0.0,3.841,3.8461,3.8843,3.9117,3.918,3.8657,3.8238,3.7817,3.6935,3.6684,3.7428,4.0616,3.8594,3.7677,4.462,4.3494,4.2682,4.8641,4.7051,4.4685,4.4907,4.6992,4.8546,4.801,4.9074,4.9905,4.9907,4.9243,4.8432,4.7445,4.7421,4.6886,4.5246,4.5233,4.492,4.3969,4.3877,4.3877,4.3877,4.3204,4.2426,4.1737,3.9596,3.7511,3.5538,3.2747,3.0952,3.0261,2.7757,2.6901,2.7313,2.6762,2.7075,2.7984,2.7403,2.7078,2.6926,2.592,2.5205,2.4508,2.3345,2.2504,2.1977,2.179,2.1438,2.0984,0.0,0.0,0.0,0.0,0.0,0.0,0.0,0.0,0.0,0.0,0.0,0.0,0.0,0.0,0.0,0.0,0.0,0.0,3.5426,3.5359,3.5208,3.4984,3.5141,3.5625,3.6497,3.8243,3.9769,4.0992,4.2819,4.2911,4.1346,4.0772,3.9601,3.7982,3.7964,3.8203,3.8625,3.9211,3.9725,4.0126,4.0376,4.0349,0.0,0.0,0.0,0.0,0.0,0.0,0.0,0.0,3.8884,3.8863,3.9372,3.9498,3.9362,3.905,3.8631,3.8082,3.7331,3.6858,3.7557,4.1514,3.9723,3.8716,4.5415,4.5094,4.4956,5.0452,4.941,4.7132,4.5814,4.8283,4.9965,4.8436,4.9714,5.0659,4.9964,4.944,4.8644,4.7469,4.7309,4.6729,4.5273,4.5124,4.4773,4.3969,4.3877,4.3829,4.3772,4.2855,4.208,4.1546,3.8624,3.6601,3.5564,3.1897,2.9681,2.9067,2.7768,2.7475,2.8059,2.7681,2.8032,2.8873,2.7756,2.7127,2.6872,2.5672,2.4746,2.3869,2.2653,2.2188,2.2172,2.1945,2.1533,2.0942,0.0,0.0,0.0,0.0,0.0,0.0,0.0,0.0,0.0,0.0,0.0,0.0,0.0,0.0,0.0,0.0,0.0,0.0,3.6553,3.6326,3.5911,3.5241,3.5684,3.6497,3.7776,3.9054,4.0264,4.1416,4.3552,4.3458,4.1296,4.1367,4.0731,3.951,3.9921,4.013,4.0109,4.0548,4.0716,4.0688,4.0688,4.0587,0.0,0.0,0.0,0.0,0.0,0.0,0.0,0.0,3.955,3.9647,4.0007,3.9904,3.9645,3.9387,3.9074,3.8586,3.7529,3.6837,3.6969,3.918,3.8776,3.9831,4.7395,4.5949,4.4493,4.9971,5.2599,5.317,5.0889,5.0464,4.9932,4.844,4.8932,4.9632,4.985,4.944,4.87,4.7627,4.735,4.6777,4.5442,4.5185,4.4773,4.3953,4.3877,4.3718,4.3422,4.2325,4.153,4.1172,3.8113,3.5564,3.3606,3.116,2.9548,2.877,2.8424,2.8059,2.7508,2.7508,2.8684,3.0582,2.7045,2.6735,2.8569,2.6168,2.4469,2.3303,2.2498,2.2188,2.2172,2.2001,2.1257,2.0313,0.0,0.0,0.0,0.0,0.0,0.0,0.0,0.0,0.0,0.0,0.0,0.0,0.0,0.0,0.0,0.0,0.0,0.0,3.7135,3.7084,3.696,3.6751,3.688,3.7143,3.7531,3.9076,4.0682,4.2232,4.2951,4.2611,4.1366,4.0761,4.0216,3.9788,4.1602,4.1582,4.0243,4.2147,4.184,4.0119,4.0519,4.0285,0.0,0.0,0.0,0.0,0.0,0.0,0.0,0.0,0.0,0.0,4.016,4.0465,4.061,4.0883,4.0372,3.9713,3.9546,3.9067,3.8919,4.0432,4.136,4.2529,4.5028,4.5701,4.6869,5.0778,5.2577,5.2475,4.9481,5.1358,5.235,4.9191,5.0274,5.1079,5.0062,4.9735,4.9095,4.7677,4.7118,4.6375,4.5054,4.4767,4.4345,4.3587,4.3565,4.3518,4.3406,4.1891,4.0582,3.9671,3.6213,3.3646,3.2062,2.9307,2.7632,2.7024,2.7739,2.8488,2.9243,2.9243,2.913,2.8862,2.7822,2.7183,2.6805,2.5205,2.3886,2.2744,2.2522,2.2383,2.2383,2.2318,2.1523,2.0527,0.0,0.0,0.0,0.0,0.0,0.0,0.0,0.0,0.0,0.0,0.0,0.0,0.0,0.0,0.0,0.0,0.0,0.0,0.0,3.7793,3.7674,3.7417,3.7387,3.7524,3.7793,3.9593,4.0802,4.133,4.1991,4.191,4.1165,4.1134,4.1073,4.102,4.2809,4.2617,4.098,4.231,4.1859,4.0316,4.0628,4.0569,4.0311,0.0,0.0,0.0,0.0,0.0,0.0,0.0,0.0,0.0,4.0641,4.1157,4.1551,4.143,4.0937,4.0539,4.1208,4.0934,4.108,4.3591,4.4212,4.4586,4.5837,4.7079,4.9035,5.2761,5.3799,5.3387,5.121,5.2889,5.3699,5.1006,5.1698,5.202,5.0432,5.0029,4.9391,4.8007,4.7161,4.625,4.5192,4.4756,4.4181,4.3428,4.3406,4.3343,4.32,4.1191,3.9629,3.8669,3.5058,3.253,3.1256,2.8726,2.7408,2.7291,2.7771,2.8369,2.9028,2.9028,2.8695,2.8054,2.7281,2.6336,2.5328,2.4345,2.3386,2.253,2.253,2.253,2.2464,2.2184,2.1483,2.0544,0.0,0.0,0.0,0.0,0.0,0.0,0.0,0.0,0.0,0.0,0.0,0.0,0.0,0.0,0.0,0.0,0.0,0.0,0.0,0.0,3.83,3.7683,3.7661,3.8003,3.8679,4.0415,4.0696,3.9481,4.0895,4.1312,4.0859,4.2079,4.2679,4.2836,4.385,4.3462,4.203,4.1714,4.1228,4.0711,4.0807,4.1079,4.1346,4.1345,0.0,0.0,0.0,0.0,0.0,0.0,0.0,0.0,4.1299,4.1853,4.2319,4.1326,4.113,4.1516,4.2811,4.2681,4.3216,4.7318,4.6872,4.6194,4.9207,4.9874,5.0976,5.5158,5.5643,5.5124,5.4753,5.4719,5.4381,5.3349,5.3066,5.2442,5.0822,5.0206,4.9489,4.8434,4.736,4.6401,4.5719,4.4913,4.4185,4.3502,4.3327,4.3184,4.2898,4.0378,3.8646,3.7987,3.4426,3.2049,3.1078,2.9037,2.8237,2.8704,2.81,2.7589,2.7218,2.7401,2.7651,2.7787,2.6054,2.4927,2.4288,2.3731,2.3106,2.253,2.253,2.253,2.2407,2.173,2.1121,2.0486,0.0,0.0,0.0,0.0,0.0,0.0,0.0,0.0,0.0,0.0,0.0,0.0,0.0,0.0,0.0,0.0,0.0,0.0,0.0,0.0,3.9751,3.9582,3.9703,4.0068,4.0745,4.0666,4.0457,4.0187,4.0513,4.0818,4.1052,4.1804,4.2613,4.3584,4.5763,4.4822,4.1642,4.3066,4.1609,3.8453,3.9919,4.0109,3.9641,4.1016,4.1116,0.0,0.0,0.0,0.0,0.0,0.0,0.0,4.1298,4.1568,4.1955,4.2169,4.2977,4.4094,4.55,4.5261,4.4976,4.6295,4.6786,4.8349,5.3824,5.36,5.29,5.509,5.4851,5.4429,5.5027,5.5438,5.5245,5.3883,5.3268,5.2442,5.0822,5.0206,4.9489,4.8434,4.736,4.6496,4.5896,4.4784,4.3981,4.3661,4.3017,4.2691,4.2866,3.9992,3.7918,3.7136,3.3785,3.1877,3.161,2.9273,2.8101,2.8183,2.6934,2.5985,2.5292,2.6789,2.6996,2.6073,2.5959,2.5328,2.4288,2.4164,2.3484,2.253,2.253,2.253,2.2407,2.173,2.1121,2.0486,0.0,0.0,0.0,0.0,0.0,0.0,0.0,0.0,0.0,0.0,0.0,0.0,0.0,0.0,0.0,0.0,0.0,0.0,0.0,0.0,4.0091,3.9826,4.0184,4.0397,4.0427,4.0397,4.0247,3.99,3.99,4.0371,4.1262,4.1888,4.2813,4.405,4.5594,4.4544,4.1686,4.2833,4.1647,3.9048,4.0298,4.0572,4.0294,4.125,0.0,0.0,0.0,0.0,0.0,0.0,0.0,0.0,0.0,0.0,4.2631,4.2129,4.277,4.4026,4.5734,4.6662,4.7681,4.9997,5.1416,5.2868,5.5361,5.5202,5.474,5.5551,5.5137,5.4735,5.5242,5.5518,5.5386,5.4625,5.3664,5.2559,5.1163,5.0353,4.9489,4.8434,4.736,4.6511,4.5925,4.4513,4.3474,4.3097,4.1896,4.1134,4.1025,3.8304,3.6263,3.5229,3.2861,3.1215,3.0431,2.9164,2.8013,2.7017,2.6271,2.5496,2.4794,2.5973,2.6172,2.5534,2.559,2.5147,2.4288,2.4009,2.3328,2.253,2.253,2.253,2.2407,2.1426,2.0848,2.0486,0.0,0.0,0.0,0.0,0.0,0.0,0.0,0.0,0.0,0.0,0.0,0.0,0.0,0.0,0.0,0.0,0.0,0.0,0.0,0.0,0.0,3.9811,4.0244,4.0279,3.9859,4.0279,4.0219,3.9679,3.9559,0.0,0.0,4.2789,4.3768,4.4984,4.5266,4.4048,4.1735,4.1761,4.1058,3.9979,4.075,4.1091,4.1209,0.0,0.0,0.0,0.0,0.0,0.0,0.0,0.0,0.0,0.0,0.0,4.3179,4.1724,4.2049,4.3293,4.5106,4.7408,5.0277,5.4329,5.5873,5.6273,5.5736,5.5641,5.5764,5.6013,5.5733,5.5369,5.5217,5.523,5.5277,5.5209,5.3958,5.2615,5.1599,5.0559,4.952,4.8441,4.7207,4.6261,4.5774,4.3987,4.2657,4.2238,4.0734,3.9606,3.9119,3.6506,3.462,3.3665,3.2045,3.0634,2.9468,2.9112,2.8261,2.6997,2.6755,2.6185,2.5381,2.6052,2.6146,2.5804,2.578,2.5397,2.4689,2.3886,2.3205,2.2645,2.2489,2.2424,2.2308,2.1148,2.0629,2.0384,0.0,0.0,0.0,0.0,0.0,0.0,0.0,0.0,0.0,0.0,0.0,0.0,0.0,0.0,0.0,0.0,0.0,0.0,0.0,0.0,0.0,4.1476,4.112,4.1104,4.157,4.1134,4.0879,4.0788,4.0195,0.0,0.0,0.0,0.0,4.7728,0.0,4.4941,4.136,4.0158,3.8976,3.8109,3.9455,3.9809,0.0,0.0,0.0,0.0,0.0,0.0,0.0,0.0,4.2258,0.0,0.0,0.0,4.1888,4.143,4.2597,4.4159,4.4882,4.7764,5.1209,5.3975,5.3527,5.3398,5.6889,5.5801,5.4417,5.5809,5.5733,5.526,5.4786,5.5016,5.515,5.4768,5.3753,5.266,5.1686,5.0629,4.9505,4.8494,4.658,4.5271,4.5221,4.2821,4.1405,4.1599,4.026,3.9419,3.9367,3.6289,3.44,3.4179,3.1703,3.08,3.1766,2.9707,2.9448,3.0985,3.001,2.8701,2.7195,2.8924,2.879,2.7065,2.7698,2.748,2.6501,2.487,2.3846,2.3205,2.2514,2.2237,2.2172,2.1479,2.0865,2.0251,0.0,0.0,0.0,0.0,0.0,0.0,0.0,0.0,0.0,0.0,0.0,0.0,0.0,0.0,0.0,0.0,0.0,0.0,0.0,0.0,0.0,4.0795,4.0561,4.0557,4.0843,4.0588,4.0436,4.0436,0.0,0.0,0.0,4.8741,4.8799,0.0,0.0,0.0,0.0,4.2423,4.1104,3.9072,3.9708,3.9865,0.0,0.0,0.0,0.0,0.0,0.0,0.0,0.0,4.245,4.2371,4.2469,0.0,0.0,0.0,4.2112,4.3727,4.6912,4.8322,5.0106,5.5253,5.4176,5.2934,5.7077,5.5948,5.441,5.5807,5.571,5.5312,5.5105,5.4987,5.4924,5.4968,5.3881,5.264,5.1722,5.0426,4.8982,4.7436,4.601,4.4862,4.3942,4.2099,4.092,4.0764,3.8908,3.7579,3.7268,3.4819,3.3239,3.2673,3.1217,3.047,3.0625,3.0148,3.0313,3.1057,2.9411,2.8623,2.8658,2.8738,2.7875,2.6352,2.7789,2.746,2.5891,2.463,2.3787,2.3151,2.2342,2.2042,2.1945,2.1481,2.1105,2.0728,0.0,0.0,0.0,0.0,0.0,0.0,0.0,0.0,0.0,0.0,0.0,0.0,0.0,0.0,0.0,0.0,0.0,0.0,0.0,0.0,0.0,4.0139,4.0121,4.0121,4.0121,4.0121,4.0121,4.0121,0.0,0.0,4.9665,5.1058,5.1425,0.0,5.0925,0.0,0.0,0.0,0.0,0.0,0.0,0.0,0.0,0.0,0.0,0.0,0.0,0.0,0.0,0.0,0.0,4.2516,4.2662,4.2609,0.0,0.0,0.0,4.2761,4.7129,4.76,4.8281,5.4351,5.351,5.2112,5.5531,5.4969,5.3988,5.5086,5.5461,5.5512,5.5266,5.4758,5.457,5.4864,5.3767,5.2394,5.1032,4.9762,4.8126,4.603,4.5003,4.3957,4.2588,4.1356,4.0348,3.972,3.7662,3.6172,3.5593,3.3691,3.2263,3.1526,3.0788,3.0131,2.9593,3.0532,3.092,3.073,2.9105,2.8673,2.9194,2.8478,2.7139,2.5551,2.7414,2.727,2.5675,2.4564,2.3823,2.3192,2.2386,2.1967,2.1831,2.1548,2.1336,2.1123,0.0,0.0,0.0,0.0,0.0,0.0,0.0,0.0,0.0,0.0,0.0,0.0,0.0,0.0,0.0,4.1997,4.2349,4.2286,4.1621,4.1273,4.0885,4.0505,4.0487,0.0,4.0487,4.0487,4.0487,0.0,0.0,0.0,4.8726,5.2038,5.4757,5.6775,5.3237,5.1491,5.0833,0.0,0.0,0.0,0.0,0.0,0.0,0.0,0.0,0.0,0.0,0.0,0.0,0.0,0.0,0.0,4.3139,4.2925,4.2487,0.0,0.0,0.0,4.3237,4.4645,4.6205,4.8734,4.9156,4.9479,5.1388,5.1929,5.226,5.3019,5.4716,5.5774,5.4917,5.4285,5.395,5.3972,5.3114,5.1591,4.9176,4.8282,4.6988,4.4588,4.3104,4.2051,4.1429,4.023,3.9137,3.8259,3.7082,3.6131,3.5557,3.3475,3.2124,3.1794,3.0525,2.996,3.0163,3.0696,3.1123,3.1345,3.0933,2.9787,2.8101,2.9292,2.8143,2.5323,2.7073,2.7591,2.7029,2.5292,2.4182,2.3596,2.2792,2.2185,2.1701,2.1831,2.1486,2.1074,0.0,0.0,0.0,0.0,0.0,0.0,0.0,0.0,0.0,0.0,0.0,0.0,0.0,4.1004,4.1323,4.144,4.1572,4.1539,4.129,4.0919,4.066,4.0522,4.0505,4.0505,4.0505,4.0505,4.0505,0.0,0.0,4.3107,4.7342,4.9004,5.1432,5.4474,5.6421,5.5189,5.1551,4.9659,0.0,0.0,0.0,0.0,0.0,0.0,0.0,0.0,0.0,0.0,0.0,0.0,0.0,0.0,0.0,0.0,0.0,4.2609,4.1845,4.1645,4.3833,4.3241,4.3151,4.7787,4.6678,4.5424,4.9186,5.0415,5.0558,4.9882,5.2835,5.4948,5.2789,5.323,5.3908,5.3908,5.2246,5.0432,4.893,4.7145,4.5196,4.3032,4.229,4.1321,3.9794,3.9398,3.8992,3.8328,3.629,3.538,3.5998,3.3009,3.1417,3.1794,3.0488,3.0202,3.0952,3.0839,3.1064,3.163,3.0021,2.9288,2.9296,2.7513,2.6704,2.6667,2.6132,2.601,2.6044,2.4911,2.4263,2.395,2.2816,2.2253,2.2066,2.1926,2.1759,2.159,0.0,0.0,0.0,0.0,0.0,0.0,0.0,0.0,0.0,0.0,0.0,0.0,0.0,0.0,4.1139,4.1256,4.1156,4.1088,4.1088,4.0715,4.0505,4.0505,4.0505,4.0505,4.0505,4.0505,4.0505,0.0,0.0,0.0,0.0,4.7515,4.9951,5.2973,5.6315,5.636,0.0,0.0,0.0,4.7625,0.0,0.0,4.4131,0.0,0.0,0.0,0.0,0.0,0.0,0.0,0.0,0.0,0.0,0.0,0.0,0.0,0.0,4.174,4.3125,4.1953,4.1322,4.5274,4.4218,4.3042,4.639,4.8493,4.945,4.8415,5.172,5.4127,5.1987,5.2299,5.29,5.2932,5.1001,4.8913,4.7159,4.553,4.3691,4.1529,4.126,4.0605,3.8856,3.8997,3.8832,3.8037,3.6126,3.5264,3.5827,3.3165,3.1493,3.1264,3.029,3.0254,3.126,3.0291,3.0263,3.1239,2.8899,2.8101,2.8584,2.6246,2.5742,2.6546,2.5426,2.5033,2.5279,2.4716,2.4376,2.4083,2.3235,2.2636,2.2303,2.2254,2.2057,2.188,0.0,0.0,0.0,0.0,0.0,0.0,0.0,0.0,0.0,0.0,0.0,0.0,0.0,0.0,0.0,4.1507,4.1273,4.1088,4.1057,4.0715,4.0522,4.0522,4.0522,4.0505,4.0505,4.0505,4.0505,4.0505,4.1361,4.2439,4.3845,0.0,5.076,5.2741,5.2664,5.4604,5.7947,0.0,5.6441,5.5943,0.0,4.9459,4.9581,0.0,0.0,0.0,4.9681,4.8925,0.0,4.8545,0.0,0.0,0.0,0.0,0.0,0.0,0.0,0.0,0.0,0.0,0.0,4.0895,4.1652,4.2535,4.293,4.6012,4.8756,4.8722,5.134,5.342,5.2606,5.162,5.0967,5.0948,4.9295,4.6981,4.395,4.3457,4.2519,4.0093,4.007,3.9881,3.8791,3.8981,3.8611,3.7245,3.6586,3.5892,3.5075,3.395,3.2387,3.0243,2.9932,3.0143,3.0967,2.9148,2.8855,3.0139,2.7882,2.6491,2.592,2.5826,2.548,2.4882,2.4882,2.4882,2.4882,2.4882,2.4555,2.401,2.401,2.3309,2.2413,2.2675,2.2443,2.1977,0.0,0.0,0.0,0.0,0.0,0.0,0.0,0.0,0.0,0.0,0.0,0.0,0.0,0.0,0.0,4.0118,4.0707,4.0901,4.0416,4.0721,4.0919,4.0919,4.0677,4.0505,4.0505,4.0505,4.0505,4.0505,4.0759,4.137,4.2408,4.3902,0.0,0.0,4.9273,5.0808,5.1374,5.2864,0.0,5.0344,5.3321,5.1522,0.0,0.0,0.0,0.0,0.0,5.1176,5.007,0.0,4.9582,4.7648,0.0,0.0,0.0,0.0,0.0,0.0,4.1404,0.0,0.0,0.0,0.0,0.0,4.0797,4.2514,4.4039,4.4058,4.7191,5.0142,5.0737,5.0352,4.9788,4.9054,4.7332,4.5452,4.3724,4.2315,4.107,3.9931,3.9896,3.9666,3.8964,3.8663,3.8333,3.7897,3.6185,3.5285,3.5564,3.3263,3.1359,2.9957,2.9481,2.9432,2.9836,2.8932,2.8704,2.9045,2.7707,2.664,2.5867,2.5614,2.5291,2.4882,2.4882,2.4882,2.4882,2.4882,2.4773,2.461,2.4174,2.3837,2.3445,2.2817,2.255,2.2524,0.0,0.0,0.0,0.0,0.0,0.0,4.4035,0.0,0.0,0.0,0.0,0.0,0.0,0.0,0.0,4.0472,4.0954,4.115,4.0756,4.052,4.0611,4.1057,4.0572,4.0351,4.0491,4.0505,4.0505,4.0505,4.0591,4.088,4.1386,4.227,0.0,0.0,0.0,0.0,0.0,0.0,0.0,0.0,5.4207,0.0,0.0,5.6032,5.5134,0.0,0.0,0.0,5.4304,5.4742,5.2765,0.0,0.0,0.0,0.0,0.0,0.0,0.0,0.0,0.0,0.0,4.0926,0.0,0.0,4.0225,4.1842,4.3364,4.3813,4.6706,4.9223,4.9297,4.8815,4.8045,4.6899,4.577,4.4479,4.2889,4.1526,4.0556,4.0142,3.9898,3.9573,3.9069,3.8482,3.8105,3.7908,3.6409,3.5425,3.533,3.291,3.1116,3.0137,2.9408,2.9091,2.9236,2.9258,2.9324,2.9427,2.8615,2.7923,2.726,2.6238,2.561,2.5263,2.4991,2.4882,2.4882,2.4882,2.4882,2.4882,2.4501,2.4228,2.3919,2.342,2.3066,2.2797,0.0,0.0,4.6843,4.6812,4.5743,4.467,4.3984,0.0,0.0,0.0,0.0,0.0,0.0,0.0,0.0,0.0,4.1638,4.1623,4.1559,4.0324,4.007,4.1125,4.0445,4.0197,4.0491,4.0659,4.0676,4.0505,4.0756,4.089,4.0938,0.0,0.0,0.0,0.0,0.0,0.0,0.0,4.9318,5.5468,5.4244,5.6671,6.0952,6.0967,6.0324,5.9735,6.2404,6.1285,5.861,5.9328,5.6325,0.0,0.0,0.0,0.0,0.0,4.3275,0.0,0.0,0.0,0.0,0.0,4.0308,0.0,4.0513,4.2394,4.4293,4.5418,4.7255,4.8472,4.7767,4.688,4.5814,4.4551,4.4316,4.3602,4.1697,4.1291,4.0936,4.0254,4.011,3.9801,3.9167,3.8531,3.8007,3.75,3.6864,3.5915,3.4619,3.2737,3.1435,3.0825,2.9844,2.9323,2.9396,3.0143,3.0564,3.059,3.0044,2.9497,2.898,2.7154,2.6172,2.5762,2.5218,2.4936,2.4882,2.4882,2.4882,2.4882,2.4882,2.4555,2.4092,2.422,2.3699,2.303,0.0,0.0,4.6543,4.6098,4.5791,4.5083,4.3493,4.2594,0.0,0.0,0.0,0.0,0.0,0.0,0.0,0.0,4.1867,4.1757,4.1246,4.0706,4.0735,4.1474,4.0795,4.042,4.0505,4.1599,4.163,4.0505,4.1128,4.1494,4.1603,4.2309,0.0,0.0,0.0,0.0,0.0,4.3994,4.6707,5.1243,5.4181,5.6249,5.7966,6.1879,6.0848,5.8038,6.318,6.279,5.974,5.9159,5.7265,5.4262,0.0,0.0,0.0,4.268,0.0,0.0,0.0,0.0,0.0,0.0,4.0893,0.0,3.9623,3.8983,3.9307,4.1306,4.0778,4.0976,4.4353,4.4001,4.3176,4.2925,4.2645,4.2069,4.1072,4.2922,4.2871,3.8735,4.0191,4.1078,3.9752,3.8791,3.8154,3.8056,3.651,3.5143,3.4247,3.2829,3.2051,3.2042,3.1445,3.1407,3.2043,3.2482,3.193,3.0528,3.0257,2.9335,2.7902,2.706,2.6353,2.5816,2.5707,2.5381,2.4882,2.4882,2.4882,2.4882,2.4882,2.4828,2.4674,2.4229,2.4118,2.4126,0.0,0.0,4.6426,4.5887,4.5532,4.4908,4.3737,4.3238,0.0,0.0,0.0,0.0,0.0,0.0,0.0,0.0,0.0,0.0,0.0,4.053,4.0356,4.1003,4.0556,4.0509,4.1063,4.1384,4.1384,4.1045,4.1045,4.1282,4.1727,4.233,0.0,0.0,0.0,0.0,0.0,4.3451,4.5545,4.9086,5.3864,5.6985,5.924,6.3763,6.4008,6.225,6.5022,6.4527,6.209,5.8692,5.7478,0.0,5.172,4.8721,4.6615,0.0,4.2801,4.1314,0.0,0.0,0.0,4.0153,4.0177,0.0,0.0,3.8578,3.8602,4.023,3.9936,4.0017,4.2043,4.1546,4.1044,4.1649,4.1423,4.0895,4.0075,4.1573,4.1877,3.9484,4.0658,4.1175,3.9898,3.9508,3.8923,3.7893,3.6353,3.5081,3.4149,3.3414,3.2809,3.2421,3.2394,3.2543,3.2946,3.3705,3.3379,3.191,3.154,3.0647,2.9201,2.7797,2.7005,2.662,2.6033,2.5653,2.5327,2.4991,2.4882,2.4882,2.4882,2.4882,2.4901,2.4686,2.4578,2.4518,0.0,0.0,0.0,4.5725,4.5273,4.4719,4.3909,4.3854,0.0,0.0,0.0,0.0,0.0,0.0,0.0,0.0,0.0,0.0,0.0,0.0,4.0652,4.0795,4.0497,4.0721,4.1586,4.1137,4.1137,4.1586,4.1014,4.1076,4.1801,4.2355,4.2663,0.0,0.0,0.0,0.0,0.0,4.6183,4.9524,5.4539,5.7763,6.0065,6.4811,6.6311,6.5921,6.6362,6.5945,6.4401,5.9016,5.7973,5.8207,5.4261,5.0735,0.0,0.0,0.0,0.0,0.0,0.0,0.0,4.0381,3.9675,3.9086,0.0,0.0,0.0,3.9431,3.9639,3.9681,3.9376,3.8845,3.8772,3.9736,3.9951,3.9718,3.8934,3.9377,3.9739,3.9755,4.0528,4.0624,3.9543,3.9737,3.9339,3.7814,3.6524,3.5452,3.475,3.4307,3.3775,3.3163,3.3182,3.3323,3.3417,3.4196,3.399,3.2838,3.2461,3.1768,3.065,2.8678,2.7738,2.7594,2.6566,2.5979,2.5762,2.5272,2.4991,2.4882,2.4882,2.4882,2.491,2.5128,2.5003,2.4807,4.6227,4.6315,0.0,4.5094,4.5338,4.5089,4.3319,4.3553,0.0,0.0,0.0,0.0,0.0,0.0,0.0,0.0,0.0,0.0,4.4049,0.0,0.0,4.1997,4.1603,4.1467,4.1586,4.2109,4.2091,4.1586,4.1524,4.1832,4.2509,4.2571,4.291,4.3482,4.3655,0.0,0.0,4.7373,4.9963,5.4704,5.8013,5.7486,5.5455,6.2532,6.3768,6.2184,6.5349,6.6226,6.5347,6.1781,5.9962,5.842,5.3778,5.0368,4.7771,4.6006,0.0,0.0,0.0,0.0,4.2531,4.0675,4.1128,4.137,3.8953,0.0,3.7189,3.6316,0.0,3.4279,3.4607,0.0,0.0,3.5816,3.7123,3.8073,3.7867,3.8022,3.7689,3.6426,3.867,3.976,3.8246,3.8042,3.8242,3.8782,3.7092,3.6289,3.6833,3.5442,3.4946,3.5739,3.4478,3.4056,3.4525,3.3827,3.2678,3.1176,3.1177,3.0825,3.0164,2.8962,2.8333,2.8253,2.7594,2.6728,2.5816,2.5707,2.5372,2.4882,2.4882,2.4882,2.491,2.5128,2.5271,2.5376,4.6227,4.5996,0.0,0.0,4.469,4.4446,4.4038,4.5662,0.0,0.0,0.0,0.0,0.0,0.0,0.0,0.0,0.0,4.8391,0.0,0.0,0.0,4.3853,4.2399,4.1771,4.2171,4.2078,4.1894,4.1586,4.1168,4.1322,4.2017,4.2417,4.2756,4.3033,4.3821,4.5607,4.805,4.8122,5.0248,5.3734,5.5633,5.5527,5.5118,6.3104,6.5473,6.4516,6.4308,6.5015,6.5119,5.942,5.9534,6.0965,5.494,5.2252,5.1056,4.9511,0.0,0.0,4.3668,4.4065,4.406,4.3043,4.2594,4.2031,4.0679,3.8252,3.6157,3.5669,0.0,0.0,0.0,0.0,0.0,0.0,3.5021,3.5406,3.6019,3.6248,3.6602,3.729,3.8104,3.8676,3.881,3.7546,3.7238,3.855,3.6924,3.576,3.545,3.5214,3.504,3.4853,3.4244,3.401,3.4244,3.3635,3.2678,3.1359,3.1427,3.0892,2.989,2.9573,2.9154,2.8584,2.8188,2.754,2.6728,2.6088,2.5653,2.5381,2.5045,2.4882,2.492,2.526,2.543,2.5497,0.0,0.0,0.0,0.0,4.4334,4.4237,4.4949,4.7475,0.0,0.0,0.0,0.0,5.5105,5.2709,0.0,0.0,5.288,5.1215,0.0,0.0,4.6568,0.0,0.0,0.0,4.3679,4.2325,4.1586,4.1586,4.1045,4.1168,4.1894,4.2571,4.2879,4.291,4.4098,4.5946,4.8266,4.9575,5.1884,5.4805,5.6414,5.7406,5.8504,6.3676,6.6221,6.6699,6.4487,6.4659,6.5032,5.8859,5.9536,6.2025,5.6594,5.4204,5.3332,5.2742,4.9089,0.0,4.6192,4.6318,4.6011,4.4927,4.3643,4.2297,4.1061,3.8492,3.6267,3.5988,3.5586,0.0,0.0,0.0,3.4097,0.0,0.0,3.3918,3.4537,3.4715,3.5382,3.6904,3.7085,3.746,3.8394,3.7311,3.6947,3.7942,3.6686,3.5611,3.5117,3.5425,3.5323,3.4572,3.401,3.3587,3.3243,3.2626,3.1903,3.1052,3.1214,3.0769,2.9931,3.0047,2.9781,2.9228,2.879,2.8296,2.7648,2.6674,2.6196,2.6033,2.5861,2.5535,2.5147,2.5344,2.5458,2.5553,4.6403,4.5863,0.0,0.0,4.4639,4.4982,4.5662,4.822,5.0811,0.0,0.0,0.0,0.0,0.0,0.0,0.0,0.0,5.2529,5.2211,0.0,5.119,0.0,0.0,4.3802,0.0,4.3279,4.1586,4.1586,4.1586,4.1925,4.2571,4.3267,4.3562,4.3593,4.4283,4.6469,4.9835,5.278,5.6583,6.088,6.3837,6.5651,6.6281,6.3348,6.4216,6.6938,6.654,6.6229,6.5532,6.2495,6.0986,6.0081,5.8622,5.5679,5.2967,5.4147,5.2264,4.9816,4.9818,4.9662,4.8674,4.5425,4.4037,4.2492,3.8789,3.8148,3.8013,3.6993,3.7154,3.724,3.6371,0.0,0.0,0.0,0.0,0.0,0.0,3.3767,3.3708,3.3306,3.4936,3.6014,3.5935,3.712,3.7697,3.7078,3.6552,3.6581,3.7266,3.6659,3.6236,3.6111,3.4244,3.2738,3.1671,3.0504,2.9787,2.9454,2.9732,3.0081,3.0561,3.0255,3.0253,3.0405,2.9529,2.8888,2.8306,2.7702,2.7107,2.6684,2.7799,2.7205,2.5737,2.5367,2.5336,2.5534,0.0,0.0,0.0,0.0,0.0,4.5014,4.5694,4.7022,4.9451,5.3499,5.3331,0.0,0.0,5.8177,5.6871,0.0,0.0,5.8159,5.5258,5.5093,0.0,0.0,0.0,4.9291,0.0,0.0,4.4941,4.2263,4.2263,4.2602,4.3267,4.3482,4.384,4.4252,4.4498,4.6223,4.9199,5.2704,5.6011,5.9183,6.2042,6.3944,6.5024,6.5263,6.6011,6.6937,6.6382,6.6101,6.5531,6.2428,6.1959,6.2339,6.0192,5.8058,5.6732,5.8418,5.5524,5.1955,5.2826,5.2827,5.2073,4.9883,4.7616,4.5308,4.307,4.0534,3.8311,3.7068,3.7093,3.7117,3.6426,0.0,0.0,0.0,0.0,0.0,0.0,3.2469,3.2424,3.2602,3.3875,3.4894,3.5244,3.501,3.5099,3.5702,3.496,3.4379,3.4026,3.4748,3.4603,3.3348,3.2883,3.2171,3.1141,3.0276,2.9823,2.991,2.982,2.9984,3.0358,3.0598,3.0525,3.0212,3.0314,3.0017,2.9438,2.8468,2.7983,2.7767,2.7324,2.6711,2.6106,2.6854,2.644,2.5553,4.6373,0.0,0.0,0.0,0.0,4.5726,4.7443,4.7913,5.0118,5.5834,5.5216,5.6235,6.1413,0.0,5.9581,0.0,6.0284,6.0023,5.8483,5.6051,0.0,5.8448,5.4514,0.0,0.0,0.0,0.0,0.0,4.451,4.4406,4.573,4.4776,4.4529,4.496,4.496,4.5887,4.7753,5.2688,5.5772,5.7691,6.0821,6.3288,6.5084,6.5203,6.6131,6.7236,6.6346,6.6007,6.5647,6.3326,6.3048,6.3368,6.1648,5.9988,5.8868,6.0076,5.7716,5.4878,5.5693,5.5821,5.5271,5.3284,5.0838,4.8344,4.605,4.3435,4.1175,4.0018,3.9933,3.9758,3.8964,3.7412,0.0,0.0,0.0,0.0,0.0,3.1891,3.1817,3.2168,3.3532,3.4366,3.4086,3.4065,3.397,3.3822,3.3441,3.2912,3.221,3.3657,3.3838,3.2383,3.2555,3.2185,3.1202,3.051,3.0174,3.0218,3.0033,3.0002,3.0238,3.0757,3.079,3.0461,3.0758,3.0714,3.0297,2.9384,2.8899,2.8619,2.8242,2.7567,2.6744,2.7205,2.6646,2.562,4.6071,4.6685,4.7489,4.7471,4.6714,4.7231,5.0612,5.0749,5.2854,5.9488,5.8154,5.7638,6.0424,5.8652,5.7777,5.9011,5.7819,5.8264,6.1317,5.5037,0.0,0.0,5.4545,5.2782,5.7771,0.0,0.0,0.0,0.0,4.7208,4.9703,4.69,4.5607,4.5607,4.5576,4.5429,4.5714,5.2768,5.6129,5.7015,6.0469,6.3827,6.64,6.3258,6.4485,6.7684,6.6404,6.5947,6.5823,6.5132,6.406,6.2968,6.2968,6.1267,5.9286,5.9286,5.8868,5.839,5.8362,5.8535,5.8081,5.5363,5.3484,5.1344,4.7569,4.659,4.626,4.544,4.5209,4.48,4.3671,4.1122,0.0,0.0,0.0,0.0,0.0,3.2009,3.1844,3.177,3.3682,3.4299,3.251,3.4202,3.4262,3.1532,3.2041,3.2315,3.1928,3.3377,3.3921,3.3365,3.3228,3.275,3.1853,3.1197,3.0732,3.0354,3.0255,3.0242,3.0288,3.0808,3.105,3.097,3.097,3.0928,3.0874,3.035,2.9802,2.9373,3.0458,2.9659,2.7752,2.6544,2.5988,2.5884,4.6648,4.7624,4.8834,4.8487,4.9609,5.0494,5.0326,5.2456,5.5058,5.7808,5.8837,5.9786,6.1077,6.1787,6.0746,5.7097,5.8613,0.0,0.0,0.0,0.0,6.3137,6.1809,6.0455,5.9311,5.79,5.6207,5.4183,0.0,4.9743,5.0359,4.7116,4.5607,4.5576,4.5083,4.4753,4.503,5.207,5.6937,5.9839,5.8797,6.0386,6.3199,6.1882,6.3352,6.6063,6.5484,6.5115,6.4747,6.3875,6.3019,6.2336,6.2336,6.155,6.061,6.061,6.016,5.9539,5.9093,5.899,5.8487,5.6461,5.4257,5.2086,5.0138,4.8579,4.7399,4.6631,4.6098,4.551,4.4662,4.1445,3.8415,0.0,0.0,0.0,0.0,3.2579,3.2434,3.1261,3.2613,3.3049,3.1637,3.2046,3.1866,3.0595,3.0758,3.123,3.1931,3.2614,3.3266,3.3966,3.3372,3.3337,3.3901,3.1876,3.1383,3.2434,3.1323,3.0789,3.0834,3.1363,3.1362,3.1034,3.1407,3.1593,3.1528,3.094,3.0607,3.0458,3.0546,2.9919,2.8798,2.7159,2.6617,2.6633,4.6783,4.7985,4.9237,4.8445,5.195,5.4387,5.2963,5.4243,5.6347,5.9167,5.9681,6.0276,6.1543,6.2945,6.2612,5.9694,5.9072,5.9097,5.9686,0.0,0.0,6.4087,6.3533,6.221,6.027,5.9932,0.0,5.7352,0.0,5.1436,5.276,4.7886,4.5607,4.5576,4.511,4.4802,4.5057,5.202,5.7152,6.0535,5.9009,6.0386,0.0,6.1343,6.2402,6.4838,6.4359,6.4142,6.398,6.3165,6.2347,6.1591,6.118,6.0687,6.0216,5.9964,5.9992,6.0016,5.9679,5.954,5.9248,5.8226,5.6256,5.4299,5.3279,5.1761,5.0359,4.9454,4.8712,4.7756,4.6129,4.2309,3.8394,0.0,0.0,0.0,0.0,3.3154,3.3028,3.1326,3.2781,3.3085,3.0971,3.0907,3.0711,2.9979,2.9834,3.0051,3.0699,3.244,3.3283,3.2915,3.3539,3.3724,3.3407,3.1477,3.1126,3.2279,3.1251,3.0978,3.139,3.1672,3.1662,3.1387,3.1671,3.1807,3.1754,3.1421,3.1213,3.1074,3.0872,3.0575,2.9997,2.8557,2.7776,2.7328,4.6773,4.7997,4.9128,4.8363,5.3359,5.7376,5.6884,5.6712,5.7952,6.1519,6.072,6.0344,6.1792,6.2887,6.3501,6.3449,5.9405,5.8981,6.4029,5.7715,5.71,6.458,6.261,6.1348,6.1348,6.0671,6.0578,0.0,0.0,5.2575,5.5037,4.8532,4.5484,4.5464,4.527,4.5564,4.6607,5.2107,5.6581,5.9937,5.9847,6.1613,6.3947,6.1343,6.181,6.3737,6.3089,6.3085,6.3304,6.26,6.1731,6.0817,5.9967,5.9485,5.9093,5.8474,5.9121,5.996,5.9876,5.9874,5.9855,5.9772,5.8422,5.6897,5.5999,5.4943,5.3869,5.2659,5.18,5.0457,4.7742,4.3156,3.8164,3.3226,3.2358,3.241,3.2717,3.3818,3.3762,3.1698,3.3569,0.0,3.0554,3.0535,3.0434,2.9658,2.9271,2.918,2.9393,3.2321,3.3227,3.156,3.3511,3.3799,3.2235,3.0902,3.0794,3.182,3.0948,3.1046,3.2033,3.2032,3.1973,3.1906,3.1883,3.1914,3.1914,3.1843,3.1702,3.1511,3.1362,3.1336,3.127,3.0384,2.9364,2.8342,4.7341,4.7728,4.9117,5.0737,5.2316,5.4757,5.8972,6.1999,6.3004,6.0765,6.2216,6.2905,6.1457,6.2617,6.2718,6.0782,6.0045,6.0206,6.1445,6.0178,6.104,6.4734,6.4426,6.418,6.418,6.3472,6.2891,0.0,5.6768,5.3445,5.2298,4.7177,4.4776,4.4776,4.4557,4.7581,5.2724,5.1069,5.3797,5.9219,5.8653,5.9129,6.0266,6.1343,6.2048,6.2381,6.1674,6.1849,6.2211,6.1352,6.0727,6.0275,5.9823,5.9454,5.9093,5.8474,5.8812,5.923,5.8755,5.8927,5.9137,5.864,5.8118,5.7262,5.5554,5.5279,5.4965,5.3308,5.2364,5.1161,4.8895,4.2529,3.7082,3.5388,3.3175,3.2019,3.304,3.474,3.4853,3.2076,3.3801,3.3999,3.0833,3.1131,3.0936,2.9628,2.9276,2.9646,3.0917,3.0771,3.1401,3.3127,3.2593,3.317,3.497,3.2324,3.2565,3.5621,3.2642,3.1913,3.3126,3.3173,3.2969,3.2529,3.2465,3.2435,3.2459,3.2198,3.2356,3.2636,3.2123,3.2076,3.2195,3.1522,3.1127,3.0687,4.9837,4.8834,4.8781,5.0307,5.2818,5.5522,5.8221,6.2411,6.4414,6.1993,6.3451,6.4049,6.2328,6.3104,6.3215,6.1868,6.0775,6.0856,6.2553,6.1484,6.2025,6.4764,6.4888,6.4241,6.2794,6.3133,6.2456,6.0732,5.5968,5.2983,0.0,4.6469,4.4011,4.399,4.5393,4.8343,5.2306,5.3043,5.5568,5.9159,5.9907,6.0565,6.1224,6.1852,6.2107,6.2057,6.1733,6.1643,6.151,6.0707,6.0347,6.0075,5.9241,5.9076,5.9093,5.8474,5.8727,5.9149,5.8868,5.8704,5.8502,5.7867,5.7331,5.6658,5.5517,5.5252,5.4856,5.3545,5.2456,5.0555,4.6623,4.2181,3.8789,3.7687,3.5279,3.3967,3.5258,3.5856,3.5647,3.4284,3.6059,3.6184,3.3155,3.3347,3.2359,2.9351,2.9442,2.9786,3.0177,3.1211,3.2316,3.3342,3.3722,3.4273,3.5134,3.3175,3.3265,3.5306,3.3159,3.2722,3.3827,3.3889,3.3601,3.3111,3.3098,3.3073,3.3057,3.2878,3.2889,3.2959,3.2813,3.2864,3.2883,3.2265,3.2073,3.1792,5.2965,5.1441,5.0611,5.1965,5.4746,5.7349,5.8862,6.2135,6.4186,6.3558,6.4246,6.4456,6.3588,6.3677,6.3554,6.2909,6.1585,6.143,6.3036,6.2204,6.2425,6.418,6.4672,6.3872,6.1717,6.2425,6.1625,5.9218,5.5284,5.2544,5.0944,4.6377,4.4181,4.422,4.7441,4.9885,5.1923,5.5718,5.8321,6.0086,6.1523,6.2421,6.281,6.2214,6.196,6.188,6.1821,6.1525,6.1103,6.0438,6.0224,6.0016,5.8859,5.884,5.9093,5.8474,5.8727,5.9149,5.8896,5.8509,5.8032,5.7287,5.6771,5.6179,5.5353,5.4827,5.4244,5.3206,5.1744,4.9298,4.4746,4.2306,4.0613,3.9379,3.7126,3.5792,3.6611,3.6608,3.6475,3.645,3.7811,3.7793,3.5221,3.4814,3.314,2.938,2.9643,2.9971,2.9971,3.1821,3.284,3.2878,3.4315,3.4931,3.4535,3.3509,3.3709,3.5141,3.3586,3.3409,3.4527,3.4602,3.4374,3.3834,3.3835,3.3787,3.3661,3.3605,3.3475,3.3321,3.3515,3.35,3.3364,3.2872,3.2691,3.2479,5.6053,5.6249,5.7573,6.0476,5.8735,5.8894,6.4818,6.3792,6.2959,6.4605,6.4425,6.4276,6.4755,6.3827,6.2563,6.0919,6.2521,6.2309,5.9154,6.2445,6.3779,6.2179,6.3903,6.4764,6.4518,6.341,6.206,6.0609,5.7131,5.3191,4.883,4.7127,4.6395,4.6739,5.1038,5.4264,5.6526,5.7547,5.9847,6.2689,6.2271,6.2121,6.2153,6.1778,6.1462,6.1173,6.094,6.0997,6.1103,6.0438,6.0224,6.0073,5.9335,5.9177,5.9093,5.8474,5.8727,5.898,5.7856,5.7868,5.7922,5.6762,5.6931,5.6795,5.4578,5.3845,5.3232,5.1945,4.9706,4.7601,4.6476,4.337,4.0663,3.961,3.7424,3.5568,3.4715,3.6505,3.7658,3.6932,3.7011,3.6535,3.5044,3.3335,3.1698,3.0198,2.9743,3.0519,3.2716,3.1077,3.0597,3.1723,3.2334,3.3204,3.4412,3.3172,3.4469,3.8223,3.4598,3.3874,3.5621,3.5705,3.5475,3.4966,3.4989,3.4752,3.4194,3.4203,3.4216,3.4166,3.4203,3.3868,3.3376,3.3364,3.3308,3.322,6.002,5.851,5.8083,6.0517,5.9596,5.99,6.4049,6.3855,6.3827,6.5383,6.5383,6.5173,6.5024,6.4186,6.3226,6.2141,6.3254,6.3351,6.1849,6.3749,6.4518,6.3687,6.4457,6.4703,6.4245,6.3291,6.2148,6.0794,5.6176,5.2729,5.0399,4.764,4.7341,4.9205,5.2461,5.5315,5.7812,5.9251,6.1134,6.3048,6.2361,6.2331,6.2601,6.1868,6.164,6.1674,6.1351,6.123,6.1103,6.0438,6.0224,6.0102,5.9392,5.9174,5.9177,5.8924,5.9008,5.9093,5.8615,5.8342,5.7894,5.671,5.645,5.5826,5.3299,5.2803,5.2514,5.1122,4.9333,4.7831,4.7136,4.4971,4.3261,4.3276,4.1644,4.0192,3.9562,3.9919,4.0367,4.0708,3.9057,3.8017,3.8381,3.4845,3.2894,3.3787,3.2109,3.1233,3.1675,3.2001,3.2573,3.3426,3.3975,3.5011,3.6495,3.5153,3.5561,3.7712,3.5787,3.5179,3.5834,3.6197,3.6285,3.6159,3.6023,3.5738,3.5315,3.5158,3.496,3.4817,3.4817,3.4482,3.3924,3.3924,3.4358,3.4903,6.3653,6.1631,6.0527,6.2285,6.1778,6.1703,6.3515,6.3916,6.4216,6.4784,6.5173,6.5323,6.5024,6.4246,6.3347,6.2329,6.3205,6.3393,6.2293,6.3825,6.4528,6.4026,6.458,6.4672,6.4122,6.3229,6.224,6.1101,5.6854,5.4052,5.2522,4.9961,4.9993,5.2382,5.5045,5.7247,5.9102,6.0924,6.2241,6.3078,6.257,6.254,6.2721,6.202,6.176,6.1763,6.135,6.1083,6.0813,6.0121,5.9908,5.9815,5.9335,5.9174,5.9174,5.9174,5.9174,5.9177,5.898,5.8453,5.7646,5.6433,5.5698,5.4656,5.2412,5.1791,5.1216,4.9712,4.8646,4.788,4.7587,4.6355,4.5427,4.5559,4.469,4.3687,4.2798,4.2216,4.2143,4.277,3.9982,3.8402,3.9354,3.5616,3.3645,3.4806,3.3713,3.2775,3.2441,3.2633,3.3247,3.4255,3.4153,3.5033,3.6989,3.5933,3.6185,3.7701,3.6788,3.6334,3.6425,3.6708,3.7031,3.7275,3.6866,3.6703,3.664,3.6311,3.5958,3.5707,3.5553,3.5095,3.4538,3.4538,3.5305,3.6292,6.6681,6.6523,6.6897,6.8174,6.6368,6.4734,6.4697,6.4275,6.3558,6.2301,6.3228,6.4276,6.4934,6.3857,6.2329,6.0296,6.2194,6.1961,5.8286,6.2045,6.3633,6.1906,6.381,6.4888,6.4888,6.3533,6.2487,6.1809,6.0393,5.7993,5.4652,5.4744,5.5387,5.6559,5.963,6.1016,6.1136,6.248,6.3108,6.3108,6.3108,6.2718,6.2124,6.2085,6.1674,6.1027,6.0442,6.0206,6.0117,5.9431,5.9191,5.9214,5.9194,5.9174,5.9174,5.9174,5.9174,5.9093,5.8474,5.7812,5.701,5.5823,5.47,5.355,5.2212,5.0704,4.9146,4.7398,4.7105,4.7388,4.7999,4.7389,4.6392,4.5205,4.5215,4.4623,4.2414,4.2261,4.2245,4.1765,3.8856,3.674,3.6204,3.472,3.3208,3.1768,3.3718,3.5394,3.6385,3.2567,3.1267,3.324,3.1469,3.1865,3.479,3.455,3.6025,3.9164,3.762,3.7252,3.786,3.7396,3.7566,3.8168,3.7519,3.7657,3.8244,3.766,3.7181,3.6817,3.6318,3.5707,3.522,3.522,3.5917,3.6901,6.3394,6.4974,6.6337,6.5517,6.5049,6.4995,6.5627,6.4377,6.3528,6.4007,6.3677,6.3617,6.4246,6.3588,6.2838,6.221,6.1743,6.1629,6.205,6.2289,6.2863,6.3845,6.3195,6.2579,6.2117,6.1225,6.064,6.0424,5.9095,5.7672,5.6212,5.6501,5.7733,5.9687,6.0683,6.1613,6.248,6.2928,6.3108,6.3108,6.3108,6.2988,6.2722,6.2262,6.1969,6.1704,6.1112,6.0874,6.0726,5.9635,5.9537,5.9729,5.8859,5.8868,5.9174,5.9174,5.9174,5.9177,5.898,5.8119,5.6937,5.5461,5.4177,5.2589,4.9851,4.8455,4.7703,4.7456,4.7544,4.7828,4.8363,4.8053,4.7466,4.6581,4.7424,4.7459,4.5326,4.4635,4.3885,4.2738,3.9631,3.7824,3.85,3.5777,3.4447,3.5496,3.3956,3.3584,3.5073,3.4939,3.5116,3.5883,3.5194,3.5473,3.6747,3.6116,3.6756,3.865,3.8074,3.7942,3.8253,3.833,3.8398,3.8405,3.8243,3.833,3.8503,3.833,3.821,3.8142,3.7922,3.7217,3.6455,3.7301,3.8073,3.8885,6.3647,6.51,6.6348,6.5612,6.5089,6.4875,6.5083,6.3956,6.3109,6.3169,6.3109,6.3257,6.3617,6.3347,6.3108,6.3108,6.2081,6.2182,6.3874,6.3003,6.3183,6.4829,6.3656,6.2764,6.2364,6.1656,6.1317,6.1317,6.0106,5.9399,5.9175,5.9308,6.0273,6.1852,6.1852,6.2301,6.3108,6.3108,6.3108,6.3108,6.3108,6.3108,6.3021,6.2351,6.2116,6.1998,6.1142,6.0816,6.0668,5.9635,5.9508,5.9643,5.8633,5.8727,5.9174,5.9174,5.9174,5.9177,5.8924,5.7955,5.6665,5.5414,5.3887,5.1929,4.9191,4.7858,4.7367,4.802,4.8126,4.8276,4.8821,4.878,4.8565,4.8327,4.8949,4.9073,4.7962,4.6298,4.4755,4.3506,4.0515,3.8714,3.9126,3.7106,3.6054,3.6664,3.4867,3.4342,3.5742,3.5299,3.5495,3.658,3.5834,3.6037,3.7258,3.6733,3.7209,3.8714,3.8835,3.8859,3.8887,3.9233,3.9255,3.901,3.9154,3.9194,3.9124,3.9057,3.9036,3.9036,3.8816,3.8266,3.7646,3.8417,3.9337,4.042,6.6333,6.6396,6.6855,6.7621,6.612,6.4501,6.3552,6.3224,6.2449,6.0535,6.194,6.3108,6.3108,6.3108,6.3108,6.3108,6.2988,6.3216,6.3936,6.3872,6.4122,6.4832,6.4764,6.4672,6.4672,6.3968,6.366,6.3756,6.2935,6.2665,6.2966,6.2688,6.2737,6.3108,6.3108,6.3108,6.3108,6.3108,6.3108,6.3108,6.3108,6.3079,6.2992,6.2351,6.2087,6.191,6.0675,6.0264,6.0175,5.9431,5.9249,5.9157,5.849,5.8699,5.9149,5.9149,5.9177,5.9093,5.8531,5.7397,5.6268,5.5679,5.3766,5.1615,4.9878,4.8566,4.7967,4.886,4.878,4.8748,4.9285,4.9465,4.9621,5.007,4.9795,4.9593,4.9884,4.7203,4.4844,4.3826,4.1332,3.9354,3.8493,3.8637,3.7982,3.6004,3.6331,3.7069,3.7974,3.4367,3.3439,3.5984,3.436,3.4456,3.6717,3.6765,3.7623,3.9259,3.9829,3.9919,3.975,4.0101,4.0163,3.9973,4.022,4.0244,4.0021,3.9769,3.968,3.9585,3.9036,3.8816,3.8761,3.8843,3.9885,4.1378,6.2225,6.4374,6.617,6.4824,6.4711,6.47,6.4501,6.3663,6.2928,6.2449,6.2808,6.3108,6.3108,6.3108,6.3108,6.3108,6.1701,6.1601,6.3503,6.2425,6.2546,6.4463,6.3213,6.2548,6.2548,6.1871,6.2165,6.3483,6.3576,6.3542,6.3324,6.3098,6.3016,6.3108,6.3108,6.3108,6.3108,6.3108,6.3108,6.3108,6.3108,6.2963,6.2673,6.2263,6.1939,6.1643,6.114,6.0961,6.0784,5.9664,5.9565,5.9757,5.8661,5.839,5.8502,5.8502,5.884,5.9177,5.9036,5.7704,5.6307,5.5861,5.3585,5.1142,4.9882,4.9203,4.885,4.8605,4.8862,4.9178,4.9352,4.9903,5.0139,4.966,5.0261,4.9932,4.7577,4.6092,4.4221,4.1285,4.0699,4.0225,3.951,4.0037,3.9874,3.8599,3.7637,3.7485,3.8327,3.6734,3.6769,3.886,3.7984,3.7748,3.8195,3.8465,3.9085,4.0054,4.0447,4.0523,4.0326,4.0651,4.0681,4.0497,4.0573,4.0635,4.0693,4.0552,4.0404,4.0271,4.0147,3.9804,3.9461,4.0351,4.0951,4.1516,6.3994,6.548,6.6586,6.5164,6.4871,6.4795,6.4795,6.3819,6.3108,6.3108,6.3108,6.3108,6.3108,6.3108,6.3108,6.3108,6.212,6.2053,6.3391,6.2794,6.2975,6.4351,6.3647,6.3225,6.3225,6.2856,6.306,6.3862,6.378,6.3681,6.351,6.3223,6.3108,6.3108,6.3108,6.3108,6.3108,6.3108,6.3108,6.3108,6.3108,6.2905,6.2556,6.2234,6.188,6.1583,6.1313,6.1193,6.1045,6.0036,5.9938,5.9988,5.8689,5.8502,5.8671,5.839,5.8531,5.8812,5.8812,5.7815,5.6603,5.5844,5.3973,5.2049,5.0909,5.0288,4.9794,4.9195,4.9499,4.9958,5.0267,5.0819,5.1048,5.0396,5.0045,4.9153,4.7245,4.5377,4.3599,4.1991,4.1895,4.1855,4.1609,4.1948,4.1783,4.0782,3.9139,3.8561,3.9469,3.8306,3.8327,3.9847,3.9511,3.9198,3.9019,3.9467,3.9974,4.0515,4.0864,4.1062,4.112,4.1466,4.1406,4.1072,4.1226,4.1278,4.1269,4.1216,4.1049,4.0857,4.0857,4.0544,4.0078,4.0693,4.1278,4.1913,6.7913,6.7755,6.7597,6.7028,6.6012,6.5211,6.4977,6.4056,6.3313,6.3108,6.3108,6.3108,6.3108,6.3108,6.3108,6.3108,6.3108,6.3194,6.3424,6.3738,6.4047,6.4356,6.4635,6.486,6.4888,6.486,6.4663,6.4326,6.3764,6.3481,6.3453,6.3223,6.3108,6.3108,6.3108,6.3108,6.3108,6.3108,6.3108,6.3108,6.3108,6.2876,6.2498,6.2204,6.188,6.1494,6.1283,6.1193,6.1103,6.0438,6.0224,5.9988,5.8802,5.8727,5.898,5.8559,5.8362,5.8334,5.8418,5.7951,5.713,5.5838,5.4649,5.3502,5.2304,5.1446,5.0717,5.0062,5.0359,5.0941,5.1409,5.1854,5.1906,5.1124,4.9497,4.8023,4.7313,4.4922,4.3412,4.3845,4.3735,4.3699,4.3897,4.3808,4.3375,4.2629,4.0837,4.0147,4.0956,3.9642,3.9263,4.0197,3.9987,3.978,3.9559,4.0157,4.055,4.0785,4.115,4.1532,4.1877,4.2246,4.2177,4.1786,4.2036,4.2046,4.192,4.1836,4.1696,4.1442,4.1442,4.1115,4.0639,4.0639,4.1378,4.2518,6.864,6.8513,6.8482,6.8387,6.7778,6.6979,6.5892,6.5153,6.4314,6.3225,6.3108,6.3108,6.3108,6.3108,6.3108,6.3108,6.3108,6.3108,6.3165,6.3424,6.3738,6.4078,6.4328,6.4607,6.4888,6.4607,6.4356,6.4078,6.3679,6.3395,6.3165,6.3108,6.3108,6.3108,6.3108,6.3108,6.3108,6.3108,6.3108,6.3108,6.3108,6.273,6.2175,6.2116,6.1761,6.1253,6.1223,6.1193,6.1103,6.0438,6.0224,6.0073,5.931,5.8783,5.8531,5.8952,5.8699,5.8418,5.8924,5.8564,5.7764,5.6464,5.5454,5.443,5.2961,5.1961,5.102,5.0076,5.0871,5.176,5.1869,5.241,5.2056,4.9518,4.8873,4.7679,4.4811,4.4673,4.4603,4.3955,4.4402,4.4761,4.4821,4.445,4.4109,4.3927,4.295,4.2352,4.2487,4.1767,4.1416,4.1567,4.1005,4.0588,4.0335,4.0772,4.0897,4.0785,4.115,4.1659,4.231,4.2358,4.2655,4.3073,4.2872,4.2823,4.2882,4.2587,4.2273,4.2078,4.2078,4.1713,4.1169,4.1169,4.2113,4.3441,6.9367,6.924,6.9114,6.8766,6.8206,6.7411,6.6283,6.5623,6.4924,6.3979,6.3861,6.3801,6.3617,6.3558,6.3467,6.3138,6.3108,6.3108,6.3108,6.3367,6.3567,6.3738,6.4019,6.4244,6.4415,6.4075,6.3849,6.3738,6.3453,6.3223,6.3108,6.3108,6.3108,6.3108,6.3108,6.3108,6.3108,6.3108,6.3108,6.3108,6.3108,6.2701,6.2116,6.2116,6.1732,6.1193,6.1193,6.1193,6.1103,6.0438,6.0224,6.0102,5.9392,5.9008,5.884,5.9121,5.9008,5.8747,5.8683,5.8451,5.7984,5.704,5.5892,5.4671,5.3466,5.2452,5.1631,5.1091,5.1681,5.2481,5.3171,5.3343,5.2976,5.1664,5.0197,4.8415,4.6171,4.5674,4.5229,4.4343,4.5088,4.5686,4.5697,4.5265,4.5,4.4949,4.3895,4.3217,4.3177,4.2611,4.2246,4.2197,4.1536,4.1336,4.1634,4.1752,4.1716,4.1523,4.1893,4.2077,4.2103,4.2485,4.2818,4.312,4.3152,4.3294,4.3484,4.3191,4.2879,4.2705,4.2705,4.231,4.1876,4.2458,4.327,4.423,7.009,6.9963,6.9805,6.9272,6.8788,6.8109,6.7045,6.6525,6.5971,6.5172,6.4875,6.4666,6.4452,6.4275,6.3948,6.3588,6.3528,6.3468,6.3347,6.3491,6.3603,6.351,6.3823,6.3993,6.3993,6.3681,6.351,6.351,6.3223,6.3108,6.3108,6.3108,6.3108,6.3108,6.3108,6.3108,6.3108,6.3108,6.3108,6.3108,6.3108,6.2701,6.2116,6.2116,6.1732,6.1193,6.1193,6.1193,6.1103,6.0438,6.0224,6.0102,5.9392,5.9174,5.9174,5.9174,5.9174,5.9049,5.8388,5.8198,5.8039,5.7367,5.6053,5.477,5.407,5.3168,5.2474,5.2506,5.3029,5.3764,5.4591,5.4554,5.4124,5.3324,5.1164,4.9094,4.763,4.6632,4.5869,4.5297,4.6147,4.6695,4.6495,4.6157,4.5826,4.5607,4.4617,4.3989,4.3948,4.3389,4.2998,4.286,4.2253,4.2155,4.2582,4.269,4.2558,4.2319,4.2693,4.2598,4.2147,4.2725,4.3008,4.3009,4.3295,4.3613,4.3861,4.3645,4.3425,4.33,4.3569,4.3338,4.2944,4.406,4.4887,4.5579,7.0754,7.0722,7.0722,7.0659,7.0631,7.0126,6.8817,6.8582,6.8109,6.6893,6.5994,6.5525,6.5818,6.5023,6.4576,6.4845,6.4845,6.4575,6.3977,6.3946,6.3823,6.351,6.3823,6.3993,6.3993,6.3681,6.351,6.351,6.3223,6.3108,6.3108,6.3108,6.3108,6.3108,6.3108,6.3108,6.3108,6.3108,6.3108,6.3108,6.3108,6.2701,6.2116,6.2116,6.1732,6.1193,6.1193,6.1193,6.1103,6.0438,6.0224,6.0102,5.9392,5.9174,5.9174,5.9174,5.9174,5.9049,5.8388,5.8198,5.8039,5.7367,5.5947,5.4791,5.5117,5.4309,5.3655,5.419,5.5286,5.6029,5.5729,5.5979,5.5126,5.1806,5.0326,4.8963,4.7127,4.6684,4.6777,4.738,4.7941,4.7906,4.7038,4.6943,4.6527,4.5695,4.5519,4.5407,4.5342,4.4807,4.4366,4.4282,4.3617,4.3066,4.2582,4.3287,4.3357,4.2955,4.3302,4.3342,4.3118,4.3167,4.3242,4.3375,4.339,4.3613,4.3877,4.3861,4.3861,4.3931,4.5004,4.5095,4.4758,4.588,4.7133,4.8247,7.0448,7.0504,7.0363,6.9961,7.0391,7.0212,6.852,6.872,6.8801,6.7947,6.6972,6.6343,6.6249,6.5382,6.4688,6.4424,6.4576,6.4576,6.4338,6.4516,6.4185,6.3282,6.3367,6.3453,6.3453,6.3338,6.3252,6.3252,6.3165,6.3108,6.3108,6.3108,6.3108,6.3108,6.3108,6.3108,6.3108,6.3108,6.3108,6.3108,6.3108,6.2701,6.2116,6.2116,6.1732,6.1193,6.1193,6.1193,6.1103,6.0438,6.0224,6.0102,5.9392,5.9174,5.9174,5.9174,5.9174,5.908,5.8641,5.8357,5.8122,5.783,5.6738,5.5844,5.6262,5.5477,5.4741,5.509,5.5819,5.634,5.6091,5.6551,5.6042,5.3205,5.2559,5.158,4.9185,4.8885,4.8821,4.8541,4.8421,4.8265,4.79,4.7334,4.6876,4.6483,4.6147,4.596,4.5936,4.5359,4.522,4.5709,4.5067,4.4435,4.3915,4.4117,4.4059,4.3791,4.3925,4.3753,4.3375,4.3604,4.367,4.3579,4.3788,4.3917,4.3877,4.3877,4.4307,4.5004,4.5432,4.5896,4.6535,4.7889,4.8695,4.9198,7.073,7.0791,7.0466,6.9491,7.0216,7.0326,6.8475,6.9093,6.9614,6.9211,6.8297,6.7517,6.7063,6.616,6.5339,6.4681,6.4835,6.4898,6.4661,6.4755,6.4487,6.3737,6.3468,6.3407,6.3407,6.3197,6.3108,6.3108,6.3108,6.3108,6.3108,6.3108,6.305,6.2934,6.2934,6.2876,6.2789,6.2789,6.2789,6.2789,6.2789,6.2439,6.1939,6.1939,6.1642,6.1193,6.1193,6.1193,6.1103,6.0438,6.0224,6.0102,5.9392,5.9174,5.923,5.9426,5.9483,5.942,5.9046,5.8868,5.8677,5.8341,5.7591,5.7067,5.7599,5.6894,5.6247,5.6684,5.6868,5.6897,5.6692,5.6738,5.6224,5.4305,5.3702,5.2765,5.081,5.0538,5.0259,4.9519,4.9196,4.8919,4.8632,4.7768,4.7197,4.7185,4.6714,4.6472,4.6607,4.6498,4.6513,4.669,4.6374,4.5914,4.5375,4.5069,4.4797,4.4565,4.4565,4.4245,4.3737,4.3987,4.3993,4.3852,4.4702,4.4959,4.4842,4.5457,4.6093,4.6677,4.7048,4.7578,4.8263,4.9812,5.0277,5.0366,7.1752,7.1908,7.1363,6.9606,7.0405,7.0743,6.9065,6.993,7.0789,7.0789,6.9933,6.9063,6.8446,6.7487,6.6632,6.6039,6.5976,6.5713,6.5064,6.472,6.4665,6.4994,6.4366,6.4006,6.4006,6.3408,6.3108,6.3079,6.3079,6.3108,6.3079,6.3079,6.2905,6.2585,6.2585,6.241,6.2116,6.2116,6.2116,6.2116,6.2116,6.188,6.1613,6.1613,6.1434,6.1193,6.1193,6.1193,6.1103,6.0438,6.0224,6.0102,5.9392,5.9174,5.9314,5.9904,6.01,6.0037,5.9687,5.9811,5.979,5.8826,5.8369,5.8337,5.9119,5.8569,5.819,5.9085,5.8735,5.8079,5.7675,5.6613,5.5481,5.4532,5.3112,5.197,5.1498,5.1231,5.0946,5.0469,5.0418,5.0061,4.9187,4.8263,4.7665,4.7601,4.7155,4.7081,4.748,4.83,4.8291,4.7231,4.7568,4.7454,4.6914,4.6217,4.5658,4.5121,4.5121,4.4818,4.4312,4.4312,4.4192,4.4131,4.6149,4.6889,4.6887,4.8943,4.9469,4.9121,5.0254,5.0324,5.0013,5.1532,5.201,5.1937,7.0776,7.124,7.1095,6.9607,7.026,7.055,6.9419,7.0126,7.107,7.1774,7.0394,6.9184,6.8819,6.7193,6.5972,6.5343,6.5507,6.5668,6.5681,6.5629,6.5604,6.5696,6.5053,6.4576,6.4368,6.4189,6.3773,6.3091,6.3091,6.2854,6.241,6.241,6.2351,6.2234,6.2234,6.2204,6.2116,6.2116,6.2116,6.2116,6.2116,6.188,6.1583,6.1404,6.1104,6.0802,6.059,6.0499,6.0438,5.9979,5.9825,5.9763,5.9329,5.9174,5.9314,5.9904,6.01,6.0185,6.0566,6.0645,6.0392,5.9451,5.929,5.9458,5.9828,5.9515,5.9008,5.8803,5.799,5.7219,5.6774,5.6341,5.5568,5.4012,5.3727,5.3227,5.1836,5.1592,5.1405,5.0965,5.0885,5.0549,4.9614,4.9262,4.8815,4.8149,4.7928,4.8112,4.885,4.8833,4.8889,4.9177,4.8912,4.8513,4.7905,4.6957,4.6211,4.5658,4.5658,4.5356,4.4869,4.4869,4.5343,4.628,4.6893,4.7667,4.8552,4.9463,5.0038,5.0351,5.1007,5.1396,5.1734,5.2792,5.2867,5.2576,7.0512,7.0944,7.0766,6.9276,6.9904,7.0226,6.8968,6.971,7.0573,7.1052,7.0097,6.9058,6.8318,6.715,6.6193,6.5618,6.5851,6.6052,6.5948,6.6107,6.6052,6.5819,6.5519,6.5199,6.472,6.4423,6.4037,6.3471,6.3471,6.3236,6.2823,6.2587,6.241,6.2262,6.2027,6.1762,6.1553,6.1553,6.1493,6.1345,6.1345,6.1225,6.1045,6.0863,6.0681,6.0469,6.0285,6.0224,6.0163,5.9794,5.9606,5.9482,5.9236,5.9342,5.9679,6.0297,6.0494,6.0666,6.1284,6.1183,6.0756,6.0199,6.0149,6.0151,5.982,5.9315,5.8726,5.8007,5.7004,5.6227,5.6149,5.5743,5.5099,5.4192,5.3923,5.3479,5.2406,5.2135,5.1874,5.1455,5.1396,5.1166,5.057,5.0219,4.97,4.8912,4.8811,4.9046,4.9753,4.95,4.9576,4.9992,4.9894,4.9568,4.8928,4.8304,4.736,4.6211,4.6211,4.5909,4.5457,4.611,4.6717,4.7415,4.8813,4.9859,5.0654,5.1777,5.2437,5.2731,5.298,5.3115,5.3127,5.3747,5.3524,5.2969,7.0705,7.0859,7.0403,6.8788,6.9545,6.9808,6.8181,6.8951,6.9548,6.9244,6.9184,6.8661,6.736,6.7185,6.6919,6.6388,6.6619,6.6556,6.5976,6.6238,6.6169,6.5616,6.587,6.5704,6.4996,6.4411,6.4088,6.3999,6.3968,6.3939,6.388,6.3291,6.2816,6.2515,6.1902,6.131,6.0737,6.0737,6.0526,6.0224,6.0224,6.0224,6.0224,6.0194,6.0163,6.0163,6.0132,6.0132,6.0071,5.9732,5.9451,5.9174,5.9174,5.9595,6.0213,6.0891,6.1144,6.1312,6.1898,6.148,6.086,6.0772,6.0634,6.0246,5.9219,5.8373,5.7611,5.6955,5.583,5.5145,5.5713,5.4804,5.417,5.4733,5.3865,5.3116,5.3157,5.275,5.2336,5.1982,5.1933,5.1916,5.1873,5.1048,5.0384,4.9939,4.9791,4.9888,5.0231,5.0311,5.0267,5.0147,5.0551,5.0519,4.998,4.998,4.8898,4.6811,4.6811,4.6611,4.6211,4.7641,4.8168,4.8187,5.1375,5.2817,5.3083,5.502,5.5715,5.5618,5.5658,5.5072,5.4196,5.4595,5.4079,5.3201,7.009,7.0551,7.0614,6.9728,6.9845,6.9635,6.8455,6.8516,6.8667,6.8619,6.8331,6.7923,6.7412,6.7091,6.6634,6.6013,6.5989,6.6098,6.6281,6.6351,6.6326,6.6211,6.6247,6.5893,6.4936,6.5102,6.4771,6.4023,6.3743,6.3386,6.2894,6.2469,6.2196,6.2104,6.1961,6.1583,6.1001,6.1001,6.0684,6.0224,6.0224,6.0224,6.0194,5.9917,5.9823,5.9763,5.9516,5.9423,5.9392,5.9329,5.9236,5.9174,5.9174,5.9595,6.0213,6.0891,6.1425,6.1893,6.2218,6.1522,6.0573,5.9813,5.9073,5.8586,5.8938,5.7921,5.6823,5.6379,5.5102,5.4255,5.4846,5.3983,5.3478,5.4378,5.4011,5.3606,5.3637,5.3292,5.2992,5.2908,5.2902,5.2757,5.2391,5.1532,5.106,5.1355,5.094,5.0716,5.0734,5.1075,5.1243,5.1076,5.1192,5.1037,5.0519,5.0519,4.9667,4.7939,4.7939,4.8069,4.8348,4.8317,4.9531,5.1755,5.2183,5.3209,5.4722,5.5535,5.5861,5.5795,5.609,5.583,5.5334,5.5774,5.5215,5.4189,6.9487,6.9458,6.9275,6.8577,6.8183,6.7817,6.7294,6.7201,6.7129,6.6926,6.672,6.6607,6.6596,6.6395,6.6321,6.6464,6.6605,6.6661,6.6605,6.661,6.6467,6.6118,6.6089,6.5879,6.5336,6.552,6.508,6.4025,6.3804,6.3597,6.3249,6.2743,6.2476,6.2476,6.2162,6.1725,6.1285,6.1285,6.1021,6.0611,6.0299,6.0127,6.0098,5.9629,5.9482,5.9451,5.9236,5.9174,5.9174,5.9174,5.9174,5.923,5.9539,6.0076,6.069,6.134,6.1632,6.1776,6.1918,6.0813,5.9555,5.9358,5.7992,5.675,5.7178,5.6558,5.5669,5.4975,5.4031,5.3486,5.4092,5.3707,5.352,5.4278,5.4211,5.4098,5.4142,5.3767,5.3509,5.3541,5.3534,5.343,5.3211,5.2698,5.2413,5.2444,5.1984,5.1794,5.1926,5.1713,5.1669,5.1794,5.1523,5.128,5.1037,5.1037,5.05,4.947,4.9648,4.9776,4.9806,5.0803,5.2016,5.3316,5.382,5.4697,5.5877,5.6161,5.6321,5.6506,5.6682,5.6434,5.6001,5.6244,5.5958,5.5377,6.9032,6.836,6.7716,6.7178,6.6533,6.6033,6.5962,6.596,6.5816,6.5269,6.531,6.5464,6.5659,6.5815,6.6172,6.7021,6.7362,6.7341,6.6891,6.6862,6.6605,6.6063,6.6035,6.5973,6.5791,6.5791,6.5288,6.4312,6.4132,6.4071,6.4042,6.3317,6.3,6.2972,6.2399,6.1958,6.1589,6.1589,6.1401,6.1059,6.0494,6.0269,6.0213,5.9739,5.9458,5.9342,5.9342,5.9286,5.9202,5.9314,5.9286,5.9345,6.0044,6.0666,6.1228,6.172,6.1743,6.1535,6.1331,5.9918,5.8549,5.8802,5.7197,5.5534,5.5465,5.511,5.4556,5.3751,5.3225,5.303,5.3463,5.3635,5.3842,5.4324,5.4416,5.4431,5.4471,5.4217,5.4024,5.4024,5.4017,5.404,5.4033,5.4052,5.3865,5.3481,5.3078,5.2961,5.3214,5.2436,5.2064,5.2326,5.1814,5.1523,5.1523,5.1426,5.1183,5.0842,5.1552,5.1678,5.1221,5.346,5.4387,5.4292,5.5575,5.6372,5.6765,5.6759,5.697,5.7335,5.7235,5.6935,5.6534,5.6515,5.6477,5.6475,6.9032,6.836,6.7865,6.7775,6.7152,6.6571,6.6309,6.6265,6.5897,6.4973,6.5317,6.5643,6.5702,6.6145,6.6546,6.6665,6.6735,6.6882,6.711,6.7144,6.7116,6.7002,6.7002,6.6575,6.5728,6.5728,6.5635,6.5565,6.4752,6.433,6.4302,6.3348,6.2901,6.2901,6.2816,6.2479,6.1939,6.1939,6.1598,6.1088,6.1003,6.0975,6.0947,6.0863,6.0497,5.9988,5.9988,5.9623,5.9258,5.9792,5.9623,5.943,6.0582,6.1031,6.1135,6.1398,6.1857,6.1975,6.0722,5.9651,5.8629,5.7456,5.6862,5.6529,5.6145,5.4982,5.401,5.4208,5.3747,5.3288,5.3059,5.3383,5.3842,5.4324,5.4416,5.4398,5.4426,5.4766,5.4871,5.4472,5.452,5.4587,5.4608,5.4599,5.4566,5.4496,5.4376,5.4117,5.3752,5.3576,5.3316,5.2896,5.2346,5.2104,5.2104,5.162,5.1377,5.1328,5.3192,5.3794,5.3296,5.4149,5.5215,5.6389,5.6554,5.6878,5.7297,5.7298,5.7514,5.7834,5.7385,5.7185,5.7077,5.7014,5.6995,5.7026,6.9142,6.8086,6.7206,6.6851,6.5834,6.5187,6.5439,6.5452,6.5317,6.4871,6.5028,6.5337,6.5674,6.623,6.6595,6.6595,6.6595,6.6665,6.684,6.684,6.684,6.684,6.684,6.6657,6.6236,6.6173,6.6235,6.6263,6.5165,6.4618,6.4618,6.4195,6.3954,6.3926,6.3588,6.3251,6.2998,6.2661,6.2347,6.2099,6.1762,6.1593,6.1565,6.1228,6.0919,6.0666,6.0666,6.0273,5.9735,6.0016,5.9904,5.9848,6.0807,6.1183,6.1296,6.1411,6.1608,6.1504,6.0151,5.9363,5.874,5.8003,5.7398,5.7171,5.7913,5.6704,5.5485,5.5782,5.5419,5.4947,5.4501,5.485,5.499,5.4492,5.4898,5.5265,5.5265,5.5465,5.548,5.5061,5.5048,5.5005,5.4741,5.4933,5.4991,5.4676,5.4845,5.4874,5.4642,5.4121,5.3828,5.3835,5.3068,5.2655,5.2655,5.2104,5.1862,5.1862,5.3068,5.3835,5.4197,5.5572,5.6684,5.7597,5.6602,5.6487,5.6899,5.6866,5.6929,5.7144,5.7514,5.7485,5.7227,5.745,5.7729,5.7986]},{"header":{"parameterUnit":"m.s-1","parameterCategory":1,"la1":30.6,"la2":28.766,"lo1":-90.7593,"lo2":-88.6598,"dy":0.0162,"dx":0.0183,"nx":116,"ny":114,"refTime":"2023-04-10T12:00:00:Z","depth":0,"parameterNumber":3,"parameterNumberName":"V-component_of_WINDS"},"data":[0.0,0.0,0.0,0.0,0.0,0.0,0.0,0.0,0.0,0.0,0.0,0.0,0.0,0.0,0.0,0.0,0.0,0.0,0.0,0.0,0.0,0.0,0.0,0.0,0.0,0.0,0.0,0.0,0.0,0.0,0.0,0.0,0.0,0.0,0.0,0.0,0.0,0.0,0.0,0.0,0.0,0.0,0.0,0.0,0.0,0.0,0.0,0.0,0.0,0.0,0.0,0.0,0.0,0.0,0.0,0.0,0.0,0.0,0.0,0.0,0.0,0.0,0.0,0.0,0.0,0.0,0.0,0.0,0.0,0.0,0.0,0.0,0.0,0.0,0.0,0.0,0.0,0.0,0.0,0.0,0.0,0.0,0.0,0.0,0.0,0.0,0.0,0.0,0.0,0.0,0.0,0.0,0.0,0.0,0.0,0.0,0.0,0.0,0.0,0.0,0.0,0.0,0.0,0.0,0.0,0.0,0.0,0.0,0.0,0.0,0.0,0.0,0.0,0.0,0.0,0.0,0.0,0.0,0.0,0.0,0.0,0.0,0.0,0.0,0.0,0.0,0.0,0.0,0.0,0.0,0.0,0.0,0.0,0.0,0.0,0.0,0.0,0.0,0.0,0.0,0.0,0.0,0.0,0.0,0.0,0.0,0.0,0.0,0.0,0.0,0.0,0.0,0.0,0.0,0.0,0.0,0.0,0.0,0.0,0.0,0.0,0.0,0.0,0.0,0.0,0.0,0.0,0.0,0.0,0.0,0.0,0.0,0.0,0.0,0.0,0.0,0.0,0.0,0.0,0.0,0.0,0.0,0.0,0.0,0.0,0.0,0.0,0.0,0.0,0.0,0.0,0.0,0.0,0.0,0.0,0.0,0.0,0.0,0.0,0.0,0.0,0.0,0.0,0.0,0.0,0.0,0.0,0.0,0.0,0.0,0.0,0.0,0.0,0.0,0.0,0.0,0.0,0.0,0.0,0.0,0.0,0.0,0.0,0.0,0.0,0.0,0.0,0.0,0.0,0.0,0.0,0.0,0.0,0.0,0.0,0.0,0.0,0.0,0.0,0.0,0.0,0.0,0.0,0.0,0.0,0.0,0.0,0.0,0.0,0.0,0.0,0.0,0.0,0.0,0.0,0.0,0.0,0.0,0.0,0.0,0.0,0.0,0.0,0.0,0.0,0.0,0.0,0.0,0.0,0.0,0.0,0.0,0.0,0.0,0.0,0.0,0.0,0.0,0.0,0.0,0.0,0.0,0.0,0.0,0.0,0.0,0.0,0.0,0.0,0.0,0.0,0.0,0.0,0.0,0.0,0.0,0.0,0.0,0.0,0.0,0.0,0.0,0.0,0.0,0.0,0.0,0.0,0.0,0.0,0.0,0.0,0.0,0.0,0.0,0.0,0.0,0.0,0.0,0.0,0.0,0.0,0.0,0.0,0.0,0.0,0.0,0.0,0.0,0.0,0.0,0.0,0.0,0.0,0.0,0.0,0.0,0.0,0.0,0.0,0.0,0.0,0.0,0.0,0.0,0.0,0.0,0.0,0.0,0.0,0.0,0.0,0.0,0.0,0.0,0.0,0.0,0.0,0.0,0.0,0.0,0.0,0.0,0.0,0.0,0.0,0.0,0.0,0.0,0.0,0.0,0.0,0.0,0.0,0.0,0.0,0.0,0.0,0.0,0.0,0.0,0.0,0.0,0.0,0.0,0.0,0.0,0.0,0.0,0.0,0.0,0.0,0.0,0.0,0.0,0.0,0.0,0.0,0.0,0.0,0.0,0.0,0.0,0.0,0.0,0.0,0.0,0.0,0.0,0.0,0.0,0.0,0.0,0.0,0.0,0.0,0.0,0.0,0.0,0.0,0.0,0.0,0.0,0.0,0.0,0.0,0.0,0.0,0.0,0.0,0.0,0.0,0.0,0.0,0.0,0.0,0.0,0.0,0.0,0.0,0.0,0.0,0.0,0.0,0.0,0.0,0.0,0.0,0.0,0.0,0.0,0.0,0.0,0.0,0.0,0.0,0.0,0.0,0.0,0.0,0.0,0.0,0.0,0.0,0.0,0.0,0.0,0.0,0.0,0.0,0.0,0.0,0.0,0.0,0.0,0.0,0.0,0.0,0.0,0.0,0.0,0.0,0.0,0.0,0.0,0.0,0.0,0.0,0.0,0.0,0.0,0.0,0.0,0.0,0.0,0.0,0.0,0.0,0.0,0.0,0.0,0.0,0.0,0.0,0.0,0.0,0.0,0.0,0.0,0.0,0.0,0.0,0.0,0.0,0.0,0.0,0.0,0.0,0.0,0.0,0.0,0.0,0.0,0.0,0.0,0.0,0.0,0.0,0.0,0.0,0.0,0.0,0.0,0.0,0.0,0.0,0.0,0.0,0.0,0.0,0.0,0.0,0.0,0.0,0.0,0.0,0.0,0.0,0.0,0.0,0.0,0.0,0.0,0.0,0.0,0.0,0.0,0.0,0.0,0.0,0.0,0.0,0.0,0.0,0.0,0.0,0.0,0.0,0.0,0.0,0.0,0.0,0.0,0.0,0.0,0.0,0.0,0.0,0.0,0.0,0.0,0.0,0.0,0.0,0.0,0.0,0.0,0.0,0.0,0.0,0.0,0.0,0.0,0.0,0.0,0.0,0.0,0.0,0.0,0.0,0.0,0.0,0.0,0.0,0.0,0.0,0.0,0.0,0.0,0.0,0.0,0.0,0.0,0.0,0.0,0.0,0.0,0.0,0.0,0.0,0.0,0.0,0.0,0.0,0.0,0.0,0.0,0.0,0.0,0.0,0.0,0.0,0.0,0.0,0.0,0.0,0.0,0.0,0.0,0.0,0.0,0.0,0.0,0.0,0.0,0.0,0.0,0.0,0.0,0.0,0.0,0.0,0.0,0.0,0.0,0.0,0.0,0.0,0.0,0.0,0.0,0.0,0.0,0.0,0.0,0.0,0.0,0.0,0.0,0.0,0.0,0.0,0.0,0.0,0.0,0.0,0.0,0.0,0.0,0.0,0.0,0.0,0.0,0.0,0.0,0.0,0.0,0.0,0.0,0.0,0.0,0.0,0.0,0.0,0.0,0.0,0.0,0.0,0.0,0.0,0.0,0.0,0.0,0.0,0.0,0.0,0.0,0.0,0.0,0.0,0.0,0.0,0.0,0.0,0.0,0.0,0.0,0.0,0.0,0.0,0.0,0.0,0.0,0.0,0.0,0.0,0.0,0.0,0.0,0.0,0.0,0.0,0.0,0.0,0.0,0.0,0.0,0.0,0.0,0.0,0.0,0.0,0.0,0.0,0.0,0.0,0.0,0.0,0.0,0.0,0.0,0.0,0.0,0.0,0.0,0.0,0.0,0.0,0.0,0.0,0.0,0.0,0.0,0.0,0.0,0.0,0.0,0.0,0.0,0.0,0.0,0.0,0.0,0.0,0.0,0.0,0.0,0.0,0.0,0.0,0.0,0.0,0.0,0.0,0.0,0.0,0.0,0.0,0.0,0.0,0.0,0.0,0.0,0.0,0.0,0.0,0.0,0.0,0.0,0.0,0.0,0.0,0.0,0.0,0.0,0.0,0.0,0.0,0.0,0.0,0.0,0.0,0.0,0.0,0.0,0.0,0.0,0.0,0.0,0.0,0.0,0.0,0.0,0.0,0.0,0.0,0.0,0.0,0.0,0.0,0.0,0.0,0.0,0.0,0.0,0.0,0.0,0.0,0.0,0.0,0.0,0.0,0.0,0.0,0.0,0.0,0.0,0.0,0.0,0.0,0.0,0.0,0.0,0.0,0.0,0.0,0.0,0.0,0.0,0.0,0.0,0.0,0.0,0.0,0.0,0.0,0.0,0.0,0.0,0.0,0.0,0.0,0.0,0.0,0.0,0.0,0.0,0.0,0.0,0.0,0.0,0.0,0.0,0.0,0.0,0.0,0.0,0.0,0.0,0.0,0.0,0.0,0.0,0.0,0.0,0.0,0.0,0.0,0.0,0.0,0.0,0.0,0.0,0.0,0.0,0.0,0.0,0.0,0.0,0.0,0.0,0.0,0.0,0.0,0.0,0.0,0.0,0.0,0.0,0.0,0.0,0.0,0.0,0.0,0.0,0.0,0.0,0.0,0.0,0.0,0.0,0.0,0.0,0.0,0.0,0.0,0.0,0.0,0.0,0.0,0.0,0.0,0.0,0.0,0.0,0.0,0.0,0.0,0.0,0.0,0.0,0.0,0.0,0.0,0.0,0.0,0.0,0.0,0.0,0.0,0.0,0.0,0.0,0.0,0.0,0.0,0.0,0.0,0.0,0.0,0.0,0.0,0.0,0.0,0.0,0.0,0.0,0.0,0.0,0.0,0.0,0.0,0.0,0.0,0.0,0.0,0.0,0.0,0.0,0.0,0.0,0.0,0.0,0.0,0.0,0.0,0.0,0.0,0.0,0.0,0.0,0.0,0.0,0.0,0.0,0.0,0.0,0.0,0.0,0.0,0.0,0.0,0.0,0.0,0.0,0.0,0.0,0.0,0.0,0.0,0.0,0.0,0.0,0.0,0.0,0.0,0.0,0.0,0.0,0.0,0.0,0.0,0.0,0.0,0.0,0.0,0.0,0.0,0.0,0.0,0.0,0.0,0.0,0.0,0.0,0.0,0.0,0.0,0.0,0.0,0.0,0.0,0.0,0.0,0.0,0.0,0.0,0.0,0.0,0.0,0.0,0.0,0.0,0.0,0.0,0.0,0.0,0.0,0.0,0.0,0.0,0.0,0.0,0.0,0.0,0.0,0.0,0.0,0.0,0.0,0.0,0.0,0.0,0.0,0.0,0.0,0.0,0.0,0.0,0.0,0.0,0.0,0.0,0.0,0.0,0.0,0.0,0.0,0.0,0.0,0.0,0.0,0.0,0.0,0.0,0.0,0.0,0.0,0.0,0.0,0.0,0.0,0.0,0.0,0.0,0.0,0.0,0.0,0.0,0.0,0.0,0.0,0.0,0.0,0.0,0.0,0.0,0.0,0.0,0.0,0.0,0.0,0.0,0.0,0.0,0.0,0.0,0.0,0.0,0.0,0.0,0.0,0.0,0.0,0.0,0.0,0.0,0.0,0.0,0.0,0.0,0.0,0.0,0.0,0.0,0.0,0.0,0.0,0.0,0.0,0.0,0.0,0.0,0.0,0.0,0.0,0.0,0.0,0.0,0.0,0.0,0.0,0.0,0.0,0.0,0.0,0.0,0.0,0.0,0.0,0.0,0.0,0.0,0.0,0.0,0.0,0.0,0.0,0.0,0.0,0.0,0.0,0.0,0.0,0.0,0.0,0.0,0.0,0.0,0.0,0.0,0.0,0.0,0.0,0.0,0.0,0.0,0.0,0.0,0.0,0.0,0.0,0.0,0.0,0.0,0.0,0.0,0.0,0.0,0.0,0.0,0.0,0.0,0.0,0.0,0.0,0.0,0.0,0.0,0.0,0.0,0.0,0.0,0.0,0.0,0.0,0.0,0.0,0.0,0.0,0.0,0.0,0.0,0.0,0.0,0.0,0.0,0.0,0.0,0.0,0.0,0.0,0.0,0.0,0.0,0.0,0.0,0.0,0.0,0.0,0.0,0.0,0.0,0.0,0.0,0.0,0.0,0.0,0.0,0.0,0.0,0.0,0.0,0.0,0.0,0.0,0.0,0.0,0.0,0.0,0.0,0.0,0.0,0.0,0.0,0.0,0.0,0.0,0.0,0.0,0.0,0.0,0.0,0.0,0.0,0.0,0.0,0.0,0.0,0.0,0.0,0.0,0.0,0.0,0.0,0.0,0.0,0.0,0.0,0.0,0.0,0.0,0.0,0.0,0.0,0.0,0.0,0.0,0.0,0.0,0.0,0.0,0.0,0.0,0.0,0.0,0.0,0.0,0.0,0.0,0.0,0.0,0.0,0.0,0.0,0.0,0.0,0.0,0.0,0.0,0.0,0.0,0.0,0.0,0.0,0.0,0.0,0.0,0.0,0.0,0.0,0.0,0.0,0.0,0.0,0.0,0.0,0.0,0.0,0.0,0.0,0.0,0.0,0.0,0.0,0.0,0.0,0.0,0.0,0.0,0.0,0.0,0.0,0.0,0.0,0.0,0.0,0.0,0.0,0.0,0.0,5.3293,4.9874,0.0,0.0,0.0,0.0,0.0,0.0,0.0,0.0,0.0,0.0,0.0,0.0,0.0,0.0,0.0,0.0,0.0,0.0,0.0,0.0,0.0,0.0,0.0,0.0,0.0,0.0,0.0,0.0,0.0,0.0,0.0,0.0,0.0,0.0,0.0,0.0,0.0,0.0,2.6531,2.9222,3.2272,3.2228,3.0508,2.7512,0.0,0.0,0.0,0.0,0.0,0.0,0.0,0.0,0.0,0.0,0.0,0.0,0.0,0.0,0.0,0.0,0.0,0.0,0.0,0.0,0.0,0.0,0.0,0.0,0.0,0.0,0.0,0.0,0.0,0.0,0.0,0.0,0.0,0.0,0.0,0.0,0.0,0.0,0.0,0.0,0.0,0.0,0.0,0.0,0.0,0.0,0.0,0.0,0.0,0.0,0.0,0.0,0.0,0.0,0.0,0.0,0.0,0.0,0.0,0.0,0.0,0.0,0.0,0.0,0.0,0.0,0.0,0.0,0.0,0.0,5.6839,5.4948,0.0,0.0,0.0,0.0,0.0,0.0,0.0,0.0,0.0,0.0,0.0,0.0,0.0,0.0,0.0,0.0,0.0,0.0,0.0,0.0,0.0,0.0,0.0,2.2449,2.2586,2.2444,2.2603,2.2621,0.0,0.0,0.0,0.0,0.0,0.0,0.0,2.4423,2.512,2.6482,3.0654,3.4893,3.9196,4.022,3.7622,3.2038,3.0633,0.0,0.0,0.0,0.0,0.0,0.0,0.0,0.0,0.0,0.0,0.0,0.0,0.0,0.0,0.0,0.0,0.0,0.0,0.0,0.0,0.0,0.0,0.0,0.0,0.0,0.0,0.0,0.0,0.0,0.0,0.0,0.0,0.0,0.0,0.0,0.0,0.0,0.0,0.0,0.0,0.0,0.0,0.0,0.0,0.0,0.0,0.0,0.0,0.0,0.0,0.0,0.0,0.0,0.0,0.0,0.0,0.0,0.0,0.0,0.0,0.0,0.0,0.0,5.9917,6.0496,6.0619,6.069,6.0846,6.1054,6.1357,6.1393,6.1118,5.9069,0.0,0.0,0.0,0.0,0.0,0.0,0.0,0.0,0.0,0.0,0.0,0.0,0.0,0.0,0.0,0.0,0.0,0.0,0.0,0.0,0.0,2.2652,2.2999,2.33,2.3143,2.3159,2.3482,0.0,0.0,0.0,0.0,0.0,2.5546,2.5795,2.7767,3.1557,3.7066,4.0615,4.2212,4.198,4.193,4.1944,4.0323,3.8342,3.6209,0.0,0.0,0.0,0.0,0.0,0.0,0.0,0.0,0.0,0.0,0.0,0.0,0.0,0.0,0.0,0.0,0.0,0.0,0.0,0.0,0.0,0.0,0.0,0.0,0.0,0.0,0.0,0.0,0.0,0.0,0.0,0.0,0.0,0.0,0.0,0.0,0.0,0.0,0.0,0.0,0.0,4.9038,5.1857,0.0,0.0,0.0,0.0,0.0,0.0,0.0,0.0,0.0,0.0,0.0,0.0,0.0,5.86,5.8254,6.1392,6.2894,6.2703,6.5708,6.7132,6.7163,6.7461,6.7615,6.7553,6.5721,0.0,6.3824,6.2802,0.0,0.0,0.0,0.0,0.0,0.0,0.0,0.0,0.0,0.0,0.0,0.0,0.0,0.0,0.0,0.0,0.0,0.0,0.0,0.0,0.0,2.5104,2.6569,2.6585,2.9002,2.9624,2.7491,2.797,0.0,0.0,0.0,2.6574,2.6815,2.7623,3.1242,3.7793,4.227,4.5796,4.8358,4.8531,4.889,4.9407,4.9423,4.6142,4.0537,3.9733,0.0,0.0,0.0,0.0,0.0,0.0,0.0,0.0,0.0,0.0,0.0,0.0,0.0,0.0,0.0,0.0,0.0,0.0,0.0,0.0,0.0,0.0,0.0,0.0,0.0,0.0,0.0,0.0,0.0,0.0,0.0,0.0,0.0,0.0,0.0,0.0,0.0,0.0,0.0,4.9372,5.2367,5.3838,5.4176,5.3235,0.0,0.0,0.0,0.0,0.0,0.0,0.0,0.0,0.0,6.0249,6.2092,6.3022,6.3057,6.601,6.7389,6.7198,6.8916,6.9862,7.0057,7.065,7.1101,7.1399,7.0892,7.0631,7.0321,6.6302,6.4433,6.3775,0.0,0.0,0.0,0.0,5.6411,5.8119,0.0,0.0,0.0,0.0,0.0,0.0,0.0,0.0,0.0,0.0,0.0,0.0,2.513,2.8916,3.1411,3.1308,3.4559,3.4986,3.1032,3.1501,3.0364,2.6894,2.7254,2.7741,2.8083,3.1117,3.6207,4.3448,4.7162,5.0465,5.3326,5.3717,5.4035,5.4388,5.5387,5.1856,4.5122,4.4893,4.2262,3.8068,0.0,0.0,0.0,0.0,0.0,0.0,0.0,0.0,0.0,0.0,0.0,0.0,0.0,0.0,0.0,0.0,0.0,0.0,0.0,0.0,0.0,0.0,0.0,0.0,0.0,0.0,0.0,0.0,0.0,0.0,0.0,0.0,0.0,0.0,0.0,0.0,0.0,5.2901,5.5631,5.6333,5.7781,5.7561,0.0,0.0,0.0,0.0,0.0,0.0,6.1805,6.2287,6.3132,6.4511,6.6563,6.7702,6.7884,7.0015,7.1019,7.0862,7.1275,7.1629,7.1942,7.2714,7.3281,7.3756,7.4522,7.5006,7.4945,6.9905,6.7494,6.692,6.5957,6.4155,6.1997,6.1175,6.1608,6.2575,0.0,0.0,0.0,0.0,0.0,0.0,0.0,0.0,0.0,0.0,0.0,2.9913,3.0121,3.4245,3.7143,3.7505,3.754,3.6047,3.2602,3.2777,3.142,2.777,2.838,2.9011,2.9397,3.727,4.3424,4.7587,5.1915,5.4357,5.4973,5.4563,5.4974,5.6081,5.6122,5.4335,5.1163,4.9974,4.7973,4.4974,3.8239,0.0,0.0,0.0,0.0,0.0,0.0,0.0,0.0,0.0,0.0,0.0,0.0,0.0,0.0,0.0,0.0,0.0,0.0,0.0,0.0,0.0,0.0,0.0,0.0,0.0,0.0,0.0,0.0,0.0,0.0,0.0,0.0,0.0,0.0,0.0,0.0,0.0,0.0,6.0791,6.425,0.0,0.0,0.0,0.0,6.0623,6.0882,6.2827,6.6911,6.7973,6.9736,7.2535,7.3483,7.3607,7.2955,7.3065,7.3088,7.2952,7.3178,7.3365,7.3582,7.4223,7.4495,7.4555,7.5207,7.5258,7.4867,7.3758,7.3454,7.3222,6.9004,6.6986,6.6034,6.3049,6.398,6.6814,0.0,0.0,0.0,0.0,0.0,0.0,0.0,0.0,2.2958,2.3547,2.7743,3.0661,3.0744,3.7109,4.1459,4.1597,4.4241,4.4324,4.0569,3.8676,3.6045,3.2427,3.0457,3.1174,3.488,4.222,4.7043,4.9185,5.2996,5.5092,5.5569,5.5873,5.599,5.5973,5.6898,5.629,5.4621,5.5095,5.2824,4.8755,4.5961,4.0821,0.0,0.0,0.0,0.0,0.0,0.0,0.0,0.0,0.0,0.0,0.0,0.0,0.0,0.0,0.0,0.0,0.0,0.0,0.0,0.0,0.0,0.0,0.0,0.0,0.0,0.0,0.0,0.0,0.0,0.0,0.0,0.0,0.0,0.0,0.0,0.0,0.0,6.3403,6.577,0.0,6.5084,6.5086,6.5337,6.5596,6.8145,7.0617,7.2805,7.3593,7.4707,7.6238,7.5814,7.5323,7.4863,7.4462,7.4193,7.4058,7.3742,7.4199,7.5359,7.5063,7.5431,7.6326,7.6567,7.686,7.7107,7.6651,7.5726,7.4484,7.3014,7.2434,7.2287,7.1181,7.1558,7.2715,0.0,0.0,0.0,0.0,0.0,0.0,0.0,0.0,2.4233,2.6475,3.0525,3.3849,3.5517,4.1976,4.6156,4.6156,4.9122,4.876,4.3478,4.1438,3.819,3.3146,3.2537,3.5213,4.1357,4.6389,4.9892,5.1894,5.4582,5.6188,5.6766,5.7248,5.7088,5.6445,5.7602,5.7588,5.6738,5.823,5.6689,5.3027,5.1007,4.5509,3.8259,0.0,0.0,0.0,0.0,0.0,0.0,0.0,0.0,0.0,0.0,0.0,0.0,0.0,0.0,0.0,0.0,0.0,0.0,0.0,0.0,0.0,0.0,0.0,0.0,0.0,0.0,0.0,0.0,0.0,0.0,0.0,0.0,0.0,0.0,5.9328,6.3847,6.5592,6.8307,6.9793,6.9166,6.9564,7.033,7.1436,7.4118,7.6152,7.715,7.7461,7.7814,7.8224,7.7328,7.671,7.6392,7.6013,7.5849,7.5867,7.5483,7.5925,7.7089,7.6779,7.6735,7.6952,7.8012,7.8091,7.749,7.8193,7.7478,7.5956,7.6037,7.6062,7.6014,7.6014,7.5952,7.5968,0.0,0.0,0.0,0.0,0.0,0.0,0.0,2.4182,2.6024,3.084,3.5171,3.9632,4.4469,4.8725,5.1253,5.1253,5.1665,4.8572,4.0702,4.0639,3.7559,2.9913,3.4833,4.1149,4.8312,4.9812,5.2288,5.5847,5.6979,5.7903,5.8572,5.8605,5.8248,5.7568,5.8313,5.8248,5.7644,5.9274,5.9343,5.7932,5.288,4.9182,4.6026,0.0,0.0,0.0,0.0,0.0,0.0,0.0,0.0,0.0,0.0,0.0,0.0,0.0,0.0,0.0,0.0,0.0,0.0,0.0,0.0,0.0,0.0,0.0,0.0,0.0,0.0,0.0,0.0,0.0,0.0,0.0,0.0,0.0,5.636,6.2688,6.7426,6.7585,7.2305,7.537,7.4772,7.5708,7.6838,7.7968,7.8256,7.8798,7.9748,7.9353,7.8952,7.8629,7.8243,7.7918,7.7682,7.7789,7.8062,7.8457,7.8421,7.8563,7.8792,7.9389,7.8427,7.6417,7.942,7.8847,7.593,7.8415,7.8906,7.8074,7.7879,7.7441,7.688,7.688,7.6577,7.645,0.0,0.0,0.0,0.0,0.0,0.0,0.0,2.4276,2.5442,2.8634,3.4292,3.9232,4.2433,4.8133,5.1872,5.2261,5.2419,5.0257,4.4978,4.2837,3.9974,3.5947,4.1108,4.5988,5.0075,5.3532,5.5841,5.6884,5.7839,5.83,5.8323,5.9422,5.9226,5.8062,5.9357,5.9295,5.8378,5.935,5.9674,5.9346,5.7184,5.3576,4.9319,0.0,0.0,0.0,0.0,0.0,0.0,0.0,0.0,0.0,0.0,0.0,0.0,0.0,0.0,0.0,0.0,0.0,0.0,0.0,0.0,0.0,0.0,0.0,0.0,0.0,0.0,0.0,0.0,0.0,0.0,0.0,6.0938,6.4894,6.4757,6.7556,7.0739,7.374,7.6051,7.7433,7.7569,7.7991,7.8479,7.906,7.9674,8.0113,8.0233,7.8257,7.6961,7.6602,7.6338,7.589,7.5263,7.7811,7.9144,7.9269,7.8815,7.9265,8.0404,7.9553,7.9188,7.9247,7.9653,7.9462,7.8839,7.9653,7.9919,7.9681,7.8416,7.8265,7.8754,7.8866,7.9389,7.9891,0.0,0.0,0.0,0.0,0.0,0.0,0.0,2.4616,2.6336,3.0415,3.5562,4.0372,4.431,4.9226,5.2374,5.2667,5.2343,4.9944,4.4833,4.192,4.1309,4.3411,4.6974,5.0392,5.3419,5.6501,5.8064,5.8011,5.8805,5.9252,5.9436,6.0292,6.0062,5.9009,6.016,6.0133,5.9278,6.0399,6.076,6.062,6.0497,5.7625,5.3378,5.3266,5.0914,4.7761,4.8174,4.8668,4.8694,4.6141,0.0,0.0,0.0,0.0,0.0,0.0,0.0,0.0,0.0,0.0,0.0,0.0,0.0,0.0,0.0,0.0,0.0,0.0,0.0,0.0,0.0,0.0,0.0,0.0,6.5554,7.0281,7.2263,7.3048,7.4476,7.7341,7.851,7.9251,7.9662,7.9923,8.0128,8.0263,8.0748,8.0936,8.0664,7.8992,7.7357,7.5833,7.6877,7.6661,7.4957,7.8387,8.0154,8.0207,8.0206,8.0747,8.1725,8.1301,8.0891,8.0566,8.1395,8.1139,8.0174,8.1005,8.1244,8.1021,0.0,0.0,0.0,0.0,8.107,8.1933,0.0,0.0,0.0,0.0,0.0,0.0,0.0,2.5164,2.8003,3.4192,3.7825,4.2098,4.811,5.1123,5.2735,5.2779,5.1719,4.8531,4.2607,3.9834,4.219,5.0659,5.1985,5.4091,5.741,5.8763,5.9322,5.9152,5.9795,6.0403,6.0986,6.1065,6.0721,6.0026,6.0788,6.0788,6.0344,6.1846,6.2191,6.1829,6.2911,6.1129,5.7821,5.7291,5.6101,5.4535,5.3433,5.3623,5.4228,5.3188,0.0,0.0,0.0,0.0,0.0,0.0,0.0,0.0,0.0,0.0,0.0,0.0,0.0,0.0,0.0,0.0,0.0,0.0,0.0,0.0,0.0,0.0,0.0,0.0,6.9842,7.3992,7.8376,7.8396,7.826,7.9079,7.9857,8.0584,8.1183,8.1502,8.1641,8.1539,8.1715,8.1609,8.1237,8.0585,0.0,0.0,0.0,7.8689,7.5994,7.9378,8.1129,8.1273,8.207,8.2577,8.2774,8.3624,8.2976,8.1276,8.3787,8.3382,8.102,8.2525,8.2876,8.2332,8.1277,8.092,8.1051,8.1082,8.19,8.2999,0.0,0.0,0.0,0.0,0.0,0.0,0.0,2.5626,2.8487,3.4923,3.7804,4.1766,4.8373,5.1253,5.2846,5.3223,5.087,4.787,4.4386,4.2275,4.4486,5.2012,5.3733,5.6011,5.9143,5.9686,5.9988,6.0138,6.0436,6.0435,6.0225,6.0821,6.0721,6.0026,6.0788,6.1351,6.1803,6.211,6.2617,6.3257,6.4095,6.3132,6.1317,6.1938,6.211,6.2085,6.2966,6.3891,6.412,6.0178,5.9148,5.9176,5.7153,5.4651,0.0,0.0,0.0,0.0,0.0,0.0,0.0,0.0,0.0,0.0,0.0,0.0,0.0,0.0,0.0,0.0,0.0,0.0,0.0,6.9926,7.4218,7.7998,8.0391,8.0697,8.0586,8.025,7.9806,8.017,8.1835,8.2034,8.2323,8.294,8.303,8.2884,8.2456,7.9988,7.8224,7.754,7.8188,7.8099,7.7033,8.0967,8.2649,8.2088,8.303,0.0,8.3574,8.4019,8.4095,8.3895,8.4588,8.47,8.4444,8.4772,8.5029,8.4911,8.2751,8.2361,8.2837,8.1114,8.2034,8.3915,0.0,0.0,0.0,0.0,0.0,0.0,0.0,2.6138,2.8045,3.1948,3.5292,3.9294,4.4372,4.6451,4.8049,4.9459,4.7587,4.6297,4.6297,4.6847,4.9757,5.5602,5.6724,5.7969,5.9662,5.9957,6.0152,6.026,6.0548,6.076,6.0919,6.1408,6.1649,6.167,6.2047,6.2399,6.2764,6.3128,6.359,6.4064,6.4904,6.4973,6.464,6.5322,6.6241,6.7201,6.79,6.873,6.9065,6.653,6.567,6.548,6.4119,6.2197,5.9363,0.0,0.0,0.0,0.0,0.0,0.0,0.0,0.0,0.0,0.0,0.0,0.0,0.0,0.0,6.0643,6.1757,0.0,6.9452,7.2719,7.5564,7.8285,8.0817,8.0943,8.0865,8.1172,8.0918,8.1363,8.2911,8.2354,8.2589,8.4157,8.3544,8.3265,8.3682,8.2193,8.0637,7.9079,8.0774,8.0655,7.851,8.2215,8.3718,8.2921,8.3901,8.4446,8.4517,8.529,8.5749,8.5952,8.6218,8.6465,8.6587,8.6221,8.6257,8.6348,8.4829,8.4559,8.4921,8.3795,8.4456,8.5699,0.0,0.0,0.0,0.0,0.0,0.0,0.0,2.6717,2.7958,2.9805,3.3277,3.6937,4.0612,4.1734,4.2813,4.4253,4.4099,4.4885,4.7208,5.0509,5.4316,5.8642,5.9029,5.9319,5.9727,6.0083,6.0303,6.0325,6.0825,6.1378,6.2035,6.2293,6.2688,6.3164,6.3251,6.3317,6.3396,6.4079,6.4454,6.4652,6.5581,6.6401,6.7157,6.7735,6.8884,7.0151,7.0195,7.0669,7.1255,7.1029,7.0741,7.041,7.0228,6.9446,6.6977,5.8719,5.8015,0.0,0.0,0.0,0.0,0.0,0.0,0.0,0.0,5.7868,5.9455,6.0167,6.2614,6.5126,6.6724,6.8626,7.1287,7.523,7.6607,7.8189,8.1047,8.0957,8.1007,8.2019,8.2033,8.2517,8.3888,8.2945,8.3144,8.5367,8.4326,8.4024,8.4967,8.5074,8.4018,8.1717,8.4277,8.4184,8.1129,8.3934,8.4914,8.4027,8.5009,8.5501,8.5516,8.658,8.7149,8.7352,8.7697,8.7879,8.7821,8.7288,8.7197,8.734,8.6986,8.6909,8.7021,8.6747,8.6894,8.7183,0.0,0.0,0.0,0.0,0.0,0.0,0.0,0.0,2.9719,3.3623,3.4871,3.7124,4.163,4.2211,4.1502,3.9487,4.2551,4.4805,4.5285,4.9717,5.4064,5.8045,5.8472,5.8962,5.9774,6.0572,6.1069,6.1244,6.2022,6.253,6.2793,6.3053,6.2978,6.2595,6.3066,6.3386,6.3602,6.4123,6.4697,6.5337,6.611,6.7032,6.7979,6.893,6.9513,6.9872,7.0095,7.0669,7.13,7.1454,7.2039,7.2773,7.2968,7.3774,7.3115,6.5299,6.3502,6.187,5.1941,4.8657,4.9148,5.4018,5.6497,5.8841,0.0,6.6453,6.8621,6.8004,7.0649,7.3211,7.3708,7.5404,7.7207,7.8772,7.9808,8.0925,8.2161,8.2636,8.2901,8.3016,8.1925,8.204,8.4294,8.4548,8.5161,8.6621,8.6528,8.6507,8.6644,8.6644,8.6689,8.6796,8.714,8.6944,8.6197,8.7266,8.7145,8.5827,8.6829,8.703,8.6551,8.7044,8.7335,8.7497,8.7911,8.8068,8.8068,8.809,8.822,8.8383,8.8626,8.8842,8.8931,8.7588,8.7146,8.7233,0.0,0.0,0.0,0.0,0.0,0.0,0.0,0.0,0.0,3.0634,3.1396,3.3096,3.6748,3.7807,3.72,3.45,3.9171,4.2914,4.434,4.9718,5.4437,5.7952,5.8349,5.8902,5.9777,6.0376,6.0661,6.0756,6.1224,6.1787,6.2427,6.2656,6.2975,6.3319,6.3548,6.3721,6.3821,6.4301,6.4544,6.4666,6.5971,6.6651,6.7024,6.8313,6.9194,6.9505,6.7625,6.7151,0.0,6.7628,6.8061,6.9062,7.1923,7.1912,6.9988,6.543,6.345,6.1616,5.649,5.5749,5.6962,5.9229,6.2231,6.5196,6.7599,6.9932,7.1654,7.1962,7.377,7.5435,7.5763,7.6006,7.6871,7.9143,7.9245,7.984,8.2151,8.2783,8.3053,8.3186,8.1301,8.0536,8.1992,8.3584,8.464,8.486,8.6144,8.7322,8.825,8.8414,8.8625,8.8973,8.9117,8.8943,8.8408,8.8734,8.8433,8.7517,8.8032,8.8308,8.8265,8.8225,8.8064,8.7858,8.8037,8.8381,8.8768,8.8456,8.8705,8.9367,8.9193,8.9291,8.9427,8.881,8.8658,8.8732,0.0,0.0,0.0,0.0,0.0,0.0,0.0,0.0,0.0,0.0,2.9106,3.0358,3.2643,3.3698,3.354,3.181,3.6731,4.1083,4.3858,4.9543,5.4305,5.769,5.8276,5.8956,5.9831,6.0338,6.0582,6.0655,6.1042,6.1583,6.2301,6.2554,6.3033,6.3619,6.38,6.3823,6.3761,6.4254,6.4254,6.4062,6.5708,6.6288,6.6266,6.7808,6.8187,6.7558,6.5143,6.4416,6.4397,6.31,6.3543,6.5114,6.7678,6.7862,6.6593,6.3691,6.1096,5.9128,5.8964,5.9832,6.1311,6.346,6.6324,6.909,7.0952,7.2253,7.3347,7.4344,7.5401,7.6267,7.6735,7.6473,7.6959,7.9408,7.9325,7.9791,8.2174,8.2761,8.2715,8.2028,8.0322,7.8751,7.7598,8.1282,8.3982,8.4646,8.6465,8.8071,8.9227,8.9479,8.9713,9.0001,9.0172,9.0107,8.9712,8.9771,8.9618,8.9229,8.9218,8.9423,8.9817,8.9407,8.9058,8.8753,8.8753,8.9119,8.9702,8.924,8.9608,9.0388,9.006,8.9952,8.9969,9.0007,8.9931,8.979,0.0,0.0,0.0,0.0,0.0,0.0,0.0,0.0,0.0,0.0,0.0,0.0,0.0,3.1362,3.1678,3.2761,3.6106,3.9891,4.3937,4.8795,5.3228,5.6959,5.8064,5.9021,5.9978,6.0784,6.1291,6.1545,6.2376,6.2744,6.28,6.3252,6.3228,6.2881,6.3563,6.3667,6.3236,6.3705,6.3918,6.4024,6.5505,6.612,6.6282,6.7972,6.6363,6.3318,6.3411,6.3948,6.3835,5.8761,5.9753,6.2559,5.979,6.2284,6.5371,6.1032,5.6915,5.4556,5.7826,5.7157,5.7329,6.49,6.7062,6.8546,7.3056,7.432,7.4752,7.5496,7.6101,7.6723,7.7417,7.8533,7.9614,8.0442,8.1575,8.2383,8.251,8.2896,8.2085,7.9066,7.9017,7.682,7.0804,7.7511,8.386,8.7679,8.8749,8.9227,8.9299,8.9479,8.9713,9.0001,9.0172,9.036,9.0545,9.0743,9.0958,9.1133,9.0519,9.0447,9.0839,9.0442,9.0337,9.0424,9.0424,9.0557,9.0768,9.0863,9.1118,9.1461,9.173,9.144,9.089,9.1029,9.051,8.979,0.0,0.0,0.0,0.0,0.0,0.0,0.0,0.0,0.0,0.0,0.0,0.0,0.0,0.0,0.0,0.0,3.4509,3.6954,3.9825,4.5321,4.9866,5.3049,5.6659,5.8949,5.9663,6.0324,6.0685,6.082,6.1257,6.1563,6.174,6.2085,6.2259,6.229,6.2702,6.2832,6.271,6.3212,6.3781,6.4381,6.561,6.6234,6.6231,6.4392,6.2747,6.0663,0.0,5.402,5.4702,5.2959,5.3462,5.5277,5.7722,5.7946,5.6606,5.2988,5.4191,5.6661,5.6438,5.9616,6.3674,6.6471,6.9667,7.2576,7.4091,7.4913,7.5405,7.5642,7.449,7.3512,7.3751,7.321,7.3636,7.6373,7.6145,7.7267,8.1884,7.9363,7.832,8.1528,7.8519,7.7004,7.9254,8.0669,8.1362,8.1077,8.568,8.8814,8.9464,8.9713,8.9944,9.0172,9.0396,9.0537,9.0581,9.0799,9.1249,9.2009,9.2868,9.3137,9.2883,9.2343,9.1787,9.1279,9.0722,9.0929,9.155,9.1161,9.1552,9.2392,9.2035,9.1871,9.1812,9.19,9.1382,9.0662,0.0,0.0,0.0,0.0,0.0,0.0,0.0,0.0,0.0,0.0,0.0,0.0,0.0,0.0,0.0,0.0,0.0,3.482,3.7701,4.1758,4.5454,4.8596,5.2023,5.4061,5.4581,5.5718,5.6476,5.6819,5.8539,5.9571,6.0026,6.0992,6.143,6.143,6.2016,6.2141,6.2016,6.2661,6.2957,6.3001,6.3236,6.3147,6.259,5.9885,5.7859,0.0,5.0315,4.8082,4.765,4.7275,4.8064,4.9649,5.2107,5.1831,5.0689,5.1053,5.3873,5.7182,5.8694,6.2812,6.7108,6.9033,7.2079,7.4603,7.4603,7.5168,7.5709,7.5709,7.4558,7.3273,7.2488,7.1562,7.1877,7.4856,7.4502,7.5965,8.2093,7.9678,7.8552,8.1952,7.8736,7.7469,8.0652,8.078,8.0256,7.9257,8.3682,8.6856,8.7852,8.8152,8.8937,9.0258,9.0517,9.0621,9.0701,9.0917,9.1588,9.279,9.4429,9.4899,9.4331,9.3685,9.2468,9.087,9.1269,9.121,9.0861,9.1687,9.259,9.3398,9.3035,9.2819,9.2746,9.2746,9.2064,9.1167,0.0,0.0,0.0,0.0,0.0,0.0,0.0,0.0,0.0,0.0,0.0,0.0,0.0,0.0,0.0,0.0,0.0,0.0,3.7334,3.8391,4.0408,4.3838,4.4805,4.5408,4.5685,4.7767,4.9287,5.0197,5.4313,5.6621,5.7297,5.9487,6.0173,5.9704,6.0833,6.1058,6.0631,6.1438,6.1031,5.976,5.8456,5.7191,5.5971,5.4709,5.2164,4.9144,4.859,4.6183,4.3124,4.2177,4.403,4.635,4.4071,4.5127,4.8492,5.4907,5.5818,5.6432,6.3969,6.635,6.7767,7.2438,7.4187,7.4739,7.4728,7.527,7.5709,7.5473,7.5703,7.5265,7.292,7.2764,7.3658,7.5533,7.614,7.8076,8.2916,8.3164,8.2207,8.0457,7.969,7.8319,7.5749,7.8376,8.0827,8.2148,8.3075,8.3998,8.5063,8.5391,8.7013,9.0207,9.0517,9.0681,9.0897,9.1202,9.2058,9.349,9.5255,9.5804,9.5237,9.4575,9.2579,8.9734,9.22,9.1591,8.91,9.248,9.4099,9.4418,9.4554,9.4222,9.3669,9.3669,9.2633,9.1369,0.0,0.0,0.0,0.0,0.0,0.0,0.0,0.0,0.0,0.0,0.0,0.0,0.0,0.0,0.0,0.0,0.0,0.0,3.3081,3.6533,3.8929,3.9858,4.312,4.5187,4.5756,4.6275,4.6883,4.7583,4.8901,4.9659,4.9862,5.0645,5.0902,5.0812,5.1814,5.2163,5.2098,5.2796,5.3481,5.404,5.3207,5.3735,5.4582,5.0657,4.885,4.8029,4.5136,4.3083,4.1853,4.2473,4.528,4.8861,5.1204,5.3003,5.4386,5.5254,5.8825,6.2719,6.353,6.8171,7.316,7.4746,7.6149,7.6995,7.6454,7.6454,7.5642,7.2293,7.0151,6.7892,6.4464,6.3287,6.4829,7.1143,7.1404,7.3525,8.1155,7.9807,7.9092,8.1782,8.1441,8.1733,8.3651,8.4625,8.4538,8.3182,8.4895,8.6525,8.7741,8.8434,8.9322,9.0481,9.0561,9.0681,9.0897,9.2621,9.3842,9.4535,9.6357,9.7201,9.7154,9.6351,9.5217,9.3859,9.4024,9.3381,9.2336,9.3455,9.4099,9.4418,9.4554,9.4549,9.4503,9.4503,9.3858,9.31,0.0,0.0,0.0,0.0,0.0,0.0,0.0,0.0,0.0,0.0,0.0,0.0,0.0,0.0,0.0,0.0,0.0,0.0,0.0,3.3447,3.4767,3.4846,3.7151,3.8642,3.9127,4.0291,4.1067,4.142,4.3753,4.4929,4.495,4.6026,4.6457,4.6436,4.7354,4.7936,4.8306,4.9062,4.9683,0.0,0.0,4.9259,4.9662,4.6454,4.5495,4.557,4.3606,4.2879,4.3386,4.6647,4.8331,4.995,5.5044,5.6592,5.7054,5.9872,6.2936,6.5802,6.7681,7.1533,7.5283,7.6401,7.7096,7.6961,7.4931,7.4458,7.3172,6.8673,6.6956,6.5264,6.1819,6.1364,6.3639,7.0218,7.1305,7.3755,8.0719,8.0125,7.9922,8.2488,8.2486,8.349,8.6602,8.7215,8.6715,8.5038,8.532,8.6061,8.7196,8.7785,8.8851,9.0545,9.0581,9.074,9.1033,9.3287,9.4595,9.4902,9.6725,9.7717,9.7855,9.7,9.5639,9.3937,9.4361,9.3613,9.2189,9.3547,9.4255,9.4513,9.4661,9.465,9.461,9.461,9.4041,9.3447,0.0,0.0,0.0,0.0,0.0,0.0,0.0,0.0,0.0,0.0,3.055,0.0,0.0,0.0,0.0,0.0,0.0,0.0,0.0,0.0,3.013,3.0281,3.0266,3.0355,3.0637,3.299,3.4255,3.4347,3.859,4.0709,4.0825,4.2624,4.3407,4.3326,4.4334,4.5131,4.578,4.6759,4.6956,4.6513,4.5331,4.4421,4.3694,0.0,4.26,4.293,4.3237,4.3997,4.5766,5.1853,5.2205,5.1278,5.772,5.8916,5.9285,6.6003,6.7316,6.7727,7.3131,7.4993,7.5854,7.7684,7.757,7.6183,7.2935,7.165,6.9958,6.5628,6.5195,6.4757,6.2127,6.3271,6.6179,7.1125,7.3342,7.5917,8.0216,8.1834,8.2566,8.2651,8.3193,8.4611,8.7265,8.7786,8.7786,8.7393,8.5785,8.504,8.5742,8.6066,8.7581,9.0549,9.0661,9.0878,9.1282,9.3511,9.4741,9.4955,9.676,9.7752,9.7855,9.7112,9.5243,9.2721,9.4318,9.3536,9.1278,9.3614,9.4637,9.4786,9.4779,9.465,9.4459,9.4459,9.39,9.333,0.0,0.0,0.0,0.0,0.0,0.0,0.0,0.0,0.0,0.0,3.0317,3.0309,0.0,0.0,0.0,0.0,0.0,0.0,0.0,0.0,0.0,3.0115,2.9977,3.0156,3.0744,3.1075,3.1508,3.2063,3.2914,3.3334,3.338,3.4092,3.4453,3.4486,3.614,3.6949,3.7166,3.8589,3.9487,3.9959,3.9819,4.0499,4.1629,4.1436,0.0,0.0,4.2961,4.3468,4.5147,5.1994,5.5114,5.7244,6.3667,6.6589,6.7683,6.7856,7.0181,7.2605,7.2362,7.4926,7.7934,7.8706,7.8348,7.7638,7.6995,7.3477,6.9451,6.617,6.3475,6.1512,6.1071,6.2534,6.5648,7.1236,7.2916,7.4159,7.598,8.038,8.2997,8.1999,8.4315,8.7243,9.0476,8.8571,8.7893,8.9749,8.985,8.9348,8.8239,8.9003,8.9898,9.0839,9.1014,9.1301,9.1694,9.3803,9.4918,9.5094,9.6953,9.7857,9.7892,9.7743,9.7066,9.6075,9.6483,9.6156,9.5344,9.5386,9.5506,9.5618,9.5044,9.4767,9.4728,9.4728,9.4704,9.4668,0.0,0.0,0.0,0.0,0.0,0.0,0.0,2.9823,3.0002,3.0615,3.0594,3.0511,3.0563,3.0175,2.996,0.0,0.0,0.0,0.0,0.0,0.0,0.0,2.9338,2.9525,3.0054,3.0267,3.0603,3.0993,0.0,3.1079,3.1338,3.161,3.1977,3.2519,3.3772,3.4683,3.5385,3.6596,3.7557,3.8371,3.9251,4.0197,4.1149,0.0,0.0,0.0,4.2397,4.3363,4.5332,4.995,5.3711,5.7773,6.5319,6.8543,6.9387,6.8707,7.0906,7.3501,7.2997,7.5495,7.8537,7.944,7.8551,7.6487,7.2969,6.9925,6.636,6.1013,5.9395,5.8951,5.902,6.0575,6.3972,7.0549,7.2594,7.4479,7.7669,8.1388,8.3677,8.3486,8.5806,8.7836,8.9049,8.8178,8.7864,8.8778,8.951,8.995,9.0037,9.1104,9.1487,9.0934,9.1492,9.1798,9.1803,9.3857,9.4953,9.5128,9.6988,9.7892,9.7892,9.7958,9.7888,9.7645,9.7456,9.6328,9.4759,9.5451,9.4835,9.349,9.4426,9.4715,9.4659,9.5075,9.5266,9.5384,0.0,0.0,0.0,0.0,0.0,0.0,0.0,2.9882,3.0157,3.09,3.0873,3.0753,3.0687,3.0199,2.9862,0.0,0.0,0.0,0.0,0.0,0.0,0.0,0.0,0.0,2.9271,0.0,0.0,3.0564,3.0688,0.0,0.0,0.0,0.0,0.0,3.3713,3.4667,3.5718,3.6737,3.7654,0.0,0.0,4.0817,0.0,0.0,0.0,0.0,0.0,4.308,4.5056,4.8027,5.1468,5.5863,6.37,6.6947,6.7945,6.8412,7.0609,7.3102,7.4101,7.64,7.8806,7.9913,7.8551,7.5337,6.9383,6.6677,6.3666,5.734,5.6726,5.7602,5.8439,5.987,6.3177,6.9993,7.1409,7.3606,7.9143,8.1649,8.3593,8.5399,8.7528,8.8856,8.8928,8.8892,8.8857,8.8804,8.9492,9.0377,9.1514,9.2538,9.2482,9.1247,9.2043,9.2312,9.193,9.391,9.4989,9.5198,9.7005,9.7909,9.7961,9.804,9.8208,9.8423,9.8052,9.6177,9.3546,9.5574,9.4549,9.1875,9.4187,9.4966,9.484,9.5523,9.5791,9.5934,0.0,0.0,0.0,0.0,0.0,0.0,0.0,2.9552,2.997,3.1095,3.0796,3.0633,3.1175,3.0949,3.0571,0.0,0.0,0.0,0.0,0.0,0.0,0.0,0.0,0.0,0.0,0.0,0.0,3.0775,3.1322,0.0,0.0,0.0,0.0,0.0,0.0,3.5232,3.5598,3.7033,0.0,0.0,0.0,0.0,0.0,0.0,0.0,0.0,0.0,4.2124,4.3166,4.8142,5.0615,5.2495,5.7817,6.1607,6.4473,6.6518,6.9472,7.2671,7.5204,7.7572,7.9417,8.0048,7.8551,7.6014,7.2665,6.8166,6.3937,6.1231,5.8937,5.8439,6.1841,6.2912,6.4991,7.0267,6.8252,6.8543,7.5705,7.8499,8.1671,8.6661,8.965,9.2389,9.5173,9.2924,9.1943,9.3546,9.3539,9.3266,9.2853,9.3098,9.2976,9.2298,9.2583,9.2629,9.2357,9.4035,9.5041,9.5386,9.7112,9.7941,9.8074,9.8091,9.8291,9.86,9.8699,9.7079,9.4466,9.71,9.6266,9.3555,9.5286,9.598,9.598,9.6147,9.6312,9.6551,0.0,0.0,0.0,0.0,0.0,0.0,2.9571,2.9477,2.9868,3.1478,3.1243,3.1178,3.1793,3.1755,3.1297,3.0323,0.0,0.0,0.0,0.0,0.0,0.0,0.0,0.0,0.0,0.0,3.1213,3.1877,3.209,0.0,0.0,0.0,0.0,0.0,0.0,3.5996,3.6612,3.7709,0.0,0.0,0.0,0.0,0.0,0.0,0.0,0.0,0.0,0.0,4.3647,4.5302,4.7376,4.9548,5.107,5.3766,5.7111,6.1131,6.6216,7.0735,7.1837,7.5696,7.9518,8.0082,7.8179,7.4931,7.0128,6.6406,6.2767,5.8743,5.7645,5.7995,5.9909,6.0681,6.2315,6.6285,6.5751,6.7559,7.5398,7.8155,8.1762,8.8269,9.0976,9.2603,9.3388,9.2488,9.2251,9.3251,9.3368,9.4146,9.5949,9.5218,9.4233,9.3175,9.3467,9.3492,9.3131,9.4379,9.5163,9.544,9.7112,9.7958,9.8108,9.8246,9.839,9.8632,9.9043,9.6238,9.1749,9.6539,9.5385,9.1003,9.521,9.6827,9.6891,9.7565,9.7895,9.8147,0.0,0.0,0.0,0.0,0.0,2.8442,2.9411,2.9461,2.9912,3.1433,3.1532,3.1667,3.2146,3.22,3.1875,3.1015,3.0381,0.0,0.0,0.0,0.0,0.0,0.0,0.0,0.0,0.0,3.2205,3.2932,3.307,3.3624,0.0,0.0,3.4835,3.5243,0.0,0.0,0.0,0.0,0.0,0.0,0.0,0.0,0.0,0.0,0.0,0.0,0.0,0.0,0.0,0.0,0.0,4.7068,4.6764,4.8487,5.1596,5.6595,6.2859,6.8455,6.953,7.4347,7.9276,8.0015,7.7604,7.3612,6.8043,6.4728,6.1501,5.6769,5.6643,5.7619,5.8441,5.8978,6.0392,6.3676,6.4375,6.7073,7.4511,7.7115,8.077,8.7562,8.9952,9.1497,9.2568,9.3359,9.4092,9.4755,9.4569,9.5612,9.8311,9.6993,9.5607,9.4441,9.459,9.443,9.398,9.4967,9.5603,9.5774,9.7237,9.7506,9.6758,9.7909,9.8028,9.7364,9.8771,9.6191,9.1325,9.6734,9.5589,9.0927,9.5779,9.766,9.7763,9.8566,9.8922,9.9149,0.0,0.0,0.0,0.0,0.0,0.0,2.8929,2.9455,3.0094,3.0895,3.1532,3.1982,3.2182,3.22,3.2173,3.2173,3.163,0.0,0.0,0.0,0.0,0.0,0.0,0.0,0.0,0.0,3.3016,3.3693,3.4275,3.4892,3.5489,3.5489,3.5557,3.5704,0.0,0.0,0.0,0.0,0.0,0.0,0.0,0.0,0.0,0.0,0.0,0.0,0.0,0.0,0.0,0.0,0.0,0.0,0.0,4.7216,4.9405,5.3836,5.9876,6.5942,6.962,7.4347,7.8605,7.9879,7.6826,7.2326,6.7827,6.3971,6.0306,5.6725,5.6747,5.7706,5.8616,5.9064,6.0392,6.3676,6.4375,6.6512,7.2324,7.4691,7.7933,8.3582,8.5855,8.9106,9.4637,9.6969,9.8578,9.9642,9.8491,9.8186,9.922,9.7938,9.6923,9.6375,9.5973,9.546,9.4792,9.5856,9.6456,9.6591,9.7597,9.646,9.3582,9.7023,9.6988,9.4457,9.7893,9.7545,9.481,9.8327,9.7787,9.4996,9.7598,9.8583,9.861,9.8909,9.901,9.9161,0.0,0.0,0.0,0.0,0.0,0.0,0.0,2.8492,2.8805,2.99,2.997,3.027,3.1271,3.137,3.1676,3.2461,3.2003,0.0,0.0,0.0,0.0,0.0,0.0,0.0,0.0,0.0,3.3828,3.418,3.4367,3.4819,3.5503,3.5083,3.512,3.56,3.626,3.69,0.0,0.0,0.0,0.0,0.0,0.0,3.999,0.0,0.0,0.0,0.0,0.0,0.0,0.0,0.0,0.0,0.0,0.0,0.0,5.0098,5.5232,6.0776,6.3183,6.6842,7.015,7.0839,6.9214,6.6508,6.3024,6.0554,5.8428,5.642,5.6026,5.648,5.7931,5.8226,5.927,6.2343,6.3958,6.685,7.2578,7.6596,8.0971,8.6466,9.1465,9.5261,9.7397,9.6503,9.6855,9.9356,9.7427,9.738,10.0197,9.937,9.8408,9.7469,9.6473,9.5918,9.5819,9.6308,9.6577,9.6629,9.7634,9.646,9.3507,9.7001,9.6988,9.4382,9.7893,9.7583,9.4848,9.8364,9.7825,9.5109,9.8204,9.9471,9.959,9.9771,9.9897,9.9996,0.0,0.0,0.0,0.0,0.0,0.0,0.0,2.8043,2.8319,2.9152,2.9247,2.9642,3.078,3.1029,3.1512,3.2506,3.2362,0.0,0.0,0.0,0.0,0.0,0.0,0.0,0.0,3.4008,3.4311,3.4743,3.4577,3.4731,3.52,3.4804,3.4738,3.4898,3.581,3.648,0.0,0.0,0.0,0.0,0.0,0.0,3.9343,0.0,0.0,0.0,0.0,0.0,0.0,0.0,0.0,0.0,0.0,0.0,0.0,0.0,5.1546,5.5518,5.892,6.2486,6.5457,6.6213,6.464,6.2374,6.0358,5.7992,5.6055,5.5481,5.6109,5.6865,5.7205,5.8613,5.9895,6.0467,6.3713,6.73,7.0531,7.4885,7.9739,8.5052,9.1043,9.5485,9.7441,9.6848,9.7255,9.9529,9.8209,9.8342,10.0703,10.0177,9.9586,9.9028,9.7673,9.6895,9.6795,9.6988,9.7109,9.7177,9.7884,9.6558,9.3616,9.7196,9.7155,9.4481,9.8281,9.8839,0.0,9.9414,9.9076,9.7333,9.9114,9.9877,9.9985,10.0215,10.0303,10.0387,0.0,0.0,0.0,0.0,0.0,0.0,0.0,2.7994,2.8402,2.8599,2.9152,2.9804,3.0539,3.1002,3.153,3.2308,0.0,0.0,0.0,0.0,0.0,0.0,0.0,0.0,0.0,3.4247,3.4416,3.5195,3.4764,3.4615,3.4697,3.4662,3.4337,3.3911,3.5196,3.5778,0.0,0.0,0.0,0.0,0.0,0.0,0.0,0.0,0.0,0.0,0.0,0.0,0.0,0.0,0.0,0.0,0.0,0.0,0.0,0.0,0.0,0.0,0.0,6.0384,6.3309,6.443,6.2103,5.9472,5.9159,5.6092,0.0,5.4402,5.6857,5.8407,5.6846,6.0103,6.1976,5.8623,6.3901,6.8108,6.7163,7.1156,7.5941,8.0772,8.6391,9.1394,9.5275,9.7719,9.9375,10.0105,10.0413,10.06,10.0776,10.0481,10.0517,10.0793,9.9353,9.8337,9.772,9.7842,9.7829,9.7722,9.8184,9.6628,9.3439,9.7328,9.7392,9.462,9.8952,10.0908,10.1085,10.1199,10.1199,10.1085,10.0189,9.998,10.0112,10.019,10.0315,10.0399,0.0,0.0,0.0,0.0,0.0,0.0,0.0,0.0,0.0,0.0,2.8297,2.8978,2.9777,3.0299,3.1038,0.0,0.0,0.0,0.0,0.0,0.0,0.0,0.0,0.0,0.0,3.3652,3.3668,3.4002,3.3459,3.3683,3.4679,3.4287,3.4238,3.4544,3.5817,3.6495,0.0,0.0,0.0,0.0,0.0,0.0,0.0,0.0,0.0,0.0,4.1556,4.2485,0.0,0.0,0.0,0.0,0.0,0.0,0.0,0.0,4.839,4.9489,5.164,0.0,5.4662,5.5113,5.4669,5.4118,0.0,5.3241,5.3407,5.6492,5.735,5.8009,5.9569,6.2323,6.3605,6.1318,6.6369,7.0337,6.9575,7.6488,8.216,8.3532,9.0199,9.4239,9.3175,9.705,9.9605,9.9582,10.0201,10.06,10.0776,10.1087,10.0791,9.998,9.9742,9.937,9.875,9.8172,9.6543,9.3869,9.6953,9.5236,8.956,9.6118,9.7392,9.462,9.8952,10.0908,10.1085,10.1805,10.1995,10.1895,10.1207,10.0999,10.109,10.0493,10.0399,10.0595,0.0,0.0,0.0,0.0,0.0,0.0,0.0,0.0,0.0,0.0,0.0,2.8664,2.9372,3.0094,0.0,0.0,0.0,0.0,0.0,0.0,0.0,0.0,0.0,3.3566,3.3566,3.3217,3.3216,3.3602,3.31,3.3376,3.4325,3.4029,3.3928,3.4017,3.4948,3.581,0.0,0.0,0.0,0.0,3.6929,0.0,0.0,0.0,0.0,0.0,4.1981,4.2693,0.0,4.3908,4.4206,4.4414,0.0,0.0,0.0,0.0,4.8403,4.8949,4.986,5.0621,5.1553,5.3062,5.2618,5.2181,5.3644,5.2879,5.2809,5.6348,5.6945,5.7368,5.9246,6.1815,6.3375,6.2494,6.6433,7.0422,7.2825,7.7875,8.2103,8.4214,8.837,9.156,9.2776,9.6681,9.9213,9.9398,9.9898,10.0195,10.0289,10.0813,10.0708,9.9996,9.9634,9.8928,9.7966,9.7978,9.6119,9.2414,9.6521,9.5832,9.1021,9.6689,9.8322,9.6869,9.8468,10.0093,10.1616,10.0895,10.1502,10.2804,10.1703,10.138,10.1395,10.0695,10.0486,10.0604,0.0,0.0,0.0,0.0,0.0,0.0,0.0,0.0,0.0,0.0,0.0,0.0,0.0,0.0,0.0,0.0,0.0,0.0,0.0,0.0,0.0,0.0,0.0,3.3182,3.3217,3.281,3.2862,3.3404,3.3182,3.3403,3.4043,3.4043,3.3845,3.3522,3.3981,3.4866,0.0,0.0,0.0,0.0,3.6841,0.0,0.0,0.0,0.0,0.0,0.0,0.0,0.0,4.4058,4.4459,4.483,4.5987,0.0,0.0,0.0,0.0,0.0,4.9568,5.0207,5.1408,5.4344,5.3095,5.2002,5.5181,5.346,5.2221,5.5801,5.6771,5.7404,5.8698,6.1704,6.3788,6.3242,6.6196,7.0574,7.6197,7.8246,8.0386,8.3839,8.5508,8.8264,9.3011,9.6459,9.8694,9.9339,9.965,9.9809,9.9809,10.0195,10.031,10.0099,9.9187,9.8014,9.6577,9.7529,9.5972,9.2066,9.6521,9.7063,9.4221,9.7818,9.9485,9.9537,9.8516,9.9683,10.2184,10.0289,10.1199,10.3615,10.211,10.1596,10.1585,10.0682,10.051,10.0604,0.0,0.0,0.0,0.0,0.0,0.0,0.0,0.0,0.0,0.0,0.0,0.0,0.0,0.0,0.0,0.0,0.0,0.0,0.0,0.0,0.0,3.1853,3.2318,3.2632,3.2793,3.2462,3.2318,3.2427,3.2862,3.3639,3.4666,3.4666,3.4903,3.5303,3.5391,3.5547,3.5797,0.0,0.0,0.0,3.7385,0.0,0.0,0.0,0.0,0.0,0.0,0.0,0.0,4.318,4.3858,4.468,4.51,0.0,0.0,0.0,0.0,0.0,4.9114,5.0077,5.1777,5.4225,5.2889,5.1752,5.4782,5.3246,5.2728,5.8032,5.9155,6.014,6.3103,6.8035,7.0039,6.4984,6.9174,7.4581,7.8792,8.2375,8.4316,8.3542,8.9249,9.3014,9.247,9.6375,9.9014,9.9363,9.965,9.9809,9.9809,10.0195,9.9866,9.8729,9.8684,9.7957,9.6349,9.7162,9.5407,9.1171,9.6393,9.7017,9.3747,9.7766,9.9585,9.9689,10.0978,10.1805,10.2411,10.3397,10.4207,10.4487,10.3001,10.2498,10.2398,10.1096,10.058,10.0692,0.0,0.0,0.0,0.0,0.0,0.0,0.0,0.0,0.0,0.0,0.0,0.0,0.0,0.0,0.0,0.0,0.0,0.0,0.0,0.0,0.0,3.1429,3.168,3.1918,3.21,3.237,3.2676,3.3001,3.4016,3.5113,3.6239,3.5934,3.5744,3.569,3.5364,3.5391,3.5717,3.6164,0.0,0.0,0.0,0.0,0.0,0.0,0.0,0.0,0.0,0.0,0.0,0.0,4.4165,4.507,4.5656,0.0,0.0,0.0,0.0,0.0,4.9304,4.9627,5.1291,5.6706,5.5292,5.4035,5.9534,5.7004,5.5312,6.1821,6.0051,5.8972,6.427,6.7194,6.9286,7.0955,7.6362,8.0817,8.205,8.34,8.4609,8.5641,8.9015,9.1596,9.2483,9.609,9.8562,9.9002,9.9143,9.9213,9.9213,9.9386,9.9267,9.8792,9.8129,9.7294,9.6236,9.6916,9.5442,9.1838,9.6693,9.7223,9.4102,9.7894,9.992,10.042,9.9845,10.0895,10.2994,10.2298,10.3187,10.4788,10.379,10.3185,10.2588,10.1106,10.0909,10.1506,0.0,0.0,0.0,0.0,0.0,0.0,0.0,0.0,0.0,0.0,0.0,0.0,0.0,0.0,0.0,0.0,0.0,0.0,0.0,0.0,3.0992,3.1142,3.1311,3.154,3.179,3.2519,3.3285,3.4009,3.5393,3.6624,3.7696,3.7371,3.6768,3.5879,3.5581,3.5608,3.5934,3.653,3.7028,0.0,0.0,0.0,0.0,0.0,0.0,0.0,0.0,0.0,0.0,0.0,0.0,0.0,0.0,0.0,0.0,4.8459,4.8852,4.9147,4.9313,4.9229,5.0678,5.7478,5.6029,5.5231,6.3988,6.0356,5.7385,6.5222,6.2081,5.9794,6.5973,6.67,6.8843,7.6362,8.1723,8.5105,8.5508,8.5097,8.5832,8.8707,8.9409,9.0741,9.3504,9.6292,9.8111,9.8646,9.8694,9.8694,9.8694,9.8777,9.8813,9.8869,9.7722,9.6949,9.6675,9.6981,9.5865,9.3404,9.7313,9.794,9.5719,9.8427,10.0123,10.0818,9.9173,10.0296,10.3293,10.1612,10.2622,10.4885,10.4311,10.3477,10.2496,10.1103,10.1189,10.2088,0.0,0.0,0.0,0.0,0.0,0.0,0.0,0.0,0.0,0.0,0.0,0.0,0.0,0.0,0.0,0.0,0.0,0.0,0.0,0.0,3.0736,3.0736,3.1401,3.1957,3.233,3.2935,3.3794,3.4911,3.6383,3.7531,3.8347,3.8857,3.8179,3.6551,3.7073,3.7018,3.6578,3.7181,3.79,3.8675,0.0,0.0,0.0,0.0,0.0,0.0,0.0,0.0,0.0,0.0,0.0,0.0,0.0,0.0,4.7752,4.8396,4.8604,4.8646,4.8681,4.9111,5.0317,5.3588,5.2076,5.2929,6.4908,6.0799,5.7255,6.706,6.7068,6.6558,7.0615,7.1163,7.2829,7.8409,8.1221,8.4313,8.8931,8.9952,9.0754,9.2269,9.3103,9.4334,9.6243,9.7297,9.8111,9.8646,9.8694,9.8694,9.8694,9.8944,9.882,9.8261,9.7659,9.76,9.8133,9.7525,9.6783,9.5954,9.8273,9.9343,9.9259,9.9601,10.0001,10.0413,10.1509,10.2284,10.2892,10.3983,10.4709,10.4885,10.4311,10.3185,10.1879,10.0898,10.122,10.2176,0.0,0.0,0.0,0.0,0.0,0.0,0.0,0.0,0.0,0.0,0.0,0.0,0.0,0.0,0.0,0.0,0.0,0.0,0.0,3.0463,3.0501,3.0501,3.0784,3.1164,3.1636,3.3679,3.5315,3.6479,3.8282,3.892,3.8523,3.8544,3.7607,3.5879,3.6225,3.6449,3.6632,3.7235,3.7923,3.8602,3.9136,0.0,0.0,0.0,0.0,0.0,0.0,0.0,0.0,0.0,4.404,4.5132,4.5985,4.6877,4.7688,4.8112,4.8396,4.8677,4.8959,4.9293,5.0929,5.6483,5.4232,5.3684,6.5457,6.3955,6.276,7.2028,6.9756,6.6639,6.8414,7.2882,7.7126,7.9704,8.3208,8.6657,8.9574,9.0341,9.1088,9.2617,9.3068,9.4168,9.648,9.7003,9.7579,9.861,9.8694,9.8694,9.8694,9.8479,9.8306,9.8176,9.7543,9.7401,9.7806,9.787,9.7797,9.7645,9.8832,9.9311,9.9118,9.9228,9.9952,10.1121,10.1604,10.262,10.4113,10.469,10.4985,10.511,10.4494,10.3919,10.3393,10.2514,10.2788,10.3719,0.0,0.0,0.0,0.0,0.0,0.0,0.0,0.0,0.0,0.0,0.0,0.0,0.0,0.0,0.0,0.0,0.0,0.0,3.0457,3.0535,3.0471,3.0311,3.0548,3.1003,3.1727,3.4059,3.5926,3.7194,3.9365,3.9841,3.8598,3.8354,3.7375,3.5847,3.6263,3.6691,3.7097,3.7783,3.832,3.8749,3.9332,3.9694,0.0,0.0,0.0,0.0,0.0,0.0,0.0,0.0,4.4144,4.5302,4.6048,4.6864,4.7538,4.7794,4.8133,4.847,4.8706,4.8968,5.064,5.6748,5.4863,5.4528,6.6002,6.5843,6.5795,7.4623,7.3253,7.0454,7.0295,7.4885,7.9094,8.0314,8.3873,8.7304,8.9676,9.0234,9.0887,9.2166,9.2599,9.3723,9.5992,9.6494,9.7259,9.861,9.8694,9.8587,9.8313,9.812,9.7944,9.7875,9.7428,9.7246,9.7381,9.7986,9.8231,9.8129,9.887,9.9073,9.8869,9.8975,9.981,10.1318,10.1589,10.2809,10.4611,10.4912,10.5094,10.5217,10.4606,10.4386,10.431,10.352,10.3806,10.4683,0.0,0.0,0.0,0.0,0.0,0.0,0.0,0.0,0.0,0.0,0.0,0.0,0.0,0.0,0.0,0.0,0.0,0.0,3.0638,3.0786,3.0671,3.0132,3.0815,3.1727,3.2875,3.4024,3.5311,3.6722,3.943,3.9997,3.8594,3.8575,3.7941,3.6844,3.7719,3.8123,3.8145,3.8986,3.9319,3.9292,3.9292,3.9452,0.0,0.0,0.0,0.0,0.0,0.0,0.0,0.0,4.4703,4.576,4.6636,4.7084,4.7352,4.7568,4.7825,4.7969,4.7712,4.7953,4.9226,5.2889,5.2944,5.5075,6.6522,6.5774,6.5118,7.3911,7.7981,7.948,7.7897,7.7615,7.8283,8.022,8.2657,8.5642,8.9471,9.0234,9.0635,9.1248,9.2183,9.3437,9.5004,9.6077,9.7259,9.8574,9.8694,9.8337,9.7528,9.7924,9.7839,9.7143,9.7377,9.7381,9.7082,9.7895,9.7985,9.7321,9.8317,9.8869,9.8983,9.8983,9.9624,10.0815,10.1821,10.2912,10.412,10.4709,10.5199,10.5384,10.472,10.4386,10.431,10.3508,10.3902,10.4807,0.0,0.0,0.0,0.0,0.0,0.0,0.0,0.0,0.0,0.0,0.0,0.0,0.0,0.0,0.0,0.0,0.0,0.0,3.116,3.1221,3.1186,3.1009,3.1221,3.1514,3.1842,3.3522,3.5248,3.7037,3.7875,3.7906,3.7246,3.6984,3.677,3.6659,3.8667,3.9031,3.8231,4.0083,4.0009,3.87,3.9129,3.9201,0.0,0.0,0.0,0.0,0.0,0.0,0.0,0.0,0.0,0.0,4.6505,4.717,4.797,4.9321,4.9084,4.8715,5.0051,5.0229,5.0836,5.4392,5.6086,5.8136,6.2837,6.5041,6.8036,7.5016,7.7949,7.8441,7.5831,7.9084,8.1976,8.1364,8.4085,8.7149,8.9622,9.0071,9.0422,9.1222,9.1731,9.2634,9.4193,9.5324,9.6467,9.7754,9.7849,9.7742,9.7492,9.692,9.6629,9.6668,9.7016,9.7027,9.6698,9.7568,9.7975,9.786,9.7945,9.8136,9.8525,9.8525,9.9536,10.128,10.1611,10.2794,10.4588,10.4985,10.5293,10.5586,10.5394,10.5303,10.5303,10.4998,10.5203,10.5601,0.0,0.0,0.0,0.0,0.0,0.0,0.0,0.0,0.0,0.0,0.0,0.0,0.0,0.0,0.0,0.0,0.0,0.0,0.0,3.1712,3.1612,3.1432,3.1406,3.1486,3.1712,3.3518,3.4809,3.5573,3.6422,3.6633,3.618,3.6392,3.6579,3.6813,3.897,3.918,3.8131,4.0195,4.0159,3.872,3.9578,3.9694,3.9398,0.0,0.0,0.0,0.0,0.0,0.0,0.0,0.0,0.0,4.6241,4.7398,4.8811,4.9374,4.9276,4.9452,5.1574,5.2041,5.3116,5.8176,5.9613,6.0599,6.3891,6.7081,7.1097,7.7399,7.948,7.9805,7.8481,8.1443,8.3988,8.3643,8.5828,8.8092,8.9593,8.9908,9.0261,9.1004,9.1446,9.2259,9.3694,9.4897,9.6113,9.7397,9.7492,9.7349,9.7028,9.6455,9.5968,9.5558,9.665,9.6871,9.6017,9.7171,9.7794,9.7786,9.7651,9.7926,9.8589,9.8589,9.9662,10.1588,10.2485,10.37,10.4996,10.5188,10.5485,10.5711,10.5711,10.5711,10.5686,10.5785,10.5889,10.5996,0.0,0.0,0.0,0.0,0.0,0.0,0.0,0.0,0.0,0.0,0.0,0.0,0.0,0.0,0.0,0.0,0.0,0.0,0.0,0.0,3.196,3.148,3.1566,3.1888,3.242,3.3875,3.4148,3.3165,3.5121,3.5833,3.5401,3.6499,3.7059,3.7236,3.8923,3.9005,3.7969,3.9802,3.9857,3.8929,4.0232,4.0457,4.0015,4.0409,0.0,0.0,0.0,0.0,0.0,0.0,0.0,0.0,4.5917,4.762,4.944,4.8387,4.8962,5.0419,5.2691,5.3597,5.5563,6.2509,6.2697,6.2714,6.8589,7.1228,7.4171,8.0256,8.1722,8.2402,8.3911,8.426,8.485,8.6422,8.7557,8.8477,8.9373,8.9765,9.0207,9.0733,9.1343,9.2183,9.3351,9.4693,9.5982,9.7278,9.7314,9.6993,9.635,9.6291,9.5652,9.4317,9.6214,9.6661,9.5294,9.667,9.7273,9.7096,9.7394,9.8027,9.8982,9.9013,9.9916,10.1702,10.4013,10.5092,10.5201,10.5408,10.5587,10.5711,10.5711,10.5711,10.5698,10.5919,10.5882,10.6007,0.0,0.0,0.0,0.0,0.0,0.0,0.0,0.0,0.0,0.0,0.0,0.0,0.0,0.0,0.0,0.0,0.0,0.0,0.0,0.0,3.1975,3.1874,3.2838,3.3621,3.4151,3.4123,3.3947,3.3721,3.4183,3.467,3.5178,3.5862,3.6718,3.7804,4.0001,4.0005,3.8451,4.0248,3.9572,3.75,3.9185,3.9158,3.8239,3.9739,4.014,0.0,0.0,0.0,0.0,0.0,0.0,0.0,4.5866,4.6778,4.7998,4.9156,5.0879,5.29,5.5134,5.5582,5.6164,5.9255,6.1736,6.5639,7.4168,7.5579,7.6166,7.997,8.056,8.1363,8.4432,8.547,8.6198,8.7286,8.7891,8.8477,8.9373,8.9765,9.0207,9.0733,9.1343,9.1873,9.2305,9.376,9.513,9.6222,9.5912,9.5886,9.6279,9.5224,9.4892,9.5494,9.5571,9.5442,9.5161,9.5374,9.5441,9.5335,9.6507,9.7616,9.8685,9.8897,10.0095,10.2195,10.4117,10.4996,10.5201,10.519,10.5384,10.5711,10.5711,10.5711,10.5698,10.5919,10.5882,10.6007,0.0,0.0,0.0,0.0,0.0,0.0,0.0,0.0,0.0,0.0,0.0,0.0,0.0,0.0,0.0,0.0,0.0,0.0,0.0,0.0,3.2176,3.2503,3.3421,3.3897,3.3922,3.3897,3.3771,3.3517,3.3517,3.3988,3.4931,3.5461,3.6364,3.7622,3.9243,3.9021,3.7534,3.9465,3.9134,3.7503,3.93,3.9523,3.8912,3.9834,0.0,0.0,0.0,0.0,0.0,0.0,0.0,0.0,0.0,0.0,4.808,4.8624,5.0133,5.2294,5.5295,5.6858,5.875,6.335,6.7539,7.1528,7.5416,7.7123,7.8359,7.9984,8.0696,8.1723,8.4058,8.5185,8.6108,8.71,8.7787,8.8453,8.9178,8.9683,9.0207,9.0733,9.1343,9.1778,9.1985,9.3586,9.4847,9.5533,9.564,9.5885,9.6356,9.5705,9.5244,9.5173,9.5604,9.5537,9.4888,9.4836,9.5141,9.5794,9.6568,9.7705,9.9214,10.0204,10.1201,10.2411,10.4088,10.4999,10.5201,10.5305,10.5498,10.5711,10.5711,10.5711,10.5698,10.5901,10.6016,10.6007,0.0,0.0,0.0,0.0,0.0,0.0,0.0,0.0,0.0,0.0,0.0,0.0,0.0,0.0,0.0,0.0,0.0,0.0,0.0,0.0,0.0,3.2891,3.3471,3.3611,3.3261,3.3611,3.3561,3.3111,3.3011,0.0,0.0,3.5785,3.6685,3.7788,3.8363,3.7745,3.6359,3.7975,3.8162,3.7486,3.9395,3.9942,3.9708,0.0,0.0,0.0,0.0,0.0,0.0,0.0,0.0,0.0,0.0,0.0,4.8114,4.7473,4.8693,5.097,5.4294,5.751,6.1673,6.8839,7.3228,7.5616,7.5237,7.729,7.9454,7.9995,8.1187,8.2379,8.3326,8.444,8.5527,8.6453,8.7515,8.8329,8.8701,8.9477,9.0146,9.0508,9.129,9.1904,9.206,9.3662,9.4832,9.5147,9.5674,9.6062,9.6219,9.6197,9.5604,9.4412,9.5427,9.552,9.4537,9.4484,9.5027,9.6124,9.6476,9.7724,9.9711,10.1192,10.2015,10.2304,10.388,10.4778,10.5108,10.5293,10.5485,10.5687,10.552,10.5495,10.5519,10.5718,10.582,10.5788,0.0,0.0,0.0,0.0,0.0,0.0,0.0,0.0,0.0,0.0,0.0,0.0,0.0,0.0,0.0,0.0,0.0,0.0,0.0,0.0,0.0,3.2187,3.2891,3.3471,3.3888,3.3496,3.3251,3.3177,3.2731,0.0,0.0,0.0,0.0,4.0049,0.0,3.8383,3.6432,3.5961,3.5637,3.5654,3.7812,3.8233,0.0,0.0,0.0,0.0,0.0,0.0,0.0,0.0,4.3143,0.0,0.0,0.0,4.5964,4.6114,4.8734,5.1875,5.29,5.7112,6.2677,6.8621,6.9366,7.0301,7.6619,7.6981,7.682,7.9518,8.1187,8.2217,8.2674,8.4113,8.5331,8.5762,8.7183,8.8075,8.7745,8.9033,8.9886,8.9548,9.1173,9.2309,9.2333,9.3556,9.4661,9.5386,9.528,9.5167,9.5188,9.469,9.4354,9.4227,9.3729,9.3577,9.3748,9.3684,9.3397,9.294,9.4817,9.6893,9.911,9.9637,10.061,10.1896,10.2697,10.3686,10.4585,10.5105,10.5382,10.5485,10.4796,10.4616,10.459,10.4694,10.4898,10.5098,0.0,0.0,0.0,0.0,0.0,0.0,0.0,0.0,0.0,0.0,0.0,0.0,0.0,0.0,0.0,0.0,0.0,0.0,0.0,0.0,0.0,3.2232,3.259,3.2843,3.3111,3.2867,3.2744,3.2744,0.0,0.0,0.0,3.9867,4.0227,0.0,0.0,0.0,0.0,3.6878,3.6485,3.5764,3.6746,3.7379,0.0,0.0,0.0,0.0,0.0,0.0,0.0,0.0,4.3009,4.3305,4.446,0.0,0.0,0.0,4.7391,5.0081,5.4866,5.7715,6.1258,6.9153,6.9108,6.8984,7.6088,7.6391,7.6105,7.9424,8.0681,8.1428,8.218,8.3571,8.4779,8.5355,8.6965,8.8041,8.7587,8.8564,8.9282,8.9096,9.0543,9.1726,9.2127,9.3455,9.4531,9.5024,9.4955,9.4943,9.5065,9.47,9.4355,9.4057,9.3809,9.3603,9.3388,9.3132,9.312,9.3327,9.5086,9.6631,9.7924,9.8796,10.03,10.2123,10.2592,10.361,10.4818,10.46,10.4595,10.4697,10.3994,10.3699,10.3799,10.4415,10.4611,10.4806,0.0,0.0,0.0,0.0,0.0,0.0,0.0,0.0,0.0,0.0,0.0,0.0,0.0,0.0,0.0,0.0,0.0,0.0,0.0,0.0,0.0,3.2179,3.2201,3.2201,3.2201,3.2201,3.2201,3.2201,0.0,0.0,3.9905,4.0978,4.1457,0.0,4.17,0.0,0.0,0.0,0.0,0.0,0.0,0.0,0.0,0.0,0.0,0.0,0.0,0.0,0.0,0.0,0.0,4.3218,4.4275,4.4705,0.0,0.0,0.0,4.8121,5.4938,5.6791,5.8765,6.6819,6.7195,6.7152,7.3193,7.4201,7.4821,7.8307,7.9761,8.0676,8.1647,8.2927,8.4031,8.4585,8.6255,8.7414,8.7177,8.7953,8.8637,8.8776,9.0262,9.1514,9.2116,9.3573,9.4479,9.4576,9.47,9.4694,9.4412,9.4485,9.4198,9.3541,9.354,9.3425,9.3146,9.2761,9.3085,9.4052,9.5385,9.6412,9.7194,9.8302,9.9975,10.2005,10.2086,10.2893,10.4187,10.3813,10.3705,10.3808,10.3105,10.2796,10.2985,10.3882,10.4285,10.4408,0.0,0.0,0.0,0.0,0.0,0.0,0.0,0.0,0.0,0.0,0.0,0.0,0.0,0.0,0.0,2.9646,2.914,2.9232,3.017,3.0645,3.116,3.1717,3.1739,0.0,3.1739,3.1739,3.1739,0.0,0.0,0.0,3.8198,4.0748,4.3167,4.5212,4.3255,4.2304,4.1997,0.0,0.0,0.0,0.0,0.0,0.0,0.0,0.0,0.0,0.0,0.0,0.0,0.0,0.0,0.0,4.3755,4.4401,4.4821,0.0,0.0,0.0,5.0401,5.2795,5.531,5.9251,6.0974,6.2764,6.697,6.9305,7.1683,7.5368,7.8233,8.0305,8.0941,8.221,8.3176,8.3208,8.459,8.5755,8.604,8.7215,8.814,8.8461,9.0752,9.2405,9.2643,9.4062,9.4776,9.4249,9.4592,9.4124,9.2628,9.3235,9.3296,9.2501,9.2063,9.2208,9.3004,9.2748,9.3017,9.3849,9.4849,9.6115,9.7597,9.8103,9.9373,10.1095,10.06,10.0986,10.1987,10.2391,10.2699,10.2715,10.2016,10.191,10.2094,10.2985,10.3297,10.3581,0.0,0.0,0.0,0.0,0.0,0.0,0.0,0.0,0.0,0.0,0.0,0.0,0.0,3.1004,3.0578,3.042,3.0238,3.0284,3.0623,3.1116,3.1518,3.1695,3.1717,3.1717,3.1717,3.1717,3.1717,0.0,0.0,3.3716,3.6988,3.8286,4.0319,4.2896,4.503,4.4691,4.2354,4.121,0.0,0.0,0.0,0.0,0.0,0.0,0.0,0.0,0.0,0.0,0.0,0.0,0.0,0.0,0.0,0.0,0.0,4.4705,4.5367,4.6761,5.0092,5.0295,5.1142,5.7906,5.7451,5.7106,6.3884,6.6827,6.8717,7.0745,7.5544,7.9023,7.7805,8.0613,8.311,8.311,8.4945,8.6261,8.6045,8.7169,8.8107,8.8229,8.9668,9.0934,9.1656,9.2676,9.3271,9.325,9.1251,9.0686,9.2122,9.0537,9.044,9.2336,9.1952,9.1759,9.1838,9.1835,9.2172,9.2846,9.4854,9.5982,9.6388,9.8373,9.9445,9.9739,9.992,10.08,10.2081,10.1801,10.1797,10.171,10.109,10.0895,10.1096,10.2605,10.32,10.3514,0.0,0.0,0.0,0.0,0.0,0.0,0.0,0.0,0.0,0.0,0.0,0.0,0.0,0.0,3.0825,3.0668,3.0802,3.0892,3.0892,3.1383,3.1717,3.1717,3.1717,3.1717,3.1717,3.1717,3.1717,0.0,0.0,0.0,0.0,3.6956,3.8851,4.1201,4.4346,4.4981,0.0,0.0,0.0,4.005,0.0,0.0,3.8958,0.0,0.0,0.0,0.0,0.0,0.0,0.0,0.0,0.0,0.0,0.0,0.0,0.0,0.0,4.6256,4.8424,4.8155,4.8596,5.4255,5.376,5.3509,5.9577,6.3627,6.6524,6.7954,7.3607,7.8024,7.7074,8.0055,8.2737,8.3087,8.4879,8.6234,8.6406,8.7231,8.7992,8.8429,8.9373,9.0272,9.1124,9.187,9.2322,9.2399,9.0265,8.9809,9.1686,8.9898,8.9711,9.1609,9.1689,9.1412,9.0784,9.1359,9.1944,9.2525,9.508,9.6214,9.6113,9.8597,9.9537,9.9286,9.9659,10.0403,10.1388,10.1004,10.0805,10.0796,10.0393,10.029,10.0604,10.2495,10.3216,10.3493,0.0,0.0,0.0,0.0,0.0,0.0,0.0,0.0,0.0,0.0,0.0,0.0,0.0,0.0,0.0,3.0261,3.0645,3.0892,3.0869,3.1383,3.1695,3.1695,3.1695,3.1717,3.1717,3.1717,3.1717,3.1717,3.1953,3.2601,3.372,0.0,3.9082,4.0607,4.0961,4.3046,4.6248,0.0,4.6371,4.6116,0.0,4.2055,4.2393,0.0,0.0,0.0,4.6328,4.6276,0.0,4.6675,0.0,0.0,0.0,0.0,0.0,0.0,0.0,0.0,0.0,0.0,0.0,4.7882,4.9748,5.206,5.3849,5.9425,6.4849,6.706,7.2393,7.7184,7.8823,8.0542,8.2062,8.3038,8.4211,8.5524,8.7076,8.728,8.7784,8.9132,8.9998,9.0637,9.1109,9.1835,9.2076,9.1752,9.1849,9.1703,9.1224,9.1565,9.1301,9.0222,9.1107,9.1079,8.9935,9.1402,9.2396,9.293,9.5465,9.6751,9.6946,9.8749,9.9645,9.9796,9.9796,9.9796,9.9796,9.9796,9.9877,10.001,10.001,10.0215,10.058,10.2282,10.3093,10.3393,0.0,0.0,0.0,0.0,0.0,0.0,0.0,0.0,0.0,0.0,0.0,0.0,0.0,0.0,0.0,3.0749,3.0814,3.0751,3.0421,3.086,3.1116,3.1116,3.1496,3.1717,3.1717,3.1717,3.1717,3.1717,3.1773,3.2068,3.2578,3.4031,0.0,0.0,3.8323,3.9785,4.0455,4.2286,0.0,4.1546,4.4199,4.3184,0.0,0.0,0.0,0.0,0.0,4.7358,4.7567,0.0,4.7569,4.6366,0.0,0.0,0.0,0.0,0.0,0.0,4.5136,0.0,0.0,0.0,0.0,0.0,5.1003,5.4723,5.8376,6.0502,6.662,7.2279,7.443,7.8941,8.2555,8.3174,8.4301,8.5595,8.7102,8.7362,8.7824,8.9162,8.9477,8.975,9.0014,9.0399,9.0582,9.0511,8.8725,8.8583,9.0866,9.1235,9.075,8.937,8.9734,9.0079,9.0316,9.0897,9.1911,9.336,9.4865,9.6062,9.696,9.8158,9.9129,9.9796,9.9796,9.9796,9.9796,9.9796,9.9823,9.9864,9.997,10.0011,10.0304,10.161,10.251,10.3195,0.0,0.0,0.0,0.0,0.0,0.0,3.1229,0.0,0.0,0.0,0.0,0.0,0.0,0.0,0.0,3.0671,3.0616,3.0484,3.0227,3.0086,3.0291,3.0869,3.0992,3.1279,3.1671,3.1717,3.1717,3.1717,3.1606,3.1617,3.1792,3.2692,0.0,0.0,0.0,0.0,0.0,0.0,0.0,0.0,4.4536,0.0,0.0,4.7592,4.7559,0.0,0.0,0.0,5.0419,5.1552,5.0401,0.0,0.0,0.0,0.0,0.0,0.0,0.0,0.0,0.0,0.0,4.6719,0.0,0.0,4.9508,5.3315,5.7026,5.9277,6.5479,7.0872,7.2149,7.5983,7.9272,8.0318,8.1415,8.3324,8.6733,8.7307,8.7848,8.8982,8.9219,8.9407,8.9586,8.9839,9.0042,9.0125,8.8718,8.8653,9.0412,9.0573,9.0049,8.8939,8.9182,8.9533,8.9979,9.0382,9.1264,9.2625,9.4146,9.5412,9.6456,9.771,9.8805,9.97,9.9769,9.9796,9.9796,9.9796,9.9796,9.9796,9.989,9.9957,10.0112,10.1192,10.2195,10.3095,0.0,0.0,3.1633,3.1538,3.0818,3.0522,3.1301,0.0,0.0,0.0,0.0,0.0,0.0,0.0,0.0,0.0,3.0148,3.0102,3.0056,2.9297,2.9447,3.0779,3.0512,3.0775,3.1671,3.1837,3.1815,3.1717,3.1521,3.1411,3.1413,0.0,0.0,0.0,0.0,0.0,0.0,0.0,3.8836,4.422,4.4368,4.6768,5.0356,5.1556,5.1408,5.1075,5.515,5.4879,5.3005,5.5628,5.3743,0.0,0.0,0.0,0.0,0.0,4.4278,0.0,0.0,0.0,0.0,0.0,4.5962,0.0,4.8765,5.3177,5.7594,6.0272,6.5566,6.9872,7.0403,7.1931,7.3675,7.5445,7.6758,7.958,8.5491,8.6813,8.7413,8.8201,8.8782,8.9263,8.9543,8.9818,9.0084,9.0254,9.0389,9.0308,8.9892,8.9639,8.9234,8.8579,8.8873,8.9087,8.9145,8.9761,9.0526,9.1424,9.333,9.4814,9.5912,9.7297,9.8536,9.9613,9.9752,9.9783,9.9796,9.9796,9.9796,9.9796,9.9796,9.9877,10.011,10.0883,10.1889,10.3083,0.0,0.0,3.1727,3.113,3.0887,3.1093,3.211,3.1879,0.0,0.0,0.0,0.0,0.0,0.0,0.0,0.0,2.9829,2.9443,2.9015,2.9169,2.9596,3.0306,3.1021,3.1509,3.1717,3.2537,3.2561,3.1717,3.2061,3.2164,3.1959,3.2833,0.0,0.0,0.0,0.0,0.0,3.4294,3.6532,4.0306,4.3826,4.6111,4.7837,5.1807,5.1455,4.9514,5.4379,5.5126,5.4086,5.5408,5.4342,5.1662,0.0,0.0,0.0,4.2171,0.0,0.0,0.0,0.0,0.0,0.0,4.6018,0.0,4.7065,4.8301,5.0537,5.4075,5.6125,5.886,6.3934,6.6953,6.9013,7.0133,7.2669,7.6188,8.0827,8.3786,8.517,8.4386,8.6683,8.8596,8.9285,8.9749,9.0022,9.0063,8.9942,8.9646,8.9072,8.8689,8.8059,8.7147,8.7282,8.7627,8.8187,8.8942,9.0012,9.1404,9.2604,9.4292,9.6313,9.6756,9.7922,9.9599,9.9627,9.9711,9.9796,9.9796,9.9796,9.9796,9.9796,9.981,9.9888,10.0198,10.1189,10.2712,0.0,0.0,3.1759,3.1024,3.0712,3.0865,3.1777,3.1667,0.0,0.0,0.0,0.0,0.0,0.0,0.0,0.0,0.0,0.0,0.0,2.881,2.932,2.9825,3.0561,3.133,3.2082,3.2369,3.2369,3.2104,3.2104,3.2181,3.2309,3.2997,0.0,0.0,0.0,0.0,0.0,3.391,3.5544,3.8436,4.3473,4.6507,4.8563,5.3208,5.3828,5.264,5.5411,5.6402,5.6029,5.3958,5.3717,0.0,4.9403,4.6998,4.5411,0.0,4.2382,4.1495,0.0,0.0,0.0,4.358,4.472,0.0,0.0,4.7322,4.9353,5.2489,5.4466,5.6622,5.9973,6.1595,6.3052,6.5218,6.7021,6.9166,7.2112,7.8808,8.3877,8.5159,8.7068,8.8551,8.9219,8.9393,8.9649,9.0089,8.9416,8.8916,8.8817,8.776,8.7028,8.6715,8.6642,8.6753,8.7102,8.8235,8.9276,9.0268,9.1762,9.3627,9.5886,9.6343,9.7582,9.9347,9.9542,9.9641,9.9725,9.9769,9.9796,9.9796,9.9796,9.9796,9.9872,10.0408,10.14,10.2619,0.0,0.0,0.0,3.0915,3.0537,3.0519,3.1068,3.1281,0.0,0.0,0.0,0.0,0.0,0.0,0.0,0.0,0.0,0.0,0.0,0.0,2.9842,2.9912,3.0379,3.1247,3.2491,3.2176,3.2176,3.2491,3.208,3.2128,3.2659,3.3092,3.3332,0.0,0.0,0.0,0.0,0.0,3.6123,3.8954,4.4067,4.7037,4.8912,5.3963,5.5641,5.5376,5.6428,5.7451,5.7606,5.3138,5.3414,5.4995,5.1436,4.8568,0.0,0.0,0.0,0.0,0.0,0.0,0.0,4.2833,4.3488,4.4227,0.0,0.0,0.0,5.1329,5.3569,5.5375,5.5975,5.606,5.7011,5.9892,6.1153,6.2419,6.424,7.2807,8.0141,8.3348,8.497,8.6135,8.6894,8.7321,8.8228,9.0038,8.8586,8.7884,8.85,8.6953,8.6155,8.6392,8.6301,8.6247,8.6211,8.7794,8.8836,8.931,9.1192,9.3253,9.5392,9.6044,9.7335,9.9081,9.9361,9.9557,9.9613,9.9738,9.9769,9.9796,9.9796,9.9796,9.991,10.0782,10.1698,10.259,3.2594,3.2468,0.0,3.0524,3.0581,3.0808,3.0685,3.103,0.0,0.0,0.0,0.0,0.0,0.0,0.0,0.0,0.0,0.0,3.0665,0.0,0.0,3.1504,3.1959,3.2325,3.2491,3.2899,3.2922,3.2491,3.2442,3.2683,3.3212,3.326,3.3525,3.3934,3.403,0.0,0.0,3.7012,3.9343,4.3611,4.6978,4.6759,4.5108,5.2122,5.3567,5.2294,5.5629,5.7127,5.7245,5.5263,5.4885,5.4597,5.0866,4.8217,4.6183,4.4525,0.0,0.0,0.0,0.0,4.3422,4.2121,4.4008,4.5695,4.398,0.0,4.6336,4.643,0.0,4.7616,4.9252,0.0,0.0,5.3162,5.6421,5.9762,6.2557,6.6274,6.9145,7.0347,7.3891,7.689,7.8525,8.1004,8.4525,8.9327,8.712,8.6145,8.7569,8.6497,8.5687,8.5359,8.5876,8.6044,8.5857,8.7979,8.9327,8.9904,9.168,9.3651,9.567,9.604,9.7205,9.8935,9.9081,9.9318,9.9599,9.9627,9.9673,9.9796,9.9796,9.9796,9.991,10.0782,10.1591,10.2491,3.2594,3.2244,0.0,0.0,3.0144,3.0156,3.0337,3.1493,0.0,0.0,0.0,0.0,0.0,0.0,0.0,0.0,0.0,3.5604,0.0,0.0,0.0,3.3195,3.2718,3.2635,3.2947,3.2875,3.2731,3.2491,3.22,3.2321,3.2827,3.314,3.3404,3.3621,3.4198,3.5592,3.7541,3.7639,3.9612,4.2886,4.495,4.5267,4.5335,5.2717,5.4938,5.4195,5.4682,5.5959,5.6794,5.2686,5.4196,5.6851,5.1513,4.9694,4.9304,4.7812,0.0,0.0,4.2726,4.3492,4.4108,4.4233,4.4934,4.5568,4.5477,4.459,4.4155,4.5348,0.0,0.0,0.0,0.0,0.0,0.0,5.2848,5.465,5.7225,5.9152,6.3079,7.0689,7.2424,7.4197,7.7418,7.8386,8.0775,8.5329,8.3915,8.3484,8.4929,8.5408,8.5648,8.5725,8.597,8.6063,8.597,8.8052,8.9327,8.9799,9.1594,9.3341,9.4978,9.5609,9.6676,9.8067,9.871,9.9096,9.9318,9.9528,9.9641,9.9711,9.9755,9.9796,9.9948,10.1312,10.1995,10.2501,0.0,0.0,0.0,0.0,2.9974,2.9838,3.0319,3.2022,0.0,0.0,0.0,0.0,3.7476,3.6822,0.0,0.0,3.8862,3.8549,0.0,0.0,3.6138,0.0,0.0,0.0,3.4126,3.3068,3.2491,3.2491,3.2104,3.22,3.2731,3.326,3.3501,3.3525,3.4414,3.5856,3.7709,3.8951,4.1132,4.3986,4.5786,4.7165,4.8657,5.3312,5.5566,5.6029,5.4834,5.5714,5.6656,5.1846,5.3961,5.7776,5.2775,5.1382,5.1446,5.0877,4.7405,0.0,4.4949,4.5269,4.5413,4.5668,4.5391,4.516,4.5553,4.428,4.3558,4.5395,4.5908,0.0,0.0,0.0,4.9037,0.0,0.0,5.161,5.3119,5.4166,5.8308,6.7705,6.9471,7.1482,7.5353,7.5764,7.7243,8.0792,8.0383,8.0694,8.2356,8.4093,8.5278,8.5838,8.6063,8.6229,8.632,8.814,8.9317,8.9864,9.1461,9.297,9.4391,9.5297,9.628,9.7306,9.8374,9.8882,9.9066,9.9332,9.95,9.9542,9.9547,9.9631,9.9931,10.1412,10.2108,10.2487,3.4219,3.2903,0.0,0.0,3.0358,3.0341,3.0799,3.2525,3.4272,0.0,0.0,0.0,0.0,0.0,0.0,0.0,0.0,4.0626,3.9433,0.0,3.9994,0.0,0.0,3.4222,0.0,3.3813,3.2491,3.2491,3.2491,3.2755,3.326,3.3766,3.3958,3.3982,3.4559,3.6265,3.8936,4.1889,4.5514,4.952,5.2506,5.4541,5.5555,5.3155,5.3884,5.623,5.658,5.7004,5.7092,5.4988,5.5153,5.5966,5.4666,5.2722,5.115,5.2289,5.0416,4.8002,4.8056,4.8273,4.7831,4.5228,4.5009,4.4924,4.2657,4.3595,4.5152,4.6092,4.7609,4.8973,4.9718,0.0,0.0,0.0,0.0,0.0,0.0,5.2686,5.3879,5.55,6.1514,6.6676,6.9678,7.1879,7.4085,7.6443,7.674,7.7892,8.0375,8.258,8.4215,8.5202,8.597,8.6554,8.6867,8.8277,8.951,9.0483,9.1337,9.2579,9.4231,9.5231,9.6133,9.6986,9.8113,9.8711,9.892,9.905,9.9215,9.937,9.8983,9.9148,9.9741,10.0802,10.1616,10.2411,0.0,0.0,0.0,0.0,0.0,3.0362,3.0821,3.1717,3.3355,3.6085,3.6954,0.0,0.0,4.3,4.2856,0.0,0.0,4.5031,4.1687,4.2418,0.0,0.0,0.0,3.8554,0.0,0.0,3.5112,3.302,3.302,3.3284,3.3766,3.3934,3.4174,3.4535,3.4727,3.6073,3.8482,4.1922,4.5104,4.8139,5.1428,5.3478,5.4561,5.4762,5.539,5.6292,5.6946,5.7271,5.7154,5.5475,5.6465,5.8069,5.6191,5.5095,5.4786,5.6414,5.3619,5.0173,5.0958,5.1406,5.1283,4.9774,4.8666,4.7744,4.7054,4.5815,4.5105,4.6082,4.721,4.8427,4.9678,0.0,0.0,0.0,0.0,0.0,0.0,5.1336,5.2653,5.4191,5.897,6.3194,6.5937,6.6106,6.7515,7.1024,7.1087,7.1976,7.4341,7.8855,8.1768,8.2668,8.5245,8.6767,8.7183,8.8396,8.9456,9.0374,9.1267,9.2282,9.3434,9.4875,9.5719,9.6187,9.7628,9.8374,9.8589,9.8874,9.9012,9.9073,9.9156,9.9686,10.0492,10.1103,10.1778,10.2487,3.5303,0.0,0.0,0.0,0.0,3.0843,3.2001,3.2699,3.4526,3.8553,3.9567,4.1422,4.5391,0.0,4.5873,0.0,4.6625,4.658,4.4673,4.3351,0.0,4.5614,4.2591,0.0,0.0,0.0,0.0,0.0,3.4775,3.4655,3.5688,3.4943,3.4751,3.5087,3.5087,3.5932,3.7603,4.2192,4.5214,4.7188,5.0697,5.3105,5.4612,5.4712,5.5491,5.6543,5.7167,5.7379,5.7318,5.6582,5.7647,5.9027,5.755,5.6864,5.6848,5.8015,5.5735,5.2995,5.3782,5.4378,5.4493,5.3168,5.2017,5.1056,5.031,4.8933,4.8156,4.9474,5.0542,5.1522,5.2417,5.2148,0.0,0.0,0.0,0.0,0.0,5.0361,5.1605,5.3404,5.7861,6.1208,6.2211,6.3068,6.4226,6.5669,6.6345,6.748,6.9371,7.5707,7.9717,8.0656,8.4534,8.6803,8.7203,8.7985,8.905,9.0313,9.091,9.1824,9.3062,9.466,9.547,9.5699,9.7366,9.8158,9.8329,9.8605,9.8748,9.8789,9.8898,9.9615,10.0688,10.1091,10.1886,10.2994,3.5632,3.4231,3.3175,3.3201,3.2031,3.1895,3.4218,3.5329,3.77,4.2727,4.3032,4.3978,4.7209,4.567,4.514,4.7045,4.553,4.5469,4.7906,4.3,0.0,0.0,4.2615,4.1192,4.5085,0.0,0.0,0.0,0.0,3.6842,3.8788,3.6601,3.5592,3.5592,3.5568,3.5693,3.6403,4.2778,4.6012,4.7209,5.0571,5.3557,5.5717,5.308,5.411,5.6982,5.728,5.739,5.7472,5.8196,5.8508,5.8655,5.8655,5.8013,5.7314,5.7314,5.6848,5.6387,5.6359,5.7022,5.7263,5.5122,5.4783,5.4401,5.2255,5.2661,5.3984,5.5739,5.7027,5.7795,5.7626,5.6599,0.0,0.0,0.0,0.0,0.0,4.9823,5.0714,5.2549,5.7683,6.0393,5.8575,6.2504,6.3849,6.0653,6.2631,6.455,6.5917,7.3134,7.7896,7.9323,8.3683,8.6299,8.6925,8.7039,8.8156,9.0226,9.0259,9.1211,9.3046,9.4643,9.5386,9.5494,9.7299,9.8091,9.8108,9.8312,9.8439,9.8568,9.8279,9.9135,10.0496,10.0822,10.2096,10.3814,3.5392,3.4601,3.4115,3.3519,3.3817,3.4461,3.5526,3.6433,3.8507,4.2776,4.4337,4.5927,4.8149,4.9203,4.8753,4.6184,4.6415,0.0,0.0,0.0,0.0,4.9383,4.8291,4.7233,4.6286,4.5237,4.3914,4.238,0.0,3.8864,3.9345,3.677,3.5592,3.5568,3.5183,3.5162,3.5819,4.2212,4.6936,5.0044,4.9282,5.067,5.303,5.1925,5.3454,5.6237,5.6612,5.6917,5.7158,5.7199,5.762,5.813,5.813,5.8282,5.853,5.853,5.8096,5.7559,5.7065,5.7843,5.8296,5.64,5.594,5.5794,5.5198,5.4969,5.5375,5.7137,5.8018,5.8579,5.8934,5.6654,5.4167,0.0,0.0,0.0,0.0,5.071,5.1404,5.1075,5.4412,5.6741,5.6781,5.8563,5.946,5.885,6.0041,6.2298,6.5741,6.9743,7.4171,7.894,7.9828,8.2124,8.6063,8.4834,8.5933,8.9416,8.9853,9.1027,9.2825,9.4419,9.5284,9.5514,9.72,9.7961,9.7941,9.8128,9.8192,9.8279,9.8947,10.0402,10.211,10.2477,10.3386,10.439,3.5213,3.4703,3.4356,3.3373,3.5997,3.8171,3.8084,3.878,4.0938,4.5451,4.6891,4.8215,5.0004,5.1314,5.1042,4.8501,4.7093,4.6432,4.6631,0.0,0.0,5.007,4.9638,4.8603,4.7088,4.6824,0.0,4.4859,0.0,4.0186,4.122,3.737,3.5592,3.5568,3.5403,3.5478,3.6162,4.2644,4.7533,5.0795,4.9515,5.067,0.0,5.1473,5.2944,5.5806,5.5762,5.619,5.6729,5.6937,5.7256,5.7497,5.7364,5.7716,5.815,5.7906,5.7933,5.802,5.7694,5.8509,5.9248,5.8226,5.8191,5.8484,5.8784,5.857,5.8703,6.0126,6.0829,6.0988,6.0321,5.757,5.4326,0.0,0.0,0.0,0.0,5.1175,5.1906,5.0438,5.3625,5.5541,5.4601,5.5757,5.671,5.7056,5.7617,5.9218,6.1995,6.8011,7.2404,7.4583,7.8655,8.1417,8.2686,8.227,8.3946,8.7643,8.8098,8.9807,9.2639,9.4316,9.5143,9.5358,9.7114,9.7892,9.7909,9.7975,9.8247,9.8741,10.0195,10.1388,10.2497,10.3192,10.389,10.4493,3.4967,3.4553,3.424,3.3355,3.7798,4.1448,4.1329,4.2156,4.4468,4.9099,4.9777,5.0355,5.185,5.2245,5.2114,5.1437,4.7678,4.6706,5.0081,4.5092,4.4611,5.0455,4.8916,4.793,4.793,4.7401,4.7329,0.0,0.0,4.1076,4.3,3.7875,3.5496,3.5521,3.5768,3.6528,3.791,4.3337,4.7425,5.0293,5.0218,5.1699,5.3718,5.1473,5.2616,5.5406,5.4782,5.5263,5.6254,5.6862,5.7001,5.6837,5.6658,5.6882,5.7065,5.6468,5.7092,5.7966,5.7885,5.8838,5.9855,5.9772,6.0497,6.1349,6.1854,6.217,6.2588,6.3457,6.411,6.3933,6.1939,5.879,5.4821,4.9726,4.8426,4.8391,4.9313,5.1582,5.2364,5.0298,5.4379,0.0,5.2589,5.404,5.5259,5.5414,5.5708,5.6504,5.7843,6.6637,7.1052,6.9755,7.8115,8.1597,7.941,7.998,8.2361,8.6397,8.6049,8.8129,9.2377,9.4194,9.5039,9.5185,9.7045,9.7857,9.7857,9.8003,9.8665,9.975,10.1393,10.2096,10.228,10.3402,10.3899,10.4182,3.4593,3.4123,3.4392,3.5279,3.6973,3.9737,4.4287,4.6826,4.8728,5.0091,5.0663,5.1053,5.1398,5.202,5.1529,4.933,4.8191,4.7676,4.806,4.7016,4.769,5.0576,5.0335,5.0143,5.0143,4.9589,4.9191,0.0,4.4402,4.1803,4.086,3.6818,3.4943,3.4943,3.5284,3.8445,4.3511,4.2568,4.5091,4.969,4.927,4.9615,5.0569,5.1473,5.2818,5.4227,5.3671,5.4539,5.5953,5.5912,5.6074,5.6331,5.6584,5.6915,5.7065,5.6468,5.6794,5.726,5.6739,5.7907,5.9137,5.864,6.0248,6.181,6.1361,6.255,6.3861,6.4238,6.4809,6.497,6.4155,5.9486,5.5041,5.2838,5.0181,4.8838,5.0037,5.2612,5.3286,5.0289,5.5429,5.7361,5.2606,5.433,5.5383,5.4498,5.5352,5.7406,6.0924,6.2569,6.6299,7.269,7.3529,7.6859,8.3013,7.9753,8.2013,8.971,8.6298,8.7236,9.1949,9.384,9.474,9.4974,9.6852,9.7644,9.7719,9.8545,9.9767,10.1195,10.1687,10.2316,10.2893,10.3305,10.3425,10.3597,3.6208,3.4994,3.4395,3.5144,3.8418,4.1791,4.4373,4.898,5.2045,5.1731,5.2421,5.274,5.2184,5.2717,5.24,5.0718,4.9215,4.8678,4.9368,4.8199,4.8459,5.06,5.0696,5.0191,4.906,4.9325,4.8796,4.7449,4.3776,4.1442,0.0,3.6265,3.4462,3.4679,3.6554,3.9674,4.3647,4.441,4.6627,4.964,5.0268,5.082,5.1373,5.19,5.2869,5.3945,5.3723,5.4418,5.5506,5.575,5.5967,5.6144,5.6402,5.6801,5.7065,5.6468,5.6712,5.7119,5.6848,5.7688,5.8502,5.7867,5.9433,6.1091,6.0919,6.2314,6.3594,6.3531,6.4634,6.5146,6.3659,6.0592,5.7847,5.6469,5.3427,5.1624,5.283,5.3981,5.4306,5.3236,5.7707,5.9191,5.5043,5.6612,5.6688,5.3848,5.4865,5.654,5.8671,6.2089,6.6075,7.0696,7.3148,7.6416,8.0563,7.9234,8.1563,8.7522,8.5682,8.7228,9.1693,9.3584,9.4559,9.4814,9.6637,9.743,9.7559,9.8979,10.0291,10.1625,10.2123,10.2476,10.2921,10.3117,10.3095,10.3182,3.8481,3.699,3.5934,3.6386,4.0741,4.4354,4.5014,5.0204,5.3858,5.3331,5.3909,5.4145,5.3356,5.3432,5.3092,5.1974,5.0261,4.9523,5.0141,4.8928,4.8772,5.0143,5.0527,4.9902,4.8219,4.8772,4.8147,4.6214,4.3192,4.1052,3.9801,3.6193,3.4752,3.5332,3.8804,4.1489,4.3617,4.6753,4.8937,5.0419,5.1624,5.2377,5.2703,5.2319,5.2861,5.3851,5.3918,5.4433,5.5199,5.5868,5.6099,5.615,5.6407,5.6821,5.7065,5.6468,5.6712,5.7119,5.6875,5.7496,5.8032,5.7287,5.8724,6.031,6.0275,6.1698,6.2884,6.2641,6.4256,6.5272,6.3755,6.2354,6.0998,5.9707,5.656,5.4398,5.4792,5.4982,5.5305,5.5928,5.928,6.0262,5.6986,5.8012,5.7185,5.3208,5.4312,5.5778,5.7193,6.1866,6.5598,6.7974,7.2656,7.5989,7.7796,7.8584,8.1381,8.6029,8.5264,8.7177,9.1432,9.3323,9.4281,9.4559,9.6382,9.7433,9.7931,9.9353,10.0592,10.1794,10.2388,10.2722,10.2684,10.2884,10.29,10.3009,4.0678,4.054,4.0972,4.2346,4.3363,4.5293,4.9121,5.1198,5.2829,5.427,5.4059,5.3934,5.4396,5.3557,5.2207,5.0273,5.0968,5.0176,4.7053,4.9063,4.983,4.8579,4.9926,5.06,5.0407,4.9541,4.8541,4.7353,4.4635,4.1557,3.8193,3.6819,3.6739,3.7933,4.1932,4.5081,4.7431,4.8341,5.0218,5.2544,5.2251,5.2126,5.221,5.2472,5.2842,5.3295,5.362,5.4322,5.5199,5.5868,5.6099,5.6203,5.6925,5.7146,5.7065,5.6468,5.6712,5.6956,5.5871,5.6867,5.7922,5.6762,5.8569,6.0375,5.9237,6.0794,6.2465,6.2527,6.4124,6.5894,6.7073,6.5216,6.3066,6.1654,5.8462,5.5429,5.3329,5.4957,5.616,5.5799,5.8447,5.9113,5.5946,5.5892,5.5041,5.2569,5.3588,5.6503,6.153,5.9303,6.0867,6.7357,6.8753,7.244,7.8789,7.7793,8.1698,9.0459,8.6038,8.641,9.1012,9.2864,9.3788,9.4146,9.5969,9.7798,9.9483,9.9686,10.0796,10.2297,10.2408,10.2519,10.2721,10.2684,10.2702,10.2813,4.3657,4.2413,4.167,4.2424,4.43,4.6484,4.8649,5.1307,5.3557,5.4924,5.4863,5.4687,5.4622,5.3858,5.2936,5.1797,5.1738,5.1186,4.975,5.0312,5.0407,4.9758,5.0359,5.0551,5.025,4.9504,4.8555,4.7497,4.389,4.1196,3.942,3.7557,3.7995,4.0471,4.3583,4.626,4.851,4.9773,5.1297,5.2845,5.2327,5.2302,5.2587,5.2607,5.3054,5.3731,5.4041,5.459,5.5199,5.5868,5.6099,5.623,5.6979,5.7206,5.7146,5.6902,5.6984,5.7065,5.6604,5.7332,5.7894,5.6648,5.7948,5.941,5.8871,6.041,6.2101,6.2849,6.4657,6.6595,6.8184,6.7623,6.6457,6.4997,6.3593,6.1742,5.9069,5.9252,6.0129,6.1357,6.043,5.989,6.0538,5.7993,5.6334,5.6441,5.5615,5.6201,5.872,6.0185,6.35,6.901,7.0437,7.4444,8.137,8.0725,8.3271,8.8979,8.7748,8.8457,9.097,9.2632,9.4064,9.5284,9.667,9.8024,9.9381,9.9975,10.0995,10.2201,10.2201,10.2314,10.2501,10.2501,10.2315,10.2089,4.63,4.4829,4.3623,4.3713,4.6079,4.8046,4.8189,5.1356,5.3884,5.4361,5.4687,5.4813,5.4622,5.3909,5.3096,5.2243,5.2044,5.1506,5.0444,5.0656,5.0585,5.0022,5.0455,5.0527,5.0154,4.9456,4.8628,4.7738,4.4419,4.223,4.1081,3.9785,4.0619,4.3373,4.6035,4.809,4.9647,5.1122,5.2226,5.287,5.2503,5.2477,5.2687,5.2911,5.3333,5.3808,5.4278,5.4578,5.4937,5.5636,5.5865,5.6022,5.6925,5.7206,5.7206,5.7206,5.7206,5.7146,5.6956,5.7442,5.7646,5.6372,5.7426,5.8739,5.8723,6.0305,6.2268,6.3772,6.5516,6.728,6.8917,6.9376,6.896,6.7228,6.72,6.6318,6.3153,6.2368,6.27,6.4161,6.1273,6.0062,6.2372,5.9717,5.8201,5.9016,5.8027,5.7709,5.8524,6.0733,6.4208,6.9083,6.983,7.3655,8.0932,8.1065,8.3343,8.7752,8.8815,8.9929,9.1156,9.2893,9.4613,9.632,9.7146,9.8167,9.9316,10.0102,10.1017,10.1893,10.1988,10.2105,10.2295,10.2295,10.1992,10.1603,4.8446,4.8331,4.8214,4.7902,4.9334,5.0066,4.8698,5.1471,5.3331,5.2277,5.3055,5.3934,5.4547,5.3582,5.2243,5.0594,5.1612,5.085,4.7199,4.963,5.0333,4.8421,4.9854,5.0696,5.0696,4.9638,4.882,4.8291,4.7185,4.5309,4.2795,4.3937,4.5253,4.678,4.9869,5.1255,5.1356,5.2427,5.2895,5.2895,5.2895,5.2569,5.2244,5.3496,5.3671,5.3284,5.3947,5.421,5.4308,5.5058,5.5317,5.5521,5.679,5.7206,5.7206,5.7206,5.7206,5.7065,5.6468,5.6812,5.701,5.5823,5.714,5.8696,5.8692,6.0561,6.2975,6.5462,6.6729,6.7914,6.9676,7.0423,7.0008,6.7654,6.807,6.7338,6.3552,6.295,6.2631,6.1919,6.0048,5.894,5.9225,6.0061,6.0064,5.8892,6.0362,6.1927,6.334,6.0059,6.079,6.6577,6.488,6.7851,7.601,7.7148,8.1152,8.8093,8.8763,8.9934,9.1542,9.3586,9.5368,9.6894,9.7105,9.8099,9.963,9.9895,10.0615,10.1497,10.1677,10.1893,10.2104,10.2104,10.1778,10.1384,4.6058,4.7206,4.7921,4.6517,4.8685,5.0495,5.0187,5.1842,5.3306,5.3768,5.3432,5.3381,5.3909,5.3356,5.2669,5.2142,5.1238,5.0578,5.0247,4.9825,4.9669,4.9937,4.9373,4.8892,4.8531,4.7834,4.7377,4.7209,4.6118,4.5465,4.5166,4.6112,4.7751,4.9862,5.0863,5.1699,5.2427,5.2744,5.2895,5.2895,5.2895,5.2795,5.2747,5.3649,5.3868,5.3816,5.4545,5.4811,5.4858,5.5126,5.5519,5.5942,5.6407,5.6848,5.7206,5.7206,5.7206,5.7146,5.6956,5.7113,5.7249,5.7057,5.7529,5.8406,5.9542,6.188,6.4173,6.5468,6.704,6.8464,6.9472,7.0492,7.0371,6.7855,6.9408,6.9621,6.5873,6.5021,6.4681,6.4417,6.2058,6.1347,6.368,6.364,6.3527,6.3708,6.2949,6.275,6.3273,6.4771,6.7638,7.2069,7.3579,7.6728,8.1814,8.1838,8.4031,8.8362,8.9291,9.062,9.2352,9.3545,9.4741,9.5959,9.7242,9.8089,9.8692,10.0016,10.0689,10.1007,10.109,10.1393,10.1711,10.1279,10.0991,10.0807,4.6242,4.7298,4.8039,4.6855,4.8826,5.0458,4.9997,5.1618,5.2955,5.3005,5.2955,5.302,5.3381,5.3096,5.2895,5.2895,5.1747,5.1259,5.1782,5.0622,5.0146,5.0707,4.9734,4.9036,4.8724,4.8171,4.7906,4.7906,4.7172,4.7248,4.8026,4.8727,5.0073,5.19,5.19,5.2277,5.2895,5.2895,5.2895,5.2895,5.2895,5.2895,5.2998,5.3725,5.3997,5.4072,5.4571,5.4759,5.4806,5.5126,5.5492,5.5862,5.619,5.6712,5.7206,5.7206,5.7206,5.7146,5.6902,5.689,5.6913,5.6884,5.7158,5.8054,6.0543,6.3079,6.5195,6.617,6.7393,6.8627,6.9724,7.0562,7.0662,6.9259,7.0396,7.0738,6.8656,6.6816,6.5885,6.6436,6.4134,6.3642,6.6672,6.7461,6.7807,6.7968,6.6358,6.5971,6.731,6.7719,6.9946,7.4382,7.6301,7.9305,8.3682,8.3359,8.4942,8.8377,8.9985,9.1547,9.3019,9.3848,9.477,9.5799,9.7216,9.8084,9.8532,10.0112,10.0707,10.0707,10.0791,10.1002,10.1193,10.0902,10.0506,10.0201,4.8194,4.824,4.8406,4.8345,4.96,5.0111,4.8655,5.097,5.2343,5.0795,5.1916,5.2895,5.2895,5.2895,5.2895,5.2895,5.2795,5.246,5.189,5.1722,5.1349,5.0767,5.06,5.0527,5.0527,5.0033,4.9793,4.9924,4.9893,5.0294,5.1103,5.1504,5.212,5.2895,5.2895,5.2895,5.2895,5.2895,5.2895,5.2895,5.2895,5.2929,5.3033,5.3725,5.403,5.4055,5.4214,5.4262,5.4361,5.5058,5.5311,5.5467,5.6114,5.6685,5.7119,5.7119,5.7146,5.7065,5.6522,5.6342,5.6206,5.5801,5.6411,5.802,6.1595,6.4013,6.587,6.7249,6.7837,6.858,7.0305,7.0561,7.0785,7.1424,7.0949,7.0662,7.1077,6.8042,6.625,6.7487,6.6065,6.5902,6.8297,7.1253,7.2576,7.1528,7.0352,7.1114,7.4427,6.9594,6.9134,7.4499,7.4746,7.7276,8.2469,8.2576,8.4503,8.8307,9.0788,9.2496,9.3503,9.433,9.5194,9.6206,9.6949,9.7911,9.9056,9.9999,10.0413,10.0492,10.0707,10.0791,10.0813,10.0697,10.0289,9.9894,4.5209,4.677,4.802,4.6881,4.8874,5.0492,5.0111,5.1669,5.2744,5.2343,5.2644,5.2895,5.2895,5.2895,5.2895,5.2895,5.1716,5.1347,5.2174,5.0777,5.0255,5.1047,4.9666,4.8868,4.8868,4.8339,4.8787,5.0271,5.0968,5.157,5.2084,5.2419,5.2701,5.2895,5.2895,5.2895,5.2895,5.2895,5.2895,5.2895,5.2895,5.3067,5.341,5.3827,5.414,5.4418,5.4749,5.4889,5.4911,5.5152,5.5545,5.5969,5.6217,5.6387,5.6495,5.6495,5.6821,5.7146,5.7011,5.6643,5.6553,5.7594,5.8928,6.0345,6.1944,6.3475,6.4974,6.6517,6.7874,6.9185,7.0401,7.0204,7.0131,7.0758,7.014,6.8884,6.6777,6.6674,6.6104,6.4338,6.6824,6.9061,6.9922,7.3738,7.5288,7.3267,7.3371,7.4368,7.635,7.5525,7.6549,8.0007,8.1807,8.3676,8.5787,8.6394,8.7786,8.9963,9.1113,9.2232,9.3299,9.4052,9.4974,9.5986,9.6166,9.7199,9.8698,9.8967,9.9534,10.0303,10.0311,10.0406,10.0499,10.0187,9.9943,9.9921,4.6495,4.7574,4.8377,4.7344,4.9051,5.0624,5.0624,5.1911,5.2895,5.2895,5.2895,5.2895,5.2895,5.2895,5.2895,5.2895,5.2067,5.1781,5.2372,5.119,5.0656,5.1187,5.0063,4.9397,4.9397,4.9109,4.9545,5.0798,5.1648,5.2203,5.2412,5.2757,5.2895,5.2895,5.2895,5.2895,5.2895,5.2895,5.2895,5.2895,5.2895,5.3136,5.3546,5.3861,5.4208,5.4544,5.4965,5.5099,5.5146,5.5497,5.5832,5.6123,5.6244,5.6495,5.6658,5.6387,5.6522,5.6794,5.6794,5.6753,5.6975,5.7828,5.942,6.1009,6.1964,6.3718,6.5631,6.7247,6.8522,6.9636,7.0472,7.0268,7.0101,7.0571,6.8802,6.7036,6.6006,6.5411,6.5251,6.5834,6.8702,7.1411,7.3357,7.6165,7.7457,7.6398,7.5892,7.6713,7.9054,7.8539,7.9571,8.2611,8.4371,8.5764,8.6745,8.8385,8.9784,9.0997,9.1783,9.2635,9.3591,9.4378,9.5086,9.5742,9.6101,9.7098,9.8416,9.8438,9.91,10.0024,10.0024,10.0193,10.0297,10.0091,9.9809,9.9798,4.9342,4.9227,4.9112,4.8699,4.9744,5.0662,5.0708,5.1929,5.2832,5.2895,5.2895,5.2895,5.2895,5.2895,5.2895,5.2895,5.2895,5.2792,5.2515,5.2134,5.1691,5.1306,5.0954,5.0731,5.0696,5.0731,5.0919,5.1282,5.204,5.2446,5.2481,5.2757,5.2895,5.2895,5.2895,5.2895,5.2895,5.2895,5.2895,5.2895,5.2895,5.317,5.3614,5.3895,5.4267,5.4645,5.4998,5.5099,5.5199,5.5868,5.6099,5.6123,5.6352,5.6712,5.6956,5.6549,5.6359,5.6332,5.6414,5.6949,5.7443,5.7507,5.9119,6.094,6.1921,6.4244,6.6696,6.8354,6.9154,6.9793,7.0515,7.0237,6.9907,6.9804,6.7121,6.5345,6.6101,6.468,6.5047,6.9238,7.1194,7.3543,7.6999,7.8126,7.8858,7.9441,7.8136,7.858,8.1586,8.0276,8.0724,8.3569,8.4665,8.5797,8.693,8.9275,9.0811,9.1604,9.2425,9.3281,9.4196,9.4887,9.5431,9.5816,9.6389,9.7279,9.831,9.8261,9.883,9.9741,9.9741,9.9876,10.0113,10.0113,9.9894,9.9712,4.987,4.9778,4.9755,4.9686,5.0383,5.099,5.125,5.1999,5.2664,5.2876,5.2895,5.2895,5.2895,5.2895,5.2895,5.2895,5.2895,5.2895,5.2826,5.2515,5.2134,5.1716,5.1341,5.0989,5.0696,5.0989,5.1306,5.1716,5.2144,5.255,5.2826,5.2895,5.2895,5.2895,5.2895,5.2895,5.2895,5.2895,5.2895,5.2895,5.2895,5.3282,5.3929,5.3997,5.4402,5.5032,5.5065,5.5099,5.5199,5.5868,5.6099,5.6203,5.6839,5.6766,5.6522,5.6929,5.6685,5.6414,5.6902,5.7551,5.808,5.8152,5.9597,6.1319,6.249,6.4382,6.6415,6.8296,6.8826,6.9236,7.0177,6.9236,6.7688,6.5937,6.5152,6.4288,6.2896,6.561,6.8519,7.0599,7.3715,7.6273,7.773,7.8167,7.8763,7.9758,7.9934,8.0605,8.1945,8.2752,8.3408,8.3944,8.5131,8.667,8.8508,8.9596,9.0655,9.1604,9.2425,9.3567,9.503,9.5137,9.5945,9.717,9.6576,9.7323,9.8917,9.8236,9.8542,9.9431,9.9431,9.9627,9.9853,9.9853,9.9968,10.0207,5.0398,5.0306,5.0214,4.9962,5.0527,5.1261,5.2019,5.2786,5.346,5.3983,5.4062,5.3892,5.3381,5.3331,5.3196,5.292,5.2895,5.2895,5.2895,5.2585,5.2342,5.2134,5.1726,5.1446,5.1295,5.1656,5.1935,5.2134,5.2481,5.2757,5.2895,5.2895,5.2895,5.2895,5.2895,5.2895,5.2895,5.2895,5.2895,5.2895,5.2895,5.3316,5.3997,5.3997,5.4436,5.5099,5.5099,5.5099,5.5199,5.5868,5.6099,5.623,5.6979,5.6984,5.6821,5.7092,5.6984,5.6917,5.7542,5.7944,5.8301,5.8681,5.9937,6.1523,6.3086,6.499,6.6832,6.8419,6.9052,6.9329,6.9294,6.8816,6.8112,6.7103,6.6012,6.4909,6.3988,6.6534,6.8903,6.994,7.4121,7.727,7.826,7.9097,7.9741,8.0263,8.0844,8.1386,8.1849,8.3068,8.4042,8.4634,8.5873,8.7397,8.9156,9.0049,9.1012,9.2044,9.2863,9.3679,9.4566,9.5422,9.6172,9.685,9.6921,9.767,9.8825,9.8015,9.8322,9.9249,9.9249,9.9375,9.9559,9.927,9.9515,10.0075,5.0865,5.0773,5.0658,5.0329,5.0726,5.144,5.244,5.3035,5.3661,5.4323,5.4678,5.4502,5.3723,5.3874,5.3838,5.3356,5.3306,5.3256,5.3096,5.2863,5.2605,5.2412,5.203,5.182,5.182,5.2203,5.2412,5.2412,5.2757,5.2895,5.2895,5.2895,5.2895,5.2895,5.2895,5.2895,5.2895,5.2895,5.2895,5.2895,5.2895,5.3316,5.3997,5.3997,5.4436,5.5099,5.5099,5.5099,5.5199,5.5868,5.6099,5.623,5.6979,5.7206,5.7206,5.7206,5.7206,5.7335,5.8007,5.8198,5.8357,5.9017,6.0373,6.1906,6.3239,6.5365,6.7315,6.8427,6.9108,6.9281,6.8631,6.8661,6.8503,6.7641,6.6453,6.567,6.5632,6.7298,6.9136,7.0675,7.4663,7.7714,7.8834,7.9845,8.0485,8.061,8.1117,8.1548,8.1792,8.3017,8.4274,8.5613,8.6871,8.8132,8.94,9.0516,9.1527,9.2326,9.3142,9.3744,9.4247,9.5401,9.6173,9.66,9.7242,9.7956,9.8658,9.8027,9.8253,9.8991,9.8873,9.8932,9.9061,9.8526,9.8925,9.9726,5.1347,5.1324,5.1324,5.1278,5.1316,5.1477,5.1798,5.1915,5.2085,5.238,5.3322,5.3835,5.3477,5.438,5.4849,5.4532,5.4471,5.4245,5.3683,5.3598,5.3258,5.2412,5.203,5.182,5.182,5.2203,5.2412,5.2412,5.2757,5.2895,5.2895,5.2895,5.2895,5.2895,5.2895,5.2895,5.2895,5.2895,5.2895,5.2895,5.2895,5.3316,5.3997,5.3997,5.4436,5.5099,5.5099,5.5099,5.5199,5.5868,5.6099,5.623,5.6979,5.7206,5.7206,5.7206,5.7206,5.7335,5.8007,5.8198,5.8357,5.9017,6.1056,6.2822,6.2641,6.5082,6.7529,6.8202,6.8425,6.8576,6.882,6.8667,6.7396,6.3904,6.4631,6.5719,6.5994,6.7926,7.0924,7.5275,7.6722,7.7984,7.9556,7.9793,8.0082,8.056,8.0659,8.1081,8.2011,8.3281,8.4886,8.6908,8.8203,8.9038,8.94,9.0881,9.18,9.2117,9.2861,9.3747,9.4752,9.4858,9.5854,9.7421,9.7457,9.7956,9.8694,9.8658,9.8658,9.867,9.8185,9.81,9.8212,9.7693,9.8265,9.9332,5.1832,5.1755,5.1947,5.2421,5.1909,5.1954,5.3534,5.3149,5.2852,5.3505,5.4597,5.5054,5.4369,5.5289,5.58,5.5328,5.5031,5.4789,5.4587,5.4376,5.3798,5.2748,5.2585,5.2481,5.2481,5.2619,5.2723,5.2723,5.2826,5.2895,5.2895,5.2895,5.2895,5.2895,5.2895,5.2895,5.2895,5.2895,5.2895,5.2895,5.2895,5.3316,5.3997,5.3997,5.4436,5.5099,5.5099,5.5099,5.5199,5.5868,5.6099,5.623,5.6979,5.7206,5.7206,5.7206,5.7206,5.7303,5.7752,5.8039,5.844,5.9494,6.091,6.2362,6.3453,6.5171,6.6702,6.7577,6.8091,6.827,6.7817,6.845,6.8515,6.6888,6.8188,6.9468,6.9515,7.1295,7.3412,7.5556,7.6743,7.79,7.9131,7.9562,7.9878,8.0107,8.0842,8.1442,8.1814,8.365,8.5496,8.7225,8.8568,8.9367,8.9667,9.0829,9.1855,9.2588,9.2871,9.3297,9.3818,9.4314,9.5273,9.6601,9.7064,9.7777,9.8694,9.8694,9.8501,9.8185,9.7987,9.7728,9.7425,9.7377,9.8068,9.9083,5.2697,5.2682,5.292,5.3684,5.2732,5.2455,5.4285,5.3497,5.2816,5.3408,5.4509,5.5102,5.4732,5.5699,5.6362,5.6226,5.5989,5.5735,5.5532,5.5062,5.4351,5.3482,5.3256,5.3146,5.3146,5.297,5.2895,5.2895,5.2895,5.2895,5.2895,5.2895,5.2964,5.3101,5.3101,5.317,5.3273,5.3273,5.3273,5.3273,5.3273,5.3623,5.414,5.414,5.4537,5.5099,5.5099,5.5099,5.5199,5.5868,5.6099,5.623,5.6979,5.7206,5.726,5.745,5.7504,5.7569,5.7897,5.8356,5.8934,5.9759,6.1021,6.2414,6.362,6.4875,6.6003,6.681,6.7473,6.7807,6.7264,6.8296,6.9122,6.8808,7.0462,7.1798,7.1811,7.3619,7.5129,7.5619,7.676,7.7814,7.8684,7.9303,7.9825,8.0104,8.1012,8.1826,8.2378,8.4318,8.6001,8.7236,8.8729,8.9627,8.9901,9.1015,9.1975,9.2781,9.2781,9.2891,9.3131,9.3662,9.4478,9.5533,9.6001,9.6829,9.783,9.7761,9.7592,9.7314,9.7135,9.6877,9.6668,9.6846,9.7618,9.8582,5.4069,5.4187,5.4389,5.4996,5.3841,5.3007,5.3596,5.2398,5.1431,5.1431,5.2459,5.3535,5.4322,5.5509,5.6533,5.7343,5.7415,5.7123,5.6559,5.5643,5.4986,5.4658,5.4009,5.3708,5.3708,5.3206,5.2895,5.2929,5.2929,5.2895,5.2929,5.2929,5.3136,5.3512,5.3512,5.3717,5.3997,5.3997,5.3997,5.3997,5.3997,5.4208,5.4511,5.4511,5.4772,5.5099,5.5099,5.5099,5.5199,5.5868,5.6099,5.623,5.6979,5.7206,5.7342,5.7912,5.8102,5.8167,5.8526,5.9291,5.9921,5.9666,6.1575,6.3316,6.264,6.4057,6.5555,6.5909,6.6534,6.7107,6.7454,6.8297,6.882,6.8479,7.0322,7.1942,7.2281,7.4281,7.5798,7.6069,7.6992,7.7829,7.843,7.9048,7.982,8.0811,8.1163,8.2063,8.3814,8.5369,8.645,8.6989,8.876,8.9838,9.0121,9.1445,9.2205,9.2512,9.2512,9.266,9.2903,9.2903,9.3436,9.4371,9.4228,9.4821,9.5867,9.5668,9.5793,9.6016,9.5516,9.5523,9.5819,9.6031,9.6795,9.7808,5.4063,5.4357,5.4738,5.5121,5.4095,5.3587,5.4603,5.3627,5.2829,5.2929,5.4751,5.5837,5.5357,5.7199,5.8367,5.8193,5.7892,5.759,5.7159,5.6862,5.6652,5.6545,5.5133,5.4426,5.4672,5.4521,5.4407,5.4303,5.4303,5.4099,5.3657,5.3657,5.3725,5.3861,5.3861,5.3895,5.3997,5.3997,5.3997,5.3997,5.3997,5.4208,5.4544,5.4805,5.5139,5.5472,5.5703,5.5802,5.5868,5.6361,5.6524,5.659,5.7044,5.7206,5.7342,5.7912,5.8102,5.8183,5.8744,5.9725,6.059,6.0366,6.1397,6.2588,6.3045,6.3822,6.4608,6.5164,6.6563,6.774,6.8113,6.9731,7.1044,7.111,7.269,7.4022,7.4288,7.5596,7.6571,7.6818,7.7152,7.756,7.8161,7.9028,7.9855,8.0531,8.1978,8.3543,8.5146,8.5875,8.6741,8.7924,8.8696,8.9582,9.0572,9.1418,9.1929,9.2205,9.2205,9.2354,9.2635,9.2635,9.2839,9.3205,9.316,9.3425,9.3892,9.4387,9.4481,9.4448,9.4805,9.4906,9.5034,9.6103,9.6864,9.7466,5.4535,5.4807,5.5164,5.5599,5.4554,5.3947,5.4983,5.3975,5.3362,5.4152,5.5509,5.6612,5.7199,5.8566,5.947,5.9408,5.9033,5.8631,5.8218,5.8038,5.7863,5.7595,5.6392,5.5685,5.5643,5.5449,5.5299,5.5236,5.5236,5.5031,5.4672,5.4466,5.4432,5.4542,5.4277,5.4343,5.4637,5.4637,5.4705,5.4813,5.4813,5.4946,5.5146,5.5405,5.5604,5.5835,5.6033,5.6099,5.6164,5.6557,5.6812,5.6942,5.7141,5.7369,5.7694,5.8292,5.8482,5.8585,5.9182,6.0125,6.0888,6.0726,6.1543,6.2629,6.359,6.4167,6.4865,6.5926,6.741,6.8666,6.9184,7.0709,7.205,7.249,7.371,7.4802,7.5367,7.6124,7.6726,7.7008,7.7376,7.7763,7.8151,7.9304,8.0412,8.1304,8.2864,8.4311,8.5527,8.6169,8.707,8.8361,8.8865,8.9539,9.0468,9.0847,9.1343,9.1929,9.1929,9.208,9.2304,9.198,9.1936,9.2062,9.1682,9.1829,9.233,9.2691,9.3037,9.332,9.3762,9.4,9.4262,9.5482,9.6189,9.6674,5.5241,5.5361,5.5563,5.614,5.501,5.4295,5.5028,5.387,5.3547,5.5264,5.5588,5.6726,5.9334,5.9767,6.0123,6.0767,6.0513,6.0059,5.9536,5.9185,5.8735,5.818,5.7893,5.7431,5.6875,5.6239,5.5895,5.5879,5.5914,5.5888,5.5837,5.5383,5.5332,5.5613,5.5068,5.5144,5.5716,5.5716,5.5888,5.6099,5.6099,5.6099,5.6099,5.6132,5.6164,5.6164,5.6197,5.6197,5.6263,5.6622,5.6974,5.7206,5.7206,5.7613,5.821,5.8802,5.9046,5.9209,5.9839,6.0548,6.106,6.1038,6.2107,6.3348,6.4203,6.4973,6.591,6.7502,6.8637,6.9638,7.0434,7.1341,7.2214,7.2964,7.38,7.4725,7.5653,7.6127,7.6507,7.6795,7.7723,7.8344,7.8372,7.9841,8.132,8.2601,8.3691,8.4587,8.5382,8.6377,8.7395,8.8409,8.9122,8.9634,8.9935,8.9935,9.0529,9.1625,9.1625,9.1727,9.1929,9.1152,9.083,9.0865,9.0002,9.0115,9.091,9.0894,9.1478,9.245,9.2517,9.2913,9.3516,9.4324,9.498,9.5609,5.476,5.5121,5.5294,5.5031,5.4692,5.4834,5.593,5.5793,5.6041,5.7387,5.8813,5.9698,5.951,6.0807,6.1596,6.1289,6.12,6.0967,6.0536,6.0401,6.0313,6.0208,6.0109,5.9918,5.9634,5.817,5.7367,5.7268,5.7521,5.745,5.7004,5.718,5.7305,5.7346,5.7213,5.6989,5.6698,5.6698,5.6465,5.6099,5.6099,5.6099,5.6132,5.6426,5.6584,5.659,5.685,5.6947,5.6979,5.7044,5.7141,5.7206,5.7206,5.7613,5.821,5.8802,5.9317,5.99,6.0743,6.1724,6.2384,6.2141,6.3486,6.4781,6.4461,6.5324,6.6384,6.6966,6.8121,6.9443,7.0914,7.1964,7.3019,7.4248,7.4853,7.5239,7.5457,7.6464,7.7194,7.7252,7.8154,7.8863,7.906,8.0598,8.1912,8.2787,8.4049,8.5141,8.6129,8.6925,8.7868,8.8913,8.9116,8.9295,8.9634,8.9634,9.0064,9.0996,9.0996,9.0883,9.0691,9.0751,9.005,8.8745,8.8811,8.8884,8.8971,8.9525,9.038,9.1384,9.1981,9.2459,9.2893,9.3631,9.4324,9.5052,5.5272,5.5746,5.5973,5.5471,5.5646,5.6091,5.6717,5.6827,5.7334,5.8822,5.9877,6.0701,6.1291,6.2254,6.2731,6.2523,6.2315,6.2026,6.1569,6.1506,6.1374,6.1118,6.1092,6.1031,6.0927,6.0038,5.9244,5.8604,5.8787,5.8724,5.8467,5.8381,5.8323,5.8323,5.803,5.7811,5.7652,5.7652,5.7591,5.7455,5.716,5.7058,5.7031,5.6958,5.6942,5.6974,5.7141,5.7206,5.7206,5.7206,5.7206,5.726,5.7559,5.8015,5.8672,5.9236,5.9777,6.0245,6.0714,6.1547,6.228,6.2414,6.4054,6.5571,6.5198,6.6148,6.7457,6.8574,6.9469,7.0577,7.2273,7.2996,7.3665,7.4707,7.5045,7.532,7.5817,7.6609,7.7312,7.7812,7.881,7.9682,8.0297,8.1148,8.2075,8.3119,8.4005,8.5039,8.642,8.7138,8.7936,8.8813,8.9016,8.9156,8.9295,8.9295,8.96,9.0173,9.003,8.9915,8.9853,8.9339,8.8638,8.7862,8.815,8.839,8.8667,8.9549,9.0462,9.1313,9.1709,9.2092,9.2401,9.2802,9.3476,9.4365,5.6026,5.6477,5.6883,5.6431,5.695,5.7528,5.7847,5.7909,5.8485,6.0137,6.0438,6.1247,6.3199,6.3487,6.3623,6.3809,6.3506,6.3072,6.2581,6.2555,6.2315,6.1808,6.1781,6.179,6.1755,6.1755,6.1149,5.9906,5.987,5.9878,5.9851,5.9368,5.9135,5.9109,5.8635,5.8476,5.8638,5.8638,5.8778,5.8964,5.8482,5.8265,5.821,5.7689,5.7418,5.7369,5.7369,5.7314,5.7233,5.7342,5.7314,5.7309,5.8047,5.8585,5.9127,5.9798,6.0279,6.0603,6.0865,6.144,6.2104,6.2509,6.4295,6.589,6.5591,6.6854,6.8509,7.0129,7.0872,7.1748,7.3417,7.3823,7.4107,7.4771,7.4897,7.5176,7.6014,7.6626,7.7334,7.8239,7.9427,8.0496,8.1346,8.1567,8.2158,8.3246,8.392,8.4962,8.6414,8.7161,8.7839,8.8501,8.8847,8.9016,8.9016,8.9072,8.9212,8.9407,8.8954,8.8836,8.9054,8.7775,8.7249,8.7308,8.7656,8.8167,8.8889,8.9957,9.084,9.1533,9.1596,9.1782,9.203,9.2225,9.2843,9.3758,5.6026,5.6477,5.7009,5.6996,5.7607,5.8574,6.0099,6.0323,6.0781,6.1995,6.2596,6.3046,6.3379,6.3876,6.4192,6.4237,6.4165,6.3955,6.3546,6.3509,6.3482,6.3375,6.3375,6.3315,6.3127,6.3127,6.2489,6.114,6.0979,6.0914,6.0887,6.0642,6.0544,6.0544,6.0463,6.0138,5.9684,5.9684,5.9419,5.8992,5.891,5.8883,5.8856,5.8774,5.8422,5.7993,5.7993,5.764,5.7287,5.7803,5.764,5.7391,5.8503,5.8937,5.9167,6.0073,6.0721,6.1436,6.2674,6.348,6.3843,6.3116,6.4696,6.5968,6.4233,6.6403,6.8742,6.8686,6.9887,7.1361,7.2696,7.3475,7.4107,7.4771,7.4897,7.4958,7.5083,7.6426,7.7551,7.7975,7.9699,8.0928,8.1055,8.1907,8.2539,8.2726,8.4435,8.5666,8.6126,8.7108,8.7862,8.8252,8.8534,8.8677,8.8677,8.8959,8.91,8.9128,8.7983,8.757,8.7829,8.7397,8.6774,8.6109,8.6981,8.7795,8.8547,8.9615,9.0497,9.1219,9.1502,9.1627,9.1787,9.2698,9.3122,9.3515,5.7186,5.7958,5.8679,5.8433,5.9343,6.0456,6.1559,6.1774,6.1916,6.244,6.2728,6.3026,6.3352,6.3957,6.431,6.431,6.431,6.4237,6.4055,6.4055,6.4055,6.4055,6.4055,6.402,6.3894,6.3903,6.3614,6.3019,6.2246,6.1858,6.1858,6.179,6.1759,6.1732,6.1407,6.1081,6.0837,6.0511,6.0274,5.9968,5.9643,5.948,5.9453,5.9127,5.8829,5.8585,5.8585,5.8205,5.7749,5.802,5.7912,5.7857,5.872,5.9342,5.9842,6.0283,6.114,6.1908,6.1814,6.2624,6.3475,6.3092,6.4168,6.5048,6.3967,6.5663,6.7608,6.797,6.8819,7.0092,7.2161,7.312,7.3893,7.4745,7.5561,7.6066,7.6066,7.7223,7.8412,7.9278,8.0189,8.0786,8.0966,8.1825,8.2397,8.2607,8.3852,8.4904,8.5564,8.6402,8.7091,8.7636,8.8103,8.8396,8.8396,8.8677,8.8818,8.8818,8.8103,8.7636,8.7368,8.6499,8.6149,8.62,8.7787,8.8881,8.9637,9.0675,9.1326,9.1561,9.1375,9.1439,9.1693,9.2612,9.3175,9.3705]}]]